<?xml version='1.0' encoding='UTF-8'?>
<gpx version="1.1" creator="https://www.komoot.de" xmlns="http://www.topografix.com/GPX/1/1" xmlns:xsi="http://www.w3.org/2001/XMLSchema-instance" xsi:schemaLocation="http://www.topografix.com/GPX/1/1 http://www.topografix.com/GPX/1/1/gpx.xsd">
  <metadata>
    <name>70_900DuggigenWindental</name>
    <author>
      <link href="https://www.komoot.de">
        <text>komoot</text>
        <type>text/html</type>
      </link>
    </author>
  </metadata>
  <trk>
    <name>70_900DuggigenWindental</name>
    <trkseg>
      <trkpt lat="47.541503" lon="7.870719">
        <ele>339.077876</ele>
        <time>2021-11-20T16:02:45.427Z</time>
      </trkpt>
      <trkpt lat="47.541576" lon="7.870664">
        <ele>339.077876</ele>
        <time>2021-11-20T16:02:46.454Z</time>
      </trkpt>
      <trkpt lat="47.541550" lon="7.870601">
        <ele>339.077876</ele>
        <time>2021-11-20T16:02:47.265Z</time>
      </trkpt>
      <trkpt lat="47.541521" lon="7.870517">
        <ele>339.077876</ele>
        <time>2021-11-20T16:02:48.322Z</time>
      </trkpt>
      <trkpt lat="47.541606" lon="7.870424">
        <ele>339.077876</ele>
        <time>2021-11-20T16:02:50.060Z</time>
      </trkpt>
      <trkpt lat="47.541910" lon="7.870106">
        <ele>339.077876</ele>
        <time>2021-11-20T16:02:55.910Z</time>
      </trkpt>
      <trkpt lat="47.542014" lon="7.870126">
        <ele>339.077876</ele>
        <time>2021-11-20T16:02:57.422Z</time>
      </trkpt>
      <trkpt lat="47.542118" lon="7.870135">
        <ele>339.077876</ele>
        <time>2021-11-20T16:02:59.160Z</time>
      </trkpt>
      <trkpt lat="47.542181" lon="7.870131">
        <ele>339.029137</ele>
        <time>2021-11-20T16:03:00.048Z</time>
      </trkpt>
      <trkpt lat="47.542317" lon="7.870012">
        <ele>338.861946</ele>
        <time>2021-11-20T16:03:02.270Z</time>
      </trkpt>
      <trkpt lat="47.542348" lon="7.869983">
        <ele>338.823138</ele>
        <time>2021-11-20T16:03:02.707Z</time>
      </trkpt>
      <trkpt lat="47.542329" lon="7.869820">
        <ele>338.704946</ele>
        <time>2021-11-20T16:03:04.488Z</time>
      </trkpt>
      <trkpt lat="47.542372" lon="7.869746">
        <ele>338.635180</ele>
        <time>2021-11-20T16:03:05.312Z</time>
      </trkpt>
      <trkpt lat="47.542657" lon="7.869354">
        <ele>338.223529</ele>
        <time>2021-11-20T16:03:10.171Z</time>
      </trkpt>
      <trkpt lat="47.542696" lon="7.869257">
        <ele>338.142857</ele>
        <time>2021-11-20T16:03:11.106Z</time>
      </trkpt>
      <trkpt lat="47.542722" lon="7.869201">
        <ele>338.094294</ele>
        <time>2021-11-20T16:03:11.698Z</time>
      </trkpt>
      <trkpt lat="47.543049" lon="7.868759">
        <ele>337.625739</ele>
        <time>2021-11-20T16:03:16.611Z</time>
      </trkpt>
      <trkpt lat="47.543105" lon="7.868711">
        <ele>337.557256</ele>
        <time>2021-11-20T16:03:17.349Z</time>
      </trkpt>
      <trkpt lat="47.543201" lon="7.868657">
        <ele>337.448563</ele>
        <time>2021-11-20T16:03:18.427Z</time>
      </trkpt>
      <trkpt lat="47.543657" lon="7.868359">
        <ele>336.888773</ele>
        <time>2021-11-20T16:03:24.223Z</time>
      </trkpt>
      <trkpt lat="47.543801" lon="7.868269">
        <ele>336.702261</ele>
        <time>2021-11-20T16:03:26.702Z</time>
      </trkpt>
      <trkpt lat="47.544214" lon="7.867988">
        <ele>336.159905</ele>
        <time>2021-11-20T16:03:34.319Z</time>
      </trkpt>
      <trkpt lat="47.544246" lon="7.867967">
        <ele>336.118138</ele>
        <time>2021-11-20T16:03:34.915Z</time>
      </trkpt>
      <trkpt lat="47.544410" lon="7.867825">
        <ele>335.891449</ele>
        <time>2021-11-20T16:03:38.168Z</time>
      </trkpt>
      <trkpt lat="47.544469" lon="7.867776">
        <ele>335.810732</ele>
        <time>2021-11-20T16:03:39.190Z</time>
      </trkpt>
      <trkpt lat="47.544568" lon="7.867693">
        <ele>335.674981</ele>
        <time>2021-11-20T16:03:41.117Z</time>
      </trkpt>
      <trkpt lat="47.545003" lon="7.867278">
        <ele>335.057539</ele>
        <time>2021-11-20T16:03:49.966Z</time>
      </trkpt>
      <trkpt lat="47.545160" lon="7.866985">
        <ele>335.280783</ele>
        <time>2021-11-20T16:03:54.616Z</time>
      </trkpt>
      <trkpt lat="47.545240" lon="7.866887">
        <ele>335.396350</ele>
        <time>2021-11-20T16:03:56.890Z</time>
      </trkpt>
      <trkpt lat="47.546096" lon="7.866147">
        <ele>336.499706</ele>
        <time>2021-11-20T16:04:21.960Z</time>
      </trkpt>
      <trkpt lat="47.546327" lon="7.865959">
        <ele>336.793125</ele>
        <time>2021-11-20T16:04:29.697Z</time>
      </trkpt>
      <trkpt lat="47.546510" lon="7.865766">
        <ele>337.053086</ele>
        <time>2021-11-20T16:04:36.798Z</time>
      </trkpt>
      <trkpt lat="47.546819" lon="7.865489">
        <ele>337.755956</ele>
        <time>2021-11-20T16:04:47.029Z</time>
      </trkpt>
      <trkpt lat="47.546889" lon="7.865225">
        <ele>338.128547</ele>
        <time>2021-11-20T16:04:52.221Z</time>
      </trkpt>
      <trkpt lat="47.546894" lon="7.864837">
        <ele>338.638320</ele>
        <time>2021-11-20T16:04:59.640Z</time>
      </trkpt>
      <trkpt lat="47.546885" lon="7.864500">
        <ele>339.081352</ele>
        <time>2021-11-20T16:05:06.429Z</time>
      </trkpt>
      <trkpt lat="47.546877" lon="7.864345">
        <ele>339.285556</ele>
        <time>2021-11-20T16:05:09.323Z</time>
      </trkpt>
      <trkpt lat="47.546592" lon="7.863006">
        <ele>340.702070</ele>
        <time>2021-11-20T16:05:35.332Z</time>
      </trkpt>
      <trkpt lat="47.546526" lon="7.861665">
        <ele>341.207908</ele>
        <time>2021-11-20T16:05:56.064Z</time>
      </trkpt>
      <trkpt lat="47.546487" lon="7.859119">
        <ele>341.152096</ele>
        <time>2021-11-20T16:06:28.617Z</time>
      </trkpt>
      <trkpt lat="47.546504" lon="7.858561">
        <ele>341.025712</ele>
        <time>2021-11-20T16:06:35.778Z</time>
      </trkpt>
      <trkpt lat="47.546537" lon="7.857497">
        <ele>340.830878</ele>
        <time>2021-11-20T16:06:49.628Z</time>
      </trkpt>
      <trkpt lat="47.546582" lon="7.856413">
        <ele>340.663255</ele>
        <time>2021-11-20T16:07:03.986Z</time>
      </trkpt>
      <trkpt lat="47.546945" lon="7.851719">
        <ele>339.200008</ele>
        <time>2021-11-20T16:08:05.089Z</time>
      </trkpt>
      <trkpt lat="47.547141" lon="7.850355">
        <ele>338.197717</ele>
        <time>2021-11-20T16:08:20.655Z</time>
      </trkpt>
      <trkpt lat="47.547143" lon="7.849985">
        <ele>337.792609</ele>
        <time>2021-11-20T16:08:24.563Z</time>
      </trkpt>
      <trkpt lat="47.547124" lon="7.848795">
        <ele>336.194544</ele>
        <time>2021-11-20T16:08:37.161Z</time>
      </trkpt>
      <trkpt lat="47.547274" lon="7.845536">
        <ele>332.182975</ele>
        <time>2021-11-20T16:09:11.920Z</time>
      </trkpt>
      <trkpt lat="47.547295" lon="7.844722">
        <ele>331.300740</ele>
        <time>2021-11-20T16:09:21.403Z</time>
      </trkpt>
      <trkpt lat="47.547313" lon="7.843735">
        <ele>330.518561</ele>
        <time>2021-11-20T16:09:33.191Z</time>
      </trkpt>
      <trkpt lat="47.547354" lon="7.842839">
        <ele>329.807128</ele>
        <time>2021-11-20T16:09:43.463Z</time>
      </trkpt>
      <trkpt lat="47.547448" lon="7.842262">
        <ele>329.336909</ele>
        <time>2021-11-20T16:09:50.264Z</time>
      </trkpt>
      <trkpt lat="47.547549" lon="7.842268">
        <ele>329.141486</ele>
        <time>2021-11-20T16:09:51.958Z</time>
      </trkpt>
      <trkpt lat="47.547674" lon="7.842266">
        <ele>328.884658</ele>
        <time>2021-11-20T16:09:54.052Z</time>
      </trkpt>
      <trkpt lat="47.548105" lon="7.842284">
        <ele>327.998814</ele>
        <time>2021-11-20T16:10:00.808Z</time>
      </trkpt>
      <trkpt lat="47.549188" lon="7.842622">
        <ele>325.724953</ele>
        <time>2021-11-20T16:10:17.723Z</time>
      </trkpt>
      <trkpt lat="47.549582" lon="7.842702">
        <ele>325.259598</ele>
        <time>2021-11-20T16:10:23.911Z</time>
      </trkpt>
      <trkpt lat="47.549927" lon="7.842747">
        <ele>324.896890</ele>
        <time>2021-11-20T16:10:29.694Z</time>
      </trkpt>
      <trkpt lat="47.551243" lon="7.842849">
        <ele>323.653380</ele>
        <time>2021-11-20T16:10:53.832Z</time>
      </trkpt>
      <trkpt lat="47.551454" lon="7.842815">
        <ele>323.566159</ele>
        <time>2021-11-20T16:10:58.491Z</time>
      </trkpt>
      <trkpt lat="47.551668" lon="7.842770">
        <ele>323.477335</ele>
        <time>2021-11-20T16:11:03.049Z</time>
      </trkpt>
      <trkpt lat="47.551922" lon="7.842704">
        <ele>323.371361</ele>
        <time>2021-11-20T16:11:07.971Z</time>
      </trkpt>
      <trkpt lat="47.552380" lon="7.842592">
        <ele>323.180601</ele>
        <time>2021-11-20T16:11:16.867Z</time>
      </trkpt>
      <trkpt lat="47.552833" lon="7.842495">
        <ele>322.968109</ele>
        <time>2021-11-20T16:11:25.151Z</time>
      </trkpt>
      <trkpt lat="47.553133" lon="7.842431">
        <ele>322.537677</ele>
        <time>2021-11-20T16:11:30.436Z</time>
      </trkpt>
      <trkpt lat="47.553123" lon="7.842222">
        <ele>322.336857</ele>
        <time>2021-11-20T16:11:32.016Z</time>
      </trkpt>
      <trkpt lat="47.553216" lon="7.841849">
        <ele>321.955737</ele>
        <time>2021-11-20T16:11:35.227Z</time>
      </trkpt>
      <trkpt lat="47.553231" lon="7.841529">
        <ele>321.648293</ele>
        <time>2021-11-20T16:11:37.719Z</time>
      </trkpt>
      <trkpt lat="47.552939" lon="7.839526">
        <ele>319.618215</ele>
        <time>2021-11-20T16:11:53.254Z</time>
      </trkpt>
      <trkpt lat="47.552802" lon="7.839009">
        <ele>319.039860</ele>
        <time>2021-11-20T16:11:57.576Z</time>
      </trkpt>
      <trkpt lat="47.552736" lon="7.838578">
        <ele>318.579656</ele>
        <time>2021-11-20T16:12:01.016Z</time>
      </trkpt>
      <trkpt lat="47.552697" lon="7.838068">
        <ele>318.045200</ele>
        <time>2021-11-20T16:12:05.031Z</time>
      </trkpt>
      <trkpt lat="47.552719" lon="7.836790">
        <ele>316.648493</ele>
        <time>2021-11-20T16:12:15.059Z</time>
      </trkpt>
      <trkpt lat="47.552714" lon="7.835010">
        <ele>314.642325</ele>
        <time>2021-11-20T16:12:28.809Z</time>
      </trkpt>
      <trkpt lat="47.552700" lon="7.833938">
        <ele>312.674830</ele>
        <time>2021-11-20T16:12:36.375Z</time>
      </trkpt>
      <trkpt lat="47.552696" lon="7.833789">
        <ele>312.401197</ele>
        <time>2021-11-20T16:12:37.373Z</time>
      </trkpt>
      <trkpt lat="47.552452" lon="7.833284">
        <ele>311.261527</ele>
        <time>2021-11-20T16:12:41.698Z</time>
      </trkpt>
      <trkpt lat="47.552467" lon="7.833198">
        <ele>311.098531</ele>
        <time>2021-11-20T16:12:42.310Z</time>
      </trkpt>
      <trkpt lat="47.552511" lon="7.833072">
        <ele>310.838204</ele>
        <time>2021-11-20T16:12:43.316Z</time>
      </trkpt>
      <trkpt lat="47.552556" lon="7.832977">
        <ele>310.625227</ele>
        <time>2021-11-20T16:12:44.132Z</time>
      </trkpt>
      <trkpt lat="47.552616" lon="7.832891">
        <ele>310.398254</ele>
        <time>2021-11-20T16:12:44.938Z</time>
      </trkpt>
      <trkpt lat="47.552690" lon="7.832598">
        <ele>309.824184</ele>
        <time>2021-11-20T16:12:47.139Z</time>
      </trkpt>
      <trkpt lat="47.552645" lon="7.830686">
        <ele>306.113936</ele>
        <time>2021-11-20T16:13:00.262Z</time>
      </trkpt>
      <trkpt lat="47.552554" lon="7.829266">
        <ele>303.892047</ele>
        <time>2021-11-20T16:13:10.548Z</time>
      </trkpt>
      <trkpt lat="47.552416" lon="7.828822">
        <ele>303.340545</ele>
        <time>2021-11-20T16:13:14.212Z</time>
      </trkpt>
      <trkpt lat="47.552404" lon="7.828582">
        <ele>303.069027</ele>
        <time>2021-11-20T16:13:16.127Z</time>
      </trkpt>
      <trkpt lat="47.552421" lon="7.828481">
        <ele>302.951585</ele>
        <time>2021-11-20T16:13:16.882Z</time>
      </trkpt>
      <trkpt lat="47.552477" lon="7.828294">
        <ele>302.720769</ele>
        <time>2021-11-20T16:13:18.458Z</time>
      </trkpt>
      <trkpt lat="47.552515" lon="7.828094">
        <ele>302.486351</ele>
        <time>2021-11-20T16:13:20.176Z</time>
      </trkpt>
      <trkpt lat="47.552491" lon="7.827227">
        <ele>301.584139</ele>
        <time>2021-11-20T16:13:27.084Z</time>
      </trkpt>
      <trkpt lat="47.552567" lon="7.824508">
        <ele>300.253496</ele>
        <time>2021-11-20T16:13:50.932Z</time>
      </trkpt>
      <trkpt lat="47.552896" lon="7.820699">
        <ele>298.356404</ele>
        <time>2021-11-20T16:14:23.670Z</time>
      </trkpt>
      <trkpt lat="47.552948" lon="7.819358">
        <ele>297.721995</ele>
        <time>2021-11-20T16:14:35.210Z</time>
      </trkpt>
      <trkpt lat="47.552844" lon="7.816432">
        <ele>297.365680</ele>
        <time>2021-11-20T16:15:02.844Z</time>
      </trkpt>
      <trkpt lat="47.552711" lon="7.812955">
        <ele>298.598098</ele>
        <time>2021-11-20T16:15:43.498Z</time>
      </trkpt>
      <trkpt lat="47.552566" lon="7.810386">
        <ele>299.732033</ele>
        <time>2021-11-20T16:16:13.530Z</time>
      </trkpt>
      <trkpt lat="47.552398" lon="7.808880">
        <ele>300.428471</ele>
        <time>2021-11-20T16:16:32.011Z</time>
      </trkpt>
      <trkpt lat="47.552068" lon="7.806445">
        <ele>300.942156</ele>
        <time>2021-11-20T16:17:00.351Z</time>
      </trkpt>
      <trkpt lat="47.552015" lon="7.806307">
        <ele>300.973101</ele>
        <time>2021-11-20T16:17:02.074Z</time>
      </trkpt>
      <trkpt lat="47.551895" lon="7.806278">
        <ele>300.975302</ele>
        <time>2021-11-20T16:17:03.383Z</time>
      </trkpt>
      <trkpt lat="47.551651" lon="7.806246">
        <ele>300.775243</ele>
        <time>2021-11-20T16:17:07.145Z</time>
      </trkpt>
      <trkpt lat="47.551671" lon="7.806117">
        <ele>300.702283</ele>
        <time>2021-11-20T16:17:08.459Z</time>
      </trkpt>
      <trkpt lat="47.551681" lon="7.805477">
        <ele>300.349404</ele>
        <time>2021-11-20T16:17:16.158Z</time>
      </trkpt>
      <trkpt lat="47.551709" lon="7.805000">
        <ele>300.085477</ele>
        <time>2021-11-20T16:17:21.797Z</time>
      </trkpt>
      <trkpt lat="47.551731" lon="7.804667">
        <ele>299.901042</ele>
        <time>2021-11-20T16:17:26.382Z</time>
      </trkpt>
      <trkpt lat="47.551744" lon="7.804473">
        <ele>299.793578</ele>
        <time>2021-11-20T16:17:28.358Z</time>
      </trkpt>
      <trkpt lat="47.551741" lon="7.804294">
        <ele>299.694879</ele>
        <time>2021-11-20T16:17:30.409Z</time>
      </trkpt>
      <trkpt lat="47.551692" lon="7.803510">
        <ele>299.232138</ele>
        <time>2021-11-20T16:17:39.776Z</time>
      </trkpt>
      <trkpt lat="47.551751" lon="7.803369">
        <ele>299.130949</ele>
        <time>2021-11-20T16:17:41.429Z</time>
      </trkpt>
      <trkpt lat="47.551744" lon="7.803277">
        <ele>299.074480</ele>
        <time>2021-11-20T16:17:42.072Z</time>
      </trkpt>
      <trkpt lat="47.551732" lon="7.803125">
        <ele>298.981137</ele>
        <time>2021-11-20T16:17:44.144Z</time>
      </trkpt>
      <trkpt lat="47.551700" lon="7.802648">
        <ele>298.688764</ele>
        <time>2021-11-20T16:17:48.084Z</time>
      </trkpt>
      <trkpt lat="47.551688" lon="7.802394">
        <ele>298.533461</ele>
        <time>2021-11-20T16:17:50.965Z</time>
      </trkpt>
      <trkpt lat="47.551679" lon="7.802228">
        <ele>298.431886</ele>
        <time>2021-11-20T16:17:52.115Z</time>
      </trkpt>
      <trkpt lat="47.551671" lon="7.802077">
        <ele>298.339502</ele>
        <time>2021-11-20T16:17:54.486Z</time>
      </trkpt>
      <trkpt lat="47.551669" lon="7.801853">
        <ele>298.202864</ele>
        <time>2021-11-20T16:17:56.683Z</time>
      </trkpt>
      <trkpt lat="47.551666" lon="7.801632">
        <ele>298.068041</ele>
        <time>2021-11-20T16:17:58.343Z</time>
      </trkpt>
      <trkpt lat="47.551669" lon="7.801438">
        <ele>297.949682</ele>
        <time>2021-11-20T16:18:00.269Z</time>
      </trkpt>
      <trkpt lat="47.551672" lon="7.801147">
        <ele>297.537470</ele>
        <time>2021-11-20T16:18:02.390Z</time>
      </trkpt>
      <trkpt lat="47.551704" lon="7.800451">
        <ele>296.361120</ele>
        <time>2021-11-20T16:18:08.101Z</time>
      </trkpt>
      <trkpt lat="47.551712" lon="7.800249">
        <ele>296.019912</ele>
        <time>2021-11-20T16:18:09.587Z</time>
      </trkpt>
      <trkpt lat="47.551726" lon="7.800086">
        <ele>295.742836</ele>
        <time>2021-11-20T16:18:10.637Z</time>
      </trkpt>
      <trkpt lat="47.551754" lon="7.799766">
        <ele>295.198721</ele>
        <time>2021-11-20T16:18:12.992Z</time>
      </trkpt>
      <trkpt lat="47.551793" lon="7.799434">
        <ele>294.630471</ele>
        <time>2021-11-20T16:18:15.288Z</time>
      </trkpt>
      <trkpt lat="47.551805" lon="7.799326">
        <ele>294.445905</ele>
        <time>2021-11-20T16:18:16.013Z</time>
      </trkpt>
      <trkpt lat="47.551948" lon="7.798607">
        <ele>293.052086</ele>
        <time>2021-11-20T16:18:21.154Z</time>
      </trkpt>
      <trkpt lat="47.552084" lon="7.798083">
        <ele>291.569609</ele>
        <time>2021-11-20T16:18:24.831Z</time>
      </trkpt>
      <trkpt lat="47.552152" lon="7.797876">
        <ele>290.961689</ele>
        <time>2021-11-20T16:18:26.296Z</time>
      </trkpt>
      <trkpt lat="47.552493" lon="7.797048">
        <ele>288.400343</ele>
        <time>2021-11-20T16:18:32.525Z</time>
      </trkpt>
      <trkpt lat="47.552762" lon="7.796425">
        <ele>286.447389</ele>
        <time>2021-11-20T16:18:37.474Z</time>
      </trkpt>
      <trkpt lat="47.552817" lon="7.796239">
        <ele>286.154399</ele>
        <time>2021-11-20T16:18:38.898Z</time>
      </trkpt>
      <trkpt lat="47.552886" lon="7.795976">
        <ele>285.800719</ele>
        <time>2021-11-20T16:18:40.889Z</time>
      </trkpt>
      <trkpt lat="47.552897" lon="7.795876">
        <ele>285.673723</ele>
        <time>2021-11-20T16:18:41.617Z</time>
      </trkpt>
      <trkpt lat="47.552930" lon="7.795600">
        <ele>285.322393</ele>
        <time>2021-11-20T16:18:43.816Z</time>
      </trkpt>
      <trkpt lat="47.552917" lon="7.795354">
        <ele>285.013109</ele>
        <time>2021-11-20T16:18:45.660Z</time>
      </trkpt>
      <trkpt lat="47.552909" lon="7.795229">
        <ele>284.855729</ele>
        <time>2021-11-20T16:18:46.717Z</time>
      </trkpt>
      <trkpt lat="47.552892" lon="7.795106">
        <ele>284.698359</ele>
        <time>2021-11-20T16:18:47.645Z</time>
      </trkpt>
      <trkpt lat="47.552861" lon="7.794992">
        <ele>284.544307</ele>
        <time>2021-11-20T16:18:48.525Z</time>
      </trkpt>
      <trkpt lat="47.552837" lon="7.794925">
        <ele>284.449232</ele>
        <time>2021-11-20T16:18:49.091Z</time>
      </trkpt>
      <trkpt lat="47.552826" lon="7.794894">
        <ele>284.405333</ele>
        <time>2021-11-20T16:18:49.344Z</time>
      </trkpt>
      <trkpt lat="47.552786" lon="7.794796">
        <ele>284.261782</ele>
        <time>2021-11-20T16:18:50.174Z</time>
      </trkpt>
      <trkpt lat="47.552763" lon="7.794750">
        <ele>284.190026</ele>
        <time>2021-11-20T16:18:50.857Z</time>
      </trkpt>
      <trkpt lat="47.552644" lon="7.794507">
        <ele>283.813712</ele>
        <time>2021-11-20T16:18:53.114Z</time>
      </trkpt>
      <trkpt lat="47.552532" lon="7.794285">
        <ele>283.466302</ele>
        <time>2021-11-20T16:18:55.305Z</time>
      </trkpt>
      <trkpt lat="47.552494" lon="7.794200">
        <ele>283.338507</ele>
        <time>2021-11-20T16:18:56.121Z</time>
      </trkpt>
      <trkpt lat="47.552384" lon="7.793915">
        <ele>283.002832</ele>
        <time>2021-11-20T16:18:58.782Z</time>
      </trkpt>
      <trkpt lat="47.552369" lon="7.793872">
        <ele>282.985241</ele>
        <time>2021-11-20T16:18:59.565Z</time>
      </trkpt>
      <trkpt lat="47.552292" lon="7.793607">
        <ele>282.880386</ele>
        <time>2021-11-20T16:19:01.961Z</time>
      </trkpt>
      <trkpt lat="47.552233" lon="7.793294">
        <ele>282.762280</ele>
        <time>2021-11-20T16:19:05.475Z</time>
      </trkpt>
      <trkpt lat="47.552216" lon="7.793160">
        <ele>282.712728</ele>
        <time>2021-11-20T16:19:06.604Z</time>
      </trkpt>
      <trkpt lat="47.552198" lon="7.792976">
        <ele>282.645158</ele>
        <time>2021-11-20T16:19:08.306Z</time>
      </trkpt>
      <trkpt lat="47.552184" lon="7.792540">
        <ele>282.486524</ele>
        <time>2021-11-20T16:19:12.716Z</time>
      </trkpt>
      <trkpt lat="47.552180" lon="7.792294">
        <ele>282.397095</ele>
        <time>2021-11-20T16:19:15.233Z</time>
      </trkpt>
      <trkpt lat="47.552182" lon="7.792040">
        <ele>282.304778</ele>
        <time>2021-11-20T16:19:17.399Z</time>
      </trkpt>
      <trkpt lat="47.552201" lon="7.791031">
        <ele>281.897573</ele>
        <time>2021-11-20T16:19:25.897Z</time>
      </trkpt>
      <trkpt lat="47.552135" lon="7.790302">
        <ele>281.545530</ele>
        <time>2021-11-20T16:19:32.325Z</time>
      </trkpt>
      <trkpt lat="47.552036" lon="7.789826">
        <ele>281.307131</ele>
        <time>2021-11-20T16:19:36.718Z</time>
      </trkpt>
      <trkpt lat="47.551858" lon="7.788906">
        <ele>280.849058</ele>
        <time>2021-11-20T16:19:45.042Z</time>
      </trkpt>
      <trkpt lat="47.551712" lon="7.788013">
        <ele>280.240082</ele>
        <time>2021-11-20T16:19:52.812Z</time>
      </trkpt>
      <trkpt lat="47.551694" lon="7.787879">
        <ele>280.145606</ele>
        <time>2021-11-20T16:19:53.915Z</time>
      </trkpt>
      <trkpt lat="47.551690" lon="7.787827">
        <ele>280.109416</ele>
        <time>2021-11-20T16:19:54.337Z</time>
      </trkpt>
      <trkpt lat="47.551672" lon="7.787603">
        <ele>279.953430</ele>
        <time>2021-11-20T16:19:56.209Z</time>
      </trkpt>
      <trkpt lat="47.551498" lon="7.785081">
        <ele>278.242943</ele>
        <time>2021-11-20T16:20:16.582Z</time>
      </trkpt>
      <trkpt lat="47.551479" lon="7.784929">
        <ele>278.142139</ele>
        <time>2021-11-20T16:20:17.746Z</time>
      </trkpt>
      <trkpt lat="47.551510" lon="7.784910">
        <ele>278.109726</ele>
        <time>2021-11-20T16:20:18.208Z</time>
      </trkpt>
      <trkpt lat="47.551531" lon="7.784884">
        <ele>278.083285</ele>
        <time>2021-11-20T16:20:18.556Z</time>
      </trkpt>
      <trkpt lat="47.551548" lon="7.784841">
        <ele>278.050788</ele>
        <time>2021-11-20T16:20:19.016Z</time>
      </trkpt>
      <trkpt lat="47.551554" lon="7.784788">
        <ele>278.015744</ele>
        <time>2021-11-20T16:20:19.484Z</time>
      </trkpt>
      <trkpt lat="47.551547" lon="7.784737">
        <ele>277.981806</ele>
        <time>2021-11-20T16:20:19.929Z</time>
      </trkpt>
      <trkpt lat="47.551525" lon="7.784691">
        <ele>277.945042</ele>
        <time>2021-11-20T16:20:20.429Z</time>
      </trkpt>
      <trkpt lat="47.551500" lon="7.784666">
        <ele>277.915901</ele>
        <time>2021-11-20T16:20:20.803Z</time>
      </trkpt>
      <trkpt lat="47.551472" lon="7.784654">
        <ele>277.887739</ele>
        <time>2021-11-20T16:20:21.155Z</time>
      </trkpt>
      <trkpt lat="47.551437" lon="7.784657">
        <ele>277.853867</ele>
        <time>2021-11-20T16:20:21.553Z</time>
      </trkpt>
      <trkpt lat="47.551439" lon="7.784323">
        <ele>277.636057</ele>
        <time>2021-11-20T16:20:24.383Z</time>
      </trkpt>
      <trkpt lat="47.551409" lon="7.783966">
        <ele>277.401461</ele>
        <time>2021-11-20T16:20:27.331Z</time>
      </trkpt>
      <trkpt lat="47.551302" lon="7.782671">
        <ele>277.022015</ele>
        <time>2021-11-20T16:20:39.437Z</time>
      </trkpt>
      <trkpt lat="47.551230" lon="7.781831">
        <ele>276.865077</ele>
        <time>2021-11-20T16:20:47.606Z</time>
      </trkpt>
      <trkpt lat="47.551198" lon="7.781475">
        <ele>276.798513</ele>
        <time>2021-11-20T16:20:51.142Z</time>
      </trkpt>
      <trkpt lat="47.551270" lon="7.781390">
        <ele>276.773233</ele>
        <time>2021-11-20T16:20:52.922Z</time>
      </trkpt>
      <trkpt lat="47.551208" lon="7.780694">
        <ele>276.612161</ele>
        <time>2021-11-20T16:20:59.677Z</time>
      </trkpt>
      <trkpt lat="47.551085" lon="7.779125">
        <ele>276.193771</ele>
        <time>2021-11-20T16:21:14.158Z</time>
      </trkpt>
      <trkpt lat="47.550982" lon="7.777915">
        <ele>275.960336</ele>
        <time>2021-11-20T16:21:24.719Z</time>
      </trkpt>
      <trkpt lat="47.550963" lon="7.777797">
        <ele>275.948973</ele>
        <time>2021-11-20T16:21:25.731Z</time>
      </trkpt>
      <trkpt lat="47.550782" lon="7.776690">
        <ele>275.842278</ele>
        <time>2021-11-20T16:21:36.504Z</time>
      </trkpt>
      <trkpt lat="47.550649" lon="7.776068">
        <ele>275.781160</ele>
        <time>2021-11-20T16:21:43.467Z</time>
      </trkpt>
      <trkpt lat="47.550607" lon="7.775871">
        <ele>275.761807</ele>
        <time>2021-11-20T16:21:45.839Z</time>
      </trkpt>
      <trkpt lat="47.550598" lon="7.775828">
        <ele>275.767668</ele>
        <time>2021-11-20T16:21:46.325Z</time>
      </trkpt>
      <trkpt lat="47.550505" lon="7.775364">
        <ele>275.935377</ele>
        <time>2021-11-20T16:21:51.839Z</time>
      </trkpt>
      <trkpt lat="47.550320" lon="7.774602">
        <ele>276.215962</ele>
        <time>2021-11-20T16:22:01.325Z</time>
      </trkpt>
      <trkpt lat="47.550090" lon="7.773646">
        <ele>276.567620</ele>
        <time>2021-11-20T16:22:13.205Z</time>
      </trkpt>
      <trkpt lat="47.550061" lon="7.773283">
        <ele>276.691366</ele>
        <time>2021-11-20T16:22:17.343Z</time>
      </trkpt>
      <trkpt lat="47.550203" lon="7.772543">
        <ele>276.888627</ele>
        <time>2021-11-20T16:22:25.553Z</time>
      </trkpt>
      <trkpt lat="47.550199" lon="7.772076">
        <ele>277.008379</ele>
        <time>2021-11-20T16:22:30.541Z</time>
      </trkpt>
      <trkpt lat="47.550069" lon="7.771373">
        <ele>277.195277</ele>
        <time>2021-11-20T16:22:38.355Z</time>
      </trkpt>
      <trkpt lat="47.549845" lon="7.770734">
        <ele>277.401832</ele>
        <time>2021-11-20T16:22:46.511Z</time>
      </trkpt>
      <trkpt lat="47.549714" lon="7.770276">
        <ele>277.736237</ele>
        <time>2021-11-20T16:22:52.283Z</time>
      </trkpt>
      <trkpt lat="47.549678" lon="7.770148">
        <ele>277.829459</ele>
        <time>2021-11-20T16:22:54.074Z</time>
      </trkpt>
      <trkpt lat="47.549363" lon="7.768846">
        <ele>278.759288</ele>
        <time>2021-11-20T16:23:11.256Z</time>
      </trkpt>
      <trkpt lat="47.549184" lon="7.768021">
        <ele>279.280074</ele>
        <time>2021-11-20T16:23:23.698Z</time>
      </trkpt>
      <trkpt lat="47.548990" lon="7.767248">
        <ele>279.648301</ele>
        <time>2021-11-20T16:23:35.372Z</time>
      </trkpt>
      <trkpt lat="47.548565" lon="7.765680">
        <ele>280.249002</ele>
        <time>2021-11-20T16:23:54.182Z</time>
      </trkpt>
      <trkpt lat="47.547909" lon="7.763208">
        <ele>278.096687</ele>
        <time>2021-11-20T16:24:15.056Z</time>
      </trkpt>
      <trkpt lat="47.547848" lon="7.762928">
        <ele>277.795435</ele>
        <time>2021-11-20T16:24:17.194Z</time>
      </trkpt>
      <trkpt lat="47.547778" lon="7.762713">
        <ele>277.551027</ele>
        <time>2021-11-20T16:24:19.016Z</time>
      </trkpt>
      <trkpt lat="47.547712" lon="7.762580">
        <ele>277.382007</ele>
        <time>2021-11-20T16:24:20.229Z</time>
      </trkpt>
      <trkpt lat="47.547577" lon="7.762307">
        <ele>277.035495</ele>
        <time>2021-11-20T16:24:22.788Z</time>
      </trkpt>
      <trkpt lat="47.547194" lon="7.761352">
        <ele>275.898094</ele>
        <time>2021-11-20T16:24:31.295Z</time>
      </trkpt>
      <trkpt lat="47.546989" lon="7.760612">
        <ele>275.604802</ele>
        <time>2021-11-20T16:24:37.758Z</time>
      </trkpt>
      <trkpt lat="47.546948" lon="7.760482">
        <ele>275.647834</ele>
        <time>2021-11-20T16:24:39.016Z</time>
      </trkpt>
      <trkpt lat="47.546870" lon="7.760301">
        <ele>275.712236</ele>
        <time>2021-11-20T16:24:40.922Z</time>
      </trkpt>
      <trkpt lat="47.546804" lon="7.760164">
        <ele>275.762713</ele>
        <time>2021-11-20T16:24:42.375Z</time>
      </trkpt>
      <trkpt lat="47.546552" lon="7.759727">
        <ele>275.935085</ele>
        <time>2021-11-20T16:24:48.359Z</time>
      </trkpt>
      <trkpt lat="47.546312" lon="7.759326">
        <ele>276.095813</ele>
        <time>2021-11-20T16:24:54.723Z</time>
      </trkpt>
      <trkpt lat="47.546264" lon="7.759224">
        <ele>276.133103</ele>
        <time>2021-11-20T16:24:56.357Z</time>
      </trkpt>
      <trkpt lat="47.545911" lon="7.758393">
        <ele>277.308960</ele>
        <time>2021-11-20T16:25:12.757Z</time>
      </trkpt>
      <trkpt lat="47.545677" lon="7.757815">
        <ele>278.759398</ele>
        <time>2021-11-20T16:25:25.209Z</time>
      </trkpt>
      <trkpt lat="47.545429" lon="7.757231">
        <ele>280.244208</ele>
        <time>2021-11-20T16:25:38.515Z</time>
      </trkpt>
      <trkpt lat="47.545360" lon="7.757065">
        <ele>280.663746</ele>
        <time>2021-11-20T16:25:43.174Z</time>
      </trkpt>
      <trkpt lat="47.545326" lon="7.756949">
        <ele>280.935901</ele>
        <time>2021-11-20T16:25:45.926Z</time>
      </trkpt>
      <trkpt lat="47.545304" lon="7.756852">
        <ele>281.156117</ele>
        <time>2021-11-20T16:25:48.127Z</time>
      </trkpt>
      <trkpt lat="47.545260" lon="7.756637">
        <ele>281.639604</ele>
        <time>2021-11-20T16:25:53.185Z</time>
      </trkpt>
      <trkpt lat="47.545021" lon="7.756243">
        <ele>282.658313</ele>
        <time>2021-11-20T16:26:04.274Z</time>
      </trkpt>
      <trkpt lat="47.544022" lon="7.753705">
        <ele>287.429419</ele>
        <time>2021-11-20T16:26:52.745Z</time>
      </trkpt>
      <trkpt lat="47.543798" lon="7.753068">
        <ele>288.106047</ele>
        <time>2021-11-20T16:27:02.484Z</time>
      </trkpt>
      <trkpt lat="47.543319" lon="7.751355">
        <ele>289.513231</ele>
        <time>2021-11-20T16:27:25.555Z</time>
      </trkpt>
      <trkpt lat="47.543222" lon="7.751091">
        <ele>289.605473</ele>
        <time>2021-11-20T16:27:28.846Z</time>
      </trkpt>
      <trkpt lat="47.543115" lon="7.750826">
        <ele>289.700237</ele>
        <time>2021-11-20T16:27:33.571Z</time>
      </trkpt>
      <trkpt lat="47.543033" lon="7.750614">
        <ele>289.775221</ele>
        <time>2021-11-20T16:27:36.182Z</time>
      </trkpt>
      <trkpt lat="47.542906" lon="7.750353">
        <ele>289.873960</ele>
        <time>2021-11-20T16:27:39.861Z</time>
      </trkpt>
      <trkpt lat="47.542614" lon="7.749755">
        <ele>290.100461</ele>
        <time>2021-11-20T16:27:47.722Z</time>
      </trkpt>
      <trkpt lat="47.542390" lon="7.749307">
        <ele>290.169958</ele>
        <time>2021-11-20T16:27:53.532Z</time>
      </trkpt>
      <trkpt lat="47.542347" lon="7.749227">
        <ele>290.170877</ele>
        <time>2021-11-20T16:27:55.063Z</time>
      </trkpt>
      <trkpt lat="47.542132" lon="7.748742">
        <ele>290.176091</ele>
        <time>2021-11-20T16:28:02.624Z</time>
      </trkpt>
      <trkpt lat="47.541758" lon="7.747784">
        <ele>290.186035</ele>
        <time>2021-11-20T16:28:17.409Z</time>
      </trkpt>
      <trkpt lat="47.541583" lon="7.747186">
        <ele>290.192869</ele>
        <time>2021-11-20T16:28:26.588Z</time>
      </trkpt>
      <trkpt lat="47.541511" lon="7.746885">
        <ele>290.198395</ele>
        <time>2021-11-20T16:28:31.058Z</time>
      </trkpt>
      <trkpt lat="47.541432" lon="7.746552">
        <ele>290.204503</ele>
        <time>2021-11-20T16:28:36.170Z</time>
      </trkpt>
      <trkpt lat="47.541167" lon="7.745463">
        <ele>290.224535</ele>
        <time>2021-11-20T16:28:51.840Z</time>
      </trkpt>
      <trkpt lat="47.541160" lon="7.745250">
        <ele>290.228226</ele>
        <time>2021-11-20T16:28:54.740Z</time>
      </trkpt>
      <trkpt lat="47.541148" lon="7.745144">
        <ele>290.230086</ele>
        <time>2021-11-20T16:28:56.294Z</time>
      </trkpt>
      <trkpt lat="47.541130" lon="7.745083">
        <ele>290.231238</ele>
        <time>2021-11-20T16:28:57.186Z</time>
      </trkpt>
      <trkpt lat="47.541038" lon="7.744940">
        <ele>290.234656</ele>
        <time>2021-11-20T16:28:59.547Z</time>
      </trkpt>
      <trkpt lat="47.541019" lon="7.744859">
        <ele>290.236140</ele>
        <time>2021-11-20T16:29:00.810Z</time>
      </trkpt>
      <trkpt lat="47.540913" lon="7.744421">
        <ele>290.237364</ele>
        <time>2021-11-20T16:29:07.342Z</time>
      </trkpt>
      <trkpt lat="47.540738" lon="7.743641">
        <ele>290.238191</ele>
        <time>2021-11-20T16:29:19.212Z</time>
      </trkpt>
      <trkpt lat="47.540723" lon="7.743545">
        <ele>290.238290</ele>
        <time>2021-11-20T16:29:20.442Z</time>
      </trkpt>
      <trkpt lat="47.540617" lon="7.742875">
        <ele>290.238981</ele>
        <time>2021-11-20T16:29:30.124Z</time>
      </trkpt>
      <trkpt lat="47.540589" lon="7.742558">
        <ele>290.239303</ele>
        <time>2021-11-20T16:29:34.499Z</time>
      </trkpt>
      <trkpt lat="47.540552" lon="7.742240">
        <ele>290.236676</ele>
        <time>2021-11-20T16:29:38.781Z</time>
      </trkpt>
      <trkpt lat="47.540438" lon="7.740453">
        <ele>289.276832</ele>
        <time>2021-11-20T16:30:00.760Z</time>
      </trkpt>
      <trkpt lat="47.540374" lon="7.739620">
        <ele>288.828515</ele>
        <time>2021-11-20T16:30:10.327Z</time>
      </trkpt>
      <trkpt lat="47.540372" lon="7.739490">
        <ele>288.743583</ele>
        <time>2021-11-20T16:30:11.871Z</time>
      </trkpt>
      <trkpt lat="47.540387" lon="7.739372">
        <ele>288.661682</ele>
        <time>2021-11-20T16:30:13.352Z</time>
      </trkpt>
      <trkpt lat="47.540394" lon="7.739259">
        <ele>288.584283</ele>
        <time>2021-11-20T16:30:14.678Z</time>
      </trkpt>
      <trkpt lat="47.540388" lon="7.739213">
        <ele>288.552326</ele>
        <time>2021-11-20T16:30:15.070Z</time>
      </trkpt>
      <trkpt lat="47.540106" lon="7.737574">
        <ele>287.398645</ele>
        <time>2021-11-20T16:30:34.450Z</time>
      </trkpt>
      <trkpt lat="47.540032" lon="7.737141">
        <ele>287.093982</ele>
        <time>2021-11-20T16:30:39.599Z</time>
      </trkpt>
      <trkpt lat="47.539305" lon="7.734151">
        <ele>287.652822</ele>
        <time>2021-11-20T16:31:26.043Z</time>
      </trkpt>
      <trkpt lat="47.539263" lon="7.733885">
        <ele>287.796754</ele>
        <time>2021-11-20T16:31:30.444Z</time>
      </trkpt>
      <trkpt lat="47.539178" lon="7.733656">
        <ele>287.934445</ele>
        <time>2021-11-20T16:31:34.594Z</time>
      </trkpt>
      <trkpt lat="47.538887" lon="7.732454">
        <ele>288.607248</ele>
        <time>2021-11-20T16:31:55.281Z</time>
      </trkpt>
      <trkpt lat="47.538512" lon="7.730958">
        <ele>289.167741</ele>
        <time>2021-11-20T16:32:20.785Z</time>
      </trkpt>
      <trkpt lat="47.538339" lon="7.730082">
        <ele>289.419227</ele>
        <time>2021-11-20T16:32:34.169Z</time>
      </trkpt>
      <trkpt lat="47.538275" lon="7.729744">
        <ele>289.515952</ele>
        <time>2021-11-20T16:32:39.032Z</time>
      </trkpt>
      <trkpt lat="47.538248" lon="7.729713">
        <ele>289.529895</ele>
        <time>2021-11-20T16:32:39.648Z</time>
      </trkpt>
      <trkpt lat="47.538168" lon="7.729263">
        <ele>289.382531</ele>
        <time>2021-11-20T16:32:45.731Z</time>
      </trkpt>
      <trkpt lat="47.538148" lon="7.729131">
        <ele>289.258155</ele>
        <time>2021-11-20T16:32:47.401Z</time>
      </trkpt>
      <trkpt lat="47.538123" lon="7.729100">
        <ele>289.213755</ele>
        <time>2021-11-20T16:32:47.995Z</time>
      </trkpt>
      <trkpt lat="47.538083" lon="7.728919">
        <ele>289.038660</ele>
        <time>2021-11-20T16:32:50.323Z</time>
      </trkpt>
      <trkpt lat="47.538023" lon="7.728526">
        <ele>288.668222</ele>
        <time>2021-11-20T16:32:55.200Z</time>
      </trkpt>
      <trkpt lat="47.537932" lon="7.727936">
        <ele>288.111816</ele>
        <time>2021-11-20T16:33:02.138Z</time>
      </trkpt>
      <trkpt lat="47.537861" lon="7.727909">
        <ele>288.011991</ele>
        <time>2021-11-20T16:33:03.325Z</time>
      </trkpt>
      <trkpt lat="47.537824" lon="7.727674">
        <ele>287.790140</ele>
        <time>2021-11-20T16:33:05.180Z</time>
      </trkpt>
      <trkpt lat="47.537675" lon="7.726458">
        <ele>285.852619</ele>
        <time>2021-11-20T16:33:14.121Z</time>
      </trkpt>
      <trkpt lat="47.537323" lon="7.724748">
        <ele>281.527867</ele>
        <time>2021-11-20T16:33:25.862Z</time>
      </trkpt>
      <trkpt lat="47.537127" lon="7.723974">
        <ele>279.717280</ele>
        <time>2021-11-20T16:33:31.299Z</time>
      </trkpt>
      <trkpt lat="47.537106" lon="7.723875">
        <ele>279.506774</ele>
        <time>2021-11-20T16:33:31.982Z</time>
      </trkpt>
      <trkpt lat="47.537075" lon="7.723694">
        <ele>279.127976</ele>
        <time>2021-11-20T16:33:33.211Z</time>
      </trkpt>
      <trkpt lat="47.536854" lon="7.722329">
        <ele>276.280487</ele>
        <time>2021-11-20T16:33:43.125Z</time>
      </trkpt>
      <trkpt lat="47.536667" lon="7.721718">
        <ele>274.952399</ele>
        <time>2021-11-20T16:33:48.248Z</time>
      </trkpt>
      <trkpt lat="47.536590" lon="7.721558">
        <ele>274.588567</ele>
        <time>2021-11-20T16:33:49.707Z</time>
      </trkpt>
      <trkpt lat="47.536471" lon="7.721389">
        <ele>274.136404</ele>
        <time>2021-11-20T16:33:51.227Z</time>
      </trkpt>
      <trkpt lat="47.536092" lon="7.720862">
        <ele>272.710647</ele>
        <time>2021-11-20T16:33:57.087Z</time>
      </trkpt>
      <trkpt lat="47.535988" lon="7.720671">
        <ele>272.256284</ele>
        <time>2021-11-20T16:33:58.580Z</time>
      </trkpt>
      <trkpt lat="47.535897" lon="7.720461">
        <ele>271.794223</ele>
        <time>2021-11-20T16:34:00.818Z</time>
      </trkpt>
      <trkpt lat="47.535876" lon="7.720409">
        <ele>271.682024</ele>
        <time>2021-11-20T16:34:01.469Z</time>
      </trkpt>
      <trkpt lat="47.535806" lon="7.720212">
        <ele>271.269803</ele>
        <time>2021-11-20T16:34:02.816Z</time>
      </trkpt>
      <trkpt lat="47.535746" lon="7.719899">
        <ele>270.667315</ele>
        <time>2021-11-20T16:34:06.348Z</time>
      </trkpt>
      <trkpt lat="47.535713" lon="7.719682">
        <ele>270.299245</ele>
        <time>2021-11-20T16:34:07.683Z</time>
      </trkpt>
      <trkpt lat="47.535661" lon="7.719317">
        <ele>269.891619</ele>
        <time>2021-11-20T16:34:11.597Z</time>
      </trkpt>
      <trkpt lat="47.535624" lon="7.719055">
        <ele>269.599130</ele>
        <time>2021-11-20T16:34:13.384Z</time>
      </trkpt>
      <trkpt lat="47.535608" lon="7.718948">
        <ele>269.479375</ele>
        <time>2021-11-20T16:34:14.494Z</time>
      </trkpt>
      <trkpt lat="47.535572" lon="7.718705">
        <ele>269.207526</ele>
        <time>2021-11-20T16:34:16.101Z</time>
      </trkpt>
      <trkpt lat="47.535558" lon="7.718578">
        <ele>269.066912</ele>
        <time>2021-11-20T16:34:17.072Z</time>
      </trkpt>
      <trkpt lat="47.535516" lon="7.718273">
        <ele>268.726769</ele>
        <time>2021-11-20T16:34:19.928Z</time>
      </trkpt>
      <trkpt lat="47.535494" lon="7.718111">
        <ele>268.546202</ele>
        <time>2021-11-20T16:34:20.912Z</time>
      </trkpt>
      <trkpt lat="47.535490" lon="7.718086">
        <ele>268.518128</ele>
        <time>2021-11-20T16:34:21.718Z</time>
      </trkpt>
      <trkpt lat="47.535419" lon="7.717562">
        <ele>267.934122</ele>
        <time>2021-11-20T16:34:25.743Z</time>
      </trkpt>
      <trkpt lat="47.535384" lon="7.717243">
        <ele>267.580969</ele>
        <time>2021-11-20T16:34:30.897Z</time>
      </trkpt>
      <trkpt lat="47.535370" lon="7.716931">
        <ele>267.635540</ele>
        <time>2021-11-20T16:34:34.564Z</time>
      </trkpt>
      <trkpt lat="47.535347" lon="7.716584">
        <ele>267.967077</ele>
        <time>2021-11-20T16:34:37.959Z</time>
      </trkpt>
      <trkpt lat="47.535313" lon="7.716133">
        <ele>268.398583</ele>
        <time>2021-11-20T16:34:45.109Z</time>
      </trkpt>
      <trkpt lat="47.535254" lon="7.715336">
        <ele>269.160966</ele>
        <time>2021-11-20T16:34:57.658Z</time>
      </trkpt>
      <trkpt lat="47.535269" lon="7.714924">
        <ele>269.553293</ele>
        <time>2021-11-20T16:35:03.791Z</time>
      </trkpt>
      <trkpt lat="47.535269" lon="7.714705">
        <ele>269.761533</ele>
        <time>2021-11-20T16:35:07.051Z</time>
      </trkpt>
      <trkpt lat="47.535269" lon="7.714432">
        <ele>270.011140</ele>
        <time>2021-11-20T16:35:10.701Z</time>
      </trkpt>
      <trkpt lat="47.535222" lon="7.713738">
        <ele>270.494146</ele>
        <time>2021-11-20T16:35:20.208Z</time>
      </trkpt>
      <trkpt lat="47.535202" lon="7.713540">
        <ele>270.632787</ele>
        <time>2021-11-20T16:35:22.898Z</time>
      </trkpt>
      <trkpt lat="47.535174" lon="7.713262">
        <ele>270.827432</ele>
        <time>2021-11-20T16:35:26.357Z</time>
      </trkpt>
      <trkpt lat="47.535128" lon="7.712889">
        <ele>271.090009</ele>
        <time>2021-11-20T16:35:31.150Z</time>
      </trkpt>
      <trkpt lat="47.535110" lon="7.712748">
        <ele>271.189381</ele>
        <time>2021-11-20T16:35:32.892Z</time>
      </trkpt>
      <trkpt lat="47.535067" lon="7.712436">
        <ele>271.409898</ele>
        <time>2021-11-20T16:35:36.926Z</time>
      </trkpt>
      <trkpt lat="47.535045" lon="7.712277">
        <ele>271.522294</ele>
        <time>2021-11-20T16:35:38.794Z</time>
      </trkpt>
      <trkpt lat="47.534965" lon="7.711682">
        <ele>271.867712</ele>
        <time>2021-11-20T16:35:45.995Z</time>
      </trkpt>
      <trkpt lat="47.534909" lon="7.711265">
        <ele>271.967706</ele>
        <time>2021-11-20T16:35:51.023Z</time>
      </trkpt>
      <trkpt lat="47.534768" lon="7.710504">
        <ele>272.153302</ele>
        <time>2021-11-20T16:36:00.123Z</time>
      </trkpt>
      <trkpt lat="47.534734" lon="7.710344">
        <ele>272.192752</ele>
        <time>2021-11-20T16:36:02.002Z</time>
      </trkpt>
      <trkpt lat="47.534641" lon="7.709912">
        <ele>272.299393</ele>
        <time>2021-11-20T16:36:06.841Z</time>
      </trkpt>
      <trkpt lat="47.534615" lon="7.709805">
        <ele>272.326138</ele>
        <time>2021-11-20T16:36:08.032Z</time>
      </trkpt>
      <trkpt lat="47.534577" lon="7.709613">
        <ele>272.373195</ele>
        <time>2021-11-20T16:36:10.110Z</time>
      </trkpt>
      <trkpt lat="47.534509" lon="7.709297">
        <ele>272.451198</ele>
        <time>2021-11-20T16:36:13.273Z</time>
      </trkpt>
      <trkpt lat="47.534390" lon="7.708741">
        <ele>272.313514</ele>
        <time>2021-11-20T16:36:18.670Z</time>
      </trkpt>
      <trkpt lat="47.534357" lon="7.708594">
        <ele>272.274382</ele>
        <time>2021-11-20T16:36:20.061Z</time>
      </trkpt>
      <trkpt lat="47.534132" lon="7.707553">
        <ele>271.998274</ele>
        <time>2021-11-20T16:36:29.862Z</time>
      </trkpt>
      <trkpt lat="47.534017" lon="7.707047">
        <ele>271.863408</ele>
        <time>2021-11-20T16:36:34.813Z</time>
      </trkpt>
      <trkpt lat="47.533747" lon="7.705801">
        <ele>271.456721</ele>
        <time>2021-11-20T16:36:46.574Z</time>
      </trkpt>
      <trkpt lat="47.533715" lon="7.705652">
        <ele>271.405200</ele>
        <time>2021-11-20T16:36:47.951Z</time>
      </trkpt>
      <trkpt lat="47.533704" lon="7.705593">
        <ele>271.385031</ele>
        <time>2021-11-20T16:36:48.494Z</time>
      </trkpt>
      <trkpt lat="47.533527" lon="7.704796">
        <ele>271.108568</ele>
        <time>2021-11-20T16:36:55.845Z</time>
      </trkpt>
      <trkpt lat="47.533527" lon="7.704796">
        <ele>271.108568</ele>
        <time>2021-11-20T16:36:55.896Z</time>
      </trkpt>
      <trkpt lat="47.533505" lon="7.704698">
        <ele>271.074537</ele>
        <time>2021-11-20T16:36:56.807Z</time>
      </trkpt>
      <trkpt lat="47.533301" lon="7.703780">
        <ele>270.786903</ele>
        <time>2021-11-20T16:37:05.684Z</time>
      </trkpt>
      <trkpt lat="47.532835" lon="7.701725">
        <ele>270.220360</ele>
        <time>2021-11-20T16:37:25.478Z</time>
      </trkpt>
      <trkpt lat="47.532793" lon="7.701522">
        <ele>270.148604</ele>
        <time>2021-11-20T16:37:27.394Z</time>
      </trkpt>
      <trkpt lat="47.532428" lon="7.699970">
        <ele>269.560196</ele>
        <time>2021-11-20T16:37:42.320Z</time>
      </trkpt>
      <trkpt lat="47.532407" lon="7.699875">
        <ele>269.524407</ele>
        <time>2021-11-20T16:37:43.225Z</time>
      </trkpt>
      <trkpt lat="47.532378" lon="7.699751">
        <ele>269.477423</ele>
        <time>2021-11-20T16:37:44.355Z</time>
      </trkpt>
      <trkpt lat="47.532326" lon="7.699504">
        <ele>269.384790</ele>
        <time>2021-11-20T16:37:46.790Z</time>
      </trkpt>
      <trkpt lat="47.532317" lon="7.699464">
        <ele>269.369694</ele>
        <time>2021-11-20T16:37:47.118Z</time>
      </trkpt>
      <trkpt lat="47.532234" lon="7.699115">
        <ele>269.209841</ele>
        <time>2021-11-20T16:37:50.329Z</time>
      </trkpt>
      <trkpt lat="47.532082" lon="7.698472">
        <ele>268.591673</ele>
        <time>2021-11-20T16:37:55.950Z</time>
      </trkpt>
      <trkpt lat="47.531987" lon="7.698056">
        <ele>268.193198</ele>
        <time>2021-11-20T16:37:59.467Z</time>
      </trkpt>
      <trkpt lat="47.531820" lon="7.697324">
        <ele>267.492104</ele>
        <time>2021-11-20T16:38:05.435Z</time>
      </trkpt>
      <trkpt lat="47.531503" lon="7.695640">
        <ele>266.208008</ele>
        <time>2021-11-20T16:38:18.691Z</time>
      </trkpt>
      <trkpt lat="47.531279" lon="7.693388">
        <ele>265.512198</ele>
        <time>2021-11-20T16:38:39.103Z</time>
      </trkpt>
      <trkpt lat="47.531252" lon="7.693049">
        <ele>265.676475</ele>
        <time>2021-11-20T16:38:43.765Z</time>
      </trkpt>
      <trkpt lat="47.531247" lon="7.692506">
        <ele>265.937821</ele>
        <time>2021-11-20T16:38:51.272Z</time>
      </trkpt>
      <trkpt lat="47.531250" lon="7.692032">
        <ele>266.165947</ele>
        <time>2021-11-20T16:38:57.839Z</time>
      </trkpt>
      <trkpt lat="47.531253" lon="7.691880">
        <ele>266.239129</ele>
        <time>2021-11-20T16:38:59.657Z</time>
      </trkpt>
      <trkpt lat="47.531254" lon="7.691721">
        <ele>266.315652</ele>
        <time>2021-11-20T16:39:01.748Z</time>
      </trkpt>
      <trkpt lat="47.531257" lon="7.691497">
        <ele>266.423474</ele>
        <time>2021-11-20T16:39:04.682Z</time>
      </trkpt>
      <trkpt lat="47.531218" lon="7.691259">
        <ele>266.484934</ele>
        <time>2021-11-20T16:39:07.292Z</time>
      </trkpt>
      <trkpt lat="47.531228" lon="7.690572">
        <ele>266.475934</ele>
        <time>2021-11-20T16:39:15.841Z</time>
      </trkpt>
      <trkpt lat="47.531244" lon="7.689927">
        <ele>266.467481</ele>
        <time>2021-11-20T16:39:22.328Z</time>
      </trkpt>
      <trkpt lat="47.531254" lon="7.689619">
        <ele>266.463442</ele>
        <time>2021-11-20T16:39:25.119Z</time>
      </trkpt>
      <trkpt lat="47.531264" lon="7.689333">
        <ele>266.459691</ele>
        <time>2021-11-20T16:39:27.793Z</time>
      </trkpt>
      <trkpt lat="47.531265" lon="7.689138">
        <ele>266.457137</ele>
        <time>2021-11-20T16:39:29.445Z</time>
      </trkpt>
      <trkpt lat="47.531267" lon="7.688842">
        <ele>266.453261</ele>
        <time>2021-11-20T16:39:32.144Z</time>
      </trkpt>
      <trkpt lat="47.531309" lon="7.687734">
        <ele>266.132765</ele>
        <time>2021-11-20T16:39:41.152Z</time>
      </trkpt>
      <trkpt lat="47.531311" lon="7.686964">
        <ele>265.881858</ele>
        <time>2021-11-20T16:39:47.732Z</time>
      </trkpt>
      <trkpt lat="47.531302" lon="7.686543">
        <ele>265.744606</ele>
        <time>2021-11-20T16:39:51.985Z</time>
      </trkpt>
      <trkpt lat="47.531297" lon="7.685934">
        <ele>265.621918</ele>
        <time>2021-11-20T16:39:58.513Z</time>
      </trkpt>
      <trkpt lat="47.531296" lon="7.684922">
        <ele>265.961102</ele>
        <time>2021-11-20T16:40:09.955Z</time>
      </trkpt>
      <trkpt lat="47.531277" lon="7.683432">
        <ele>266.460582</ele>
        <time>2021-11-20T16:40:27.118Z</time>
      </trkpt>
      <trkpt lat="47.531276" lon="7.682944">
        <ele>266.734865</ele>
        <time>2021-11-20T16:40:32.869Z</time>
      </trkpt>
      <trkpt lat="47.531275" lon="7.682615">
        <ele>266.927743</ele>
        <time>2021-11-20T16:40:36.849Z</time>
      </trkpt>
      <trkpt lat="47.531257" lon="7.681446">
        <ele>267.613245</ele>
        <time>2021-11-20T16:40:51.642Z</time>
      </trkpt>
      <trkpt lat="47.531222" lon="7.679157">
        <ele>268.695103</ele>
        <time>2021-11-20T16:41:20.190Z</time>
      </trkpt>
      <trkpt lat="47.531218" lon="7.678940">
        <ele>268.786244</ele>
        <time>2021-11-20T16:41:23.351Z</time>
      </trkpt>
      <trkpt lat="47.531215" lon="7.678292">
        <ele>269.058313</ele>
        <time>2021-11-20T16:41:29.811Z</time>
      </trkpt>
      <trkpt lat="47.531238" lon="7.677761">
        <ele>269.131285</ele>
        <time>2021-11-20T16:41:34.968Z</time>
      </trkpt>
      <trkpt lat="47.531253" lon="7.677527">
        <ele>269.111414</ele>
        <time>2021-11-20T16:41:36.976Z</time>
      </trkpt>
      <trkpt lat="47.531275" lon="7.677355">
        <ele>269.096614</ele>
        <time>2021-11-20T16:41:39.218Z</time>
      </trkpt>
      <trkpt lat="47.531314" lon="7.677106">
        <ele>269.075004</ele>
        <time>2021-11-20T16:41:41.689Z</time>
      </trkpt>
      <trkpt lat="47.531325" lon="7.677036">
        <ele>269.068928</ele>
        <time>2021-11-20T16:41:42.295Z</time>
      </trkpt>
      <trkpt lat="47.531397" lon="7.676665">
        <ele>269.036293</ele>
        <time>2021-11-20T16:41:46.715Z</time>
      </trkpt>
      <trkpt lat="47.531455" lon="7.676389">
        <ele>269.011856</ele>
        <time>2021-11-20T16:41:49.430Z</time>
      </trkpt>
      <trkpt lat="47.531545" lon="7.675929">
        <ele>268.971367</ele>
        <time>2021-11-20T16:41:54.498Z</time>
      </trkpt>
      <trkpt lat="47.531606" lon="7.675606">
        <ele>268.943012</ele>
        <time>2021-11-20T16:41:57.924Z</time>
      </trkpt>
      <trkpt lat="47.531635" lon="7.675449">
        <ele>268.920606</ele>
        <time>2021-11-20T16:41:59.171Z</time>
      </trkpt>
      <trkpt lat="47.531719" lon="7.675071">
        <ele>268.744060</ele>
        <time>2021-11-20T16:42:02.437Z</time>
      </trkpt>
      <trkpt lat="47.531825" lon="7.674498">
        <ele>268.480483</ele>
        <time>2021-11-20T16:42:07.171Z</time>
      </trkpt>
      <trkpt lat="47.531884" lon="7.674105">
        <ele>268.301874</ele>
        <time>2021-11-20T16:42:10.612Z</time>
      </trkpt>
      <trkpt lat="47.531942" lon="7.673731">
        <ele>268.131631</ele>
        <time>2021-11-20T16:42:14.222Z</time>
      </trkpt>
      <trkpt lat="47.531990" lon="7.673394">
        <ele>267.978834</ele>
        <time>2021-11-20T16:42:17.189Z</time>
      </trkpt>
      <trkpt lat="47.532036" lon="7.673089">
        <ele>267.840188</ele>
        <time>2021-11-20T16:42:20.101Z</time>
      </trkpt>
      <trkpt lat="47.532065" lon="7.672871">
        <ele>267.754213</ele>
        <time>2021-11-20T16:42:21.977Z</time>
      </trkpt>
      <trkpt lat="47.532344" lon="7.670949">
        <ele>268.284774</ele>
        <time>2021-11-20T16:42:40.117Z</time>
      </trkpt>
      <trkpt lat="47.532378" lon="7.670762">
        <ele>268.337039</ele>
        <time>2021-11-20T16:42:43.008Z</time>
      </trkpt>
      <trkpt lat="47.532450" lon="7.670414">
        <ele>268.435268</ele>
        <time>2021-11-20T16:42:48.875Z</time>
      </trkpt>
      <trkpt lat="47.532528" lon="7.670085">
        <ele>268.707027</ele>
        <time>2021-11-20T16:42:54.937Z</time>
      </trkpt>
      <trkpt lat="47.532604" lon="7.669823">
        <ele>269.008205</ele>
        <time>2021-11-20T16:43:00.127Z</time>
      </trkpt>
      <trkpt lat="47.532727" lon="7.669421">
        <ele>269.474351</ele>
        <time>2021-11-20T16:43:07.263Z</time>
      </trkpt>
      <trkpt lat="47.532897" lon="7.668969">
        <ele>270.020815</ele>
        <time>2021-11-20T16:43:15.053Z</time>
      </trkpt>
      <trkpt lat="47.533053" lon="7.668607">
        <ele>270.474391</ele>
        <time>2021-11-20T16:43:20.282Z</time>
      </trkpt>
      <trkpt lat="47.533159" lon="7.668361">
        <ele>270.782613</ele>
        <time>2021-11-20T16:43:24.682Z</time>
      </trkpt>
      <trkpt lat="47.533253" lon="7.668149">
        <ele>271.050487</ele>
        <time>2021-11-20T16:43:27.273Z</time>
      </trkpt>
      <trkpt lat="47.533486" lon="7.667627">
        <ele>271.258816</ele>
        <time>2021-11-20T16:43:34.953Z</time>
      </trkpt>
      <trkpt lat="47.533740" lon="7.667075">
        <ele>271.220655</ele>
        <time>2021-11-20T16:43:42.504Z</time>
      </trkpt>
      <trkpt lat="47.533835" lon="7.666868">
        <ele>271.206356</ele>
        <time>2021-11-20T16:43:44.543Z</time>
      </trkpt>
      <trkpt lat="47.533775" lon="7.666807">
        <ele>271.200199</ele>
        <time>2021-11-20T16:43:45.956Z</time>
      </trkpt>
      <trkpt lat="47.533696" lon="7.666647">
        <ele>271.188875</ele>
        <time>2021-11-20T16:43:48.232Z</time>
      </trkpt>
      <trkpt lat="47.533398" lon="7.666305">
        <ele>271.156977</ele>
        <time>2021-11-20T16:43:52.925Z</time>
      </trkpt>
      <trkpt lat="47.533116" lon="7.665988">
        <ele>271.146919</ele>
        <time>2021-11-20T16:43:57.153Z</time>
      </trkpt>
      <trkpt lat="47.532925" lon="7.665760">
        <ele>271.272113</ele>
        <time>2021-11-20T16:44:00.259Z</time>
      </trkpt>
      <trkpt lat="47.532786" lon="7.665641">
        <ele>271.354049</ele>
        <time>2021-11-20T16:44:02.328Z</time>
      </trkpt>
      <trkpt lat="47.532672" lon="7.665583">
        <ele>271.415565</ele>
        <time>2021-11-20T16:44:03.904Z</time>
      </trkpt>
      <trkpt lat="47.532292" lon="7.665148">
        <ele>271.660669</ele>
        <time>2021-11-20T16:44:12.740Z</time>
      </trkpt>
      <trkpt lat="47.532140" lon="7.664972">
        <ele>271.759133</ele>
        <time>2021-11-20T16:44:15.774Z</time>
      </trkpt>
      <trkpt lat="47.531991" lon="7.664806">
        <ele>271.854286</ele>
        <time>2021-11-20T16:44:20.021Z</time>
      </trkpt>
      <trkpt lat="47.531765" lon="7.664540">
        <ele>272.001609</ele>
        <time>2021-11-20T16:44:25.655Z</time>
      </trkpt>
      <trkpt lat="47.530899" lon="7.663616">
        <ele>274.047485</ele>
        <time>2021-11-20T16:44:48.423Z</time>
      </trkpt>
      <trkpt lat="47.530793" lon="7.663521">
        <ele>274.301114</ele>
        <time>2021-11-20T16:44:51.950Z</time>
      </trkpt>
      <trkpt lat="47.530719" lon="7.663465">
        <ele>274.471229</ele>
        <time>2021-11-20T16:44:54.325Z</time>
      </trkpt>
      <trkpt lat="47.529792" lon="7.663087">
        <ele>276.573622</ele>
        <time>2021-11-20T16:45:23.448Z</time>
      </trkpt>
      <trkpt lat="47.529676" lon="7.663021">
        <ele>276.876078</ele>
        <time>2021-11-20T16:45:27.169Z</time>
      </trkpt>
      <trkpt lat="47.529624" lon="7.662986">
        <ele>277.015101</ele>
        <time>2021-11-20T16:45:28.568Z</time>
      </trkpt>
      <trkpt lat="47.529576" lon="7.662954">
        <ele>277.143222</ele>
        <time>2021-11-20T16:45:29.940Z</time>
      </trkpt>
      <trkpt lat="47.529502" lon="7.662906">
        <ele>277.339852</ele>
        <time>2021-11-20T16:45:32.098Z</time>
      </trkpt>
      <trkpt lat="47.528985" lon="7.662541">
        <ele>278.733867</ele>
        <time>2021-11-20T16:45:49.378Z</time>
      </trkpt>
      <trkpt lat="47.528693" lon="7.662320">
        <ele>279.532009</ele>
        <time>2021-11-20T16:45:59.116Z</time>
      </trkpt>
      <trkpt lat="47.528592" lon="7.662229">
        <ele>279.819756</ele>
        <time>2021-11-20T16:46:02.231Z</time>
      </trkpt>
      <trkpt lat="47.528425" lon="7.662035">
        <ele>280.273695</ele>
        <time>2021-11-20T16:46:07.038Z</time>
      </trkpt>
      <trkpt lat="47.528226" lon="7.661637">
        <ele>280.864667</ele>
        <time>2021-11-20T16:46:14.813Z</time>
      </trkpt>
      <trkpt lat="47.527912" lon="7.660639">
        <ele>282.178532</ele>
        <time>2021-11-20T16:46:31.984Z</time>
      </trkpt>
      <trkpt lat="47.527673" lon="7.659801">
        <ele>283.264076</ele>
        <time>2021-11-20T16:46:45.270Z</time>
      </trkpt>
      <trkpt lat="47.527666" lon="7.659776">
        <ele>283.285483</ele>
        <time>2021-11-20T16:46:45.705Z</time>
      </trkpt>
      <trkpt lat="47.527370" lon="7.658528">
        <ele>283.159360</ele>
        <time>2021-11-20T16:46:59.224Z</time>
      </trkpt>
      <trkpt lat="47.527241" lon="7.658123">
        <ele>283.116663</ele>
        <time>2021-11-20T16:47:03.066Z</time>
      </trkpt>
      <trkpt lat="47.527139" lon="7.657807">
        <ele>283.083267</ele>
        <time>2021-11-20T16:47:06.063Z</time>
      </trkpt>
      <trkpt lat="47.527042" lon="7.657604">
        <ele>283.059555</ele>
        <time>2021-11-20T16:47:08.198Z</time>
      </trkpt>
      <trkpt lat="47.526917" lon="7.657402">
        <ele>283.033430</ele>
        <time>2021-11-20T16:47:10.545Z</time>
      </trkpt>
      <trkpt lat="47.526859" lon="7.657325">
        <ele>283.011950</ele>
        <time>2021-11-20T16:47:11.483Z</time>
      </trkpt>
      <trkpt lat="47.526880" lon="7.657295">
        <ele>283.003457</ele>
        <time>2021-11-20T16:47:11.835Z</time>
      </trkpt>
      <trkpt lat="47.526883" lon="7.657129">
        <ele>282.970817</ele>
        <time>2021-11-20T16:47:13.473Z</time>
      </trkpt>
      <trkpt lat="47.526863" lon="7.657097">
        <ele>282.962247</ele>
        <time>2021-11-20T16:47:13.808Z</time>
      </trkpt>
      <trkpt lat="47.526840" lon="7.657078">
        <ele>282.954581</ele>
        <time>2021-11-20T16:47:14.130Z</time>
      </trkpt>
      <trkpt lat="47.526789" lon="7.657068">
        <ele>282.939606</ele>
        <time>2021-11-20T16:47:14.752Z</time>
      </trkpt>
      <trkpt lat="47.526764" lon="7.657078">
        <ele>282.932068</ele>
        <time>2021-11-20T16:47:15.063Z</time>
      </trkpt>
      <trkpt lat="47.526741" lon="7.657100">
        <ele>282.924098</ele>
        <time>2021-11-20T16:47:15.407Z</time>
      </trkpt>
      <trkpt lat="47.526722" lon="7.657130">
        <ele>282.916014</ele>
        <time>2021-11-20T16:47:15.728Z</time>
      </trkpt>
      <trkpt lat="47.526710" lon="7.657166">
        <ele>282.908123</ele>
        <time>2021-11-20T16:47:16.054Z</time>
      </trkpt>
      <trkpt lat="47.526706" lon="7.657209">
        <ele>282.899591</ele>
        <time>2021-11-20T16:47:16.406Z</time>
      </trkpt>
      <trkpt lat="47.526723" lon="7.657291">
        <ele>282.882732</ele>
        <time>2021-11-20T16:47:17.175Z</time>
      </trkpt>
      <trkpt lat="47.526743" lon="7.657323">
        <ele>282.874161</ele>
        <time>2021-11-20T16:47:17.694Z</time>
      </trkpt>
      <trkpt lat="47.526694" lon="7.657412">
        <ele>282.851590</ele>
        <time>2021-11-20T16:47:19.083Z</time>
      </trkpt>
      <trkpt lat="47.526672" lon="7.657453">
        <ele>282.841297</ele>
        <time>2021-11-20T16:47:19.650Z</time>
      </trkpt>
      <trkpt lat="47.526339" lon="7.657736">
        <ele>282.729540</ele>
        <time>2021-11-20T16:47:26.448Z</time>
      </trkpt>
      <trkpt lat="47.526194" lon="7.657732">
        <ele>282.687326</ele>
        <time>2021-11-20T16:47:28.899Z</time>
      </trkpt>
      <trkpt lat="47.526129" lon="7.657714">
        <ele>282.668078</ele>
        <time>2021-11-20T16:47:30.201Z</time>
      </trkpt>
      <trkpt lat="47.526058" lon="7.657663">
        <ele>282.645108</ele>
        <time>2021-11-20T16:47:31.647Z</time>
      </trkpt>
      <trkpt lat="47.525992" lon="7.657583">
        <ele>282.620282</ele>
        <time>2021-11-20T16:47:33.218Z</time>
      </trkpt>
      <trkpt lat="47.525949" lon="7.657484">
        <ele>282.597145</ele>
        <time>2021-11-20T16:47:34.878Z</time>
      </trkpt>
      <trkpt lat="47.525879" lon="7.657237">
        <ele>282.544493</ele>
        <time>2021-11-20T16:47:38.884Z</time>
      </trkpt>
      <trkpt lat="47.525864" lon="7.656858">
        <ele>282.879965</ele>
        <time>2021-11-20T16:47:45.003Z</time>
      </trkpt>
      <trkpt lat="47.525910" lon="7.656589">
        <ele>283.400693</ele>
        <time>2021-11-20T16:47:49.750Z</time>
      </trkpt>
      <trkpt lat="47.525936" lon="7.656458">
        <ele>283.656921</ele>
        <time>2021-11-20T16:47:52.276Z</time>
      </trkpt>
      <trkpt lat="47.525829" lon="7.656401">
        <ele>283.972930</ele>
        <time>2021-11-20T16:47:56.147Z</time>
      </trkpt>
      <trkpt lat="47.525670" lon="7.656313">
        <ele>284.444644</ele>
        <time>2021-11-20T16:47:59.840Z</time>
      </trkpt>
      <trkpt lat="47.525472" lon="7.656212">
        <ele>285.026619</ele>
        <time>2021-11-20T16:48:07.115Z</time>
      </trkpt>
      <trkpt lat="47.525397" lon="7.656172">
        <ele>285.248150</ele>
        <time>2021-11-20T16:48:08.742Z</time>
      </trkpt>
      <trkpt lat="47.525220" lon="7.656078">
        <ele>285.770711</ele>
        <time>2021-11-20T16:48:15.301Z</time>
      </trkpt>
      <trkpt lat="47.524818" lon="7.655865">
        <ele>286.957233</ele>
        <time>2021-11-20T16:48:27.257Z</time>
      </trkpt>
      <trkpt lat="47.524761" lon="7.655834">
        <ele>287.125982</ele>
        <time>2021-11-20T16:48:28.363Z</time>
      </trkpt>
      <trkpt lat="47.524698" lon="7.655801">
        <ele>287.311690</ele>
        <time>2021-11-20T16:48:29.707Z</time>
      </trkpt>
      <trkpt lat="47.524663" lon="7.655783">
        <ele>287.414654</ele>
        <time>2021-11-20T16:48:30.465Z</time>
      </trkpt>
      <trkpt lat="47.524616" lon="7.655757">
        <ele>287.549043</ele>
        <time>2021-11-20T16:48:33.263Z</time>
      </trkpt>
      <trkpt lat="47.524572" lon="7.655735">
        <ele>287.664218</ele>
        <time>2021-11-20T16:48:34.211Z</time>
      </trkpt>
      <trkpt lat="47.524519" lon="7.655706">
        <ele>287.804347</ele>
        <time>2021-11-20T16:48:36.763Z</time>
      </trkpt>
      <trkpt lat="47.524305" lon="7.655610">
        <ele>288.358898</ele>
        <time>2021-11-20T16:48:40.607Z</time>
      </trkpt>
      <trkpt lat="47.524277" lon="7.655598">
        <ele>288.431190</ele>
        <time>2021-11-20T16:48:42.881Z</time>
      </trkpt>
      <trkpt lat="47.524304" lon="7.655410">
        <ele>288.753081</ele>
        <time>2021-11-20T16:48:46.666Z</time>
      </trkpt>
      <trkpt lat="47.524360" lon="7.655014">
        <ele>289.430661</ele>
        <time>2021-11-20T16:48:53.229Z</time>
      </trkpt>
      <trkpt lat="47.524475" lon="7.654210">
        <ele>290.807017</ele>
        <time>2021-11-20T16:49:06.618Z</time>
      </trkpt>
      <trkpt lat="47.524506" lon="7.653987">
        <ele>291.188313</ele>
        <time>2021-11-20T16:49:11.073Z</time>
      </trkpt>
      <trkpt lat="47.524516" lon="7.653915">
        <ele>291.311417</ele>
        <time>2021-11-20T16:49:12.679Z</time>
      </trkpt>
      <trkpt lat="47.524555" lon="7.653632">
        <ele>291.795133</ele>
        <time>2021-11-20T16:49:16.718Z</time>
      </trkpt>
      <trkpt lat="47.524557" lon="7.652450">
        <ele>292.540971</ele>
        <time>2021-11-20T16:49:31.139Z</time>
      </trkpt>
      <trkpt lat="47.524523" lon="7.652322">
        <ele>292.614027</ele>
        <time>2021-11-20T16:49:32.500Z</time>
      </trkpt>
      <trkpt lat="47.524484" lon="7.652177">
        <ele>292.696927</ele>
        <time>2021-11-20T16:49:33.945Z</time>
      </trkpt>
      <trkpt lat="47.524402" lon="7.651879">
        <ele>292.867844</ele>
        <time>2021-11-20T16:49:37.188Z</time>
      </trkpt>
      <trkpt lat="47.524245" lon="7.651314">
        <ele>293.192355</ele>
        <time>2021-11-20T16:49:43.760Z</time>
      </trkpt>
      <trkpt lat="47.524034" lon="7.650528">
        <ele>293.853334</ele>
        <time>2021-11-20T16:49:55.341Z</time>
      </trkpt>
      <trkpt lat="47.523968" lon="7.650324">
        <ele>294.071734</ele>
        <time>2021-11-20T16:49:58.035Z</time>
      </trkpt>
      <trkpt lat="47.523851" lon="7.649952">
        <ele>294.467947</ele>
        <time>2021-11-20T16:50:04.480Z</time>
      </trkpt>
      <trkpt lat="47.523799" lon="7.649826">
        <ele>294.610520</ele>
        <time>2021-11-20T16:50:06.267Z</time>
      </trkpt>
      <trkpt lat="47.523763" lon="7.649750">
        <ele>294.700151</ele>
        <time>2021-11-20T16:50:08.075Z</time>
      </trkpt>
      <trkpt lat="47.523318" lon="7.648996">
        <ele>295.666994</ele>
        <time>2021-11-20T16:50:21.168Z</time>
      </trkpt>
      <trkpt lat="47.523157" lon="7.648702">
        <ele>296.016004</ele>
        <time>2021-11-20T16:50:26.836Z</time>
      </trkpt>
      <trkpt lat="47.523005" lon="7.648426">
        <ele>296.287409</ele>
        <time>2021-11-20T16:50:32.439Z</time>
      </trkpt>
      <trkpt lat="47.522716" lon="7.647943">
        <ele>296.779185</ele>
        <time>2021-11-20T16:50:41.845Z</time>
      </trkpt>
      <trkpt lat="47.522552" lon="7.647695">
        <ele>297.043703</ele>
        <time>2021-11-20T16:50:46.078Z</time>
      </trkpt>
      <trkpt lat="47.522504" lon="7.647599">
        <ele>297.134732</ele>
        <time>2021-11-20T16:50:47.983Z</time>
      </trkpt>
      <trkpt lat="47.522477" lon="7.647501">
        <ele>297.215391</ele>
        <time>2021-11-20T16:50:49.110Z</time>
      </trkpt>
      <trkpt lat="47.522444" lon="7.647497">
        <ele>297.252756</ele>
        <time>2021-11-20T16:50:49.829Z</time>
      </trkpt>
      <trkpt lat="47.522408" lon="7.647467">
        <ele>297.299372</ele>
        <time>2021-11-20T16:50:50.445Z</time>
      </trkpt>
      <trkpt lat="47.521923" lon="7.646845">
        <ele>297.982222</ele>
        <time>2021-11-20T16:51:01.504Z</time>
      </trkpt>
      <trkpt lat="47.521902" lon="7.646594">
        <ele>297.972960</ele>
        <time>2021-11-20T16:51:03.848Z</time>
      </trkpt>
      <trkpt lat="47.521882" lon="7.646421">
        <ele>297.966532</ele>
        <time>2021-11-20T16:51:07.161Z</time>
      </trkpt>
      <trkpt lat="47.521879" lon="7.646397">
        <ele>297.965638</ele>
        <time>2021-11-20T16:51:07.516Z</time>
      </trkpt>
      <trkpt lat="47.521817" lon="7.645962">
        <ele>297.949357</ele>
        <time>2021-11-20T16:51:11.764Z</time>
      </trkpt>
      <trkpt lat="47.521825" lon="7.645908">
        <ele>297.947333</ele>
        <time>2021-11-20T16:51:12.972Z</time>
      </trkpt>
      <trkpt lat="47.521909" lon="7.645686">
        <ele>297.938014</ele>
        <time>2021-11-20T16:51:15.252Z</time>
      </trkpt>
      <trkpt lat="47.521991" lon="7.645472">
        <ele>297.929003</ele>
        <time>2021-11-20T16:51:17.467Z</time>
      </trkpt>
      <trkpt lat="47.522133" lon="7.645245">
        <ele>297.917672</ele>
        <time>2021-11-20T16:51:20.129Z</time>
      </trkpt>
      <trkpt lat="47.522203" lon="7.645103">
        <ele>297.911233</ele>
        <time>2021-11-20T16:51:21.520Z</time>
      </trkpt>
      <trkpt lat="47.522112" lon="7.645020">
        <ele>297.905438</ele>
        <time>2021-11-20T16:51:23.566Z</time>
      </trkpt>
      <trkpt lat="47.521941" lon="7.644834">
        <ele>297.893932</ele>
        <time>2021-11-20T16:51:25.870Z</time>
      </trkpt>
      <trkpt lat="47.521870" lon="7.644697">
        <ele>297.887608</ele>
        <time>2021-11-20T16:51:28.187Z</time>
      </trkpt>
      <trkpt lat="47.521896" lon="7.644663">
        <ele>297.887227</ele>
        <time>2021-11-20T16:51:28.591Z</time>
      </trkpt>
      <trkpt lat="47.521979" lon="7.644414">
        <ele>297.895078</ele>
        <time>2021-11-20T16:51:30.827Z</time>
      </trkpt>
      <trkpt lat="47.522007" lon="7.644293">
        <ele>297.898695</ele>
        <time>2021-11-20T16:51:32.320Z</time>
      </trkpt>
      <trkpt lat="47.522032" lon="7.644163">
        <ele>297.902517</ele>
        <time>2021-11-20T16:51:34.173Z</time>
      </trkpt>
      <trkpt lat="47.522072" lon="7.643901">
        <ele>297.910112</ele>
        <time>2021-11-20T16:51:36.628Z</time>
      </trkpt>
      <trkpt lat="47.522081" lon="7.643783">
        <ele>297.913469</ele>
        <time>2021-11-20T16:51:38.181Z</time>
      </trkpt>
      <trkpt lat="47.522081" lon="7.643755">
        <ele>297.914261</ele>
        <time>2021-11-20T16:51:38.741Z</time>
      </trkpt>
      <trkpt lat="47.522082" lon="7.643656">
        <ele>297.917061</ele>
        <time>2021-11-20T16:51:40.203Z</time>
      </trkpt>
      <trkpt lat="47.522082" lon="7.643568">
        <ele>297.919549</ele>
        <time>2021-11-20T16:51:41.026Z</time>
      </trkpt>
      <trkpt lat="47.522055" lon="7.642957">
        <ele>297.936862</ele>
        <time>2021-11-20T16:51:48.440Z</time>
      </trkpt>
      <trkpt lat="47.522051" lon="7.642850">
        <ele>297.939892</ele>
        <time>2021-11-20T16:51:49.416Z</time>
      </trkpt>
      <trkpt lat="47.522009" lon="7.642032">
        <ele>297.935174</ele>
        <time>2021-11-20T16:51:57.073Z</time>
      </trkpt>
      <trkpt lat="47.522026" lon="7.641831">
        <ele>297.808261</ele>
        <time>2021-11-20T16:51:58.916Z</time>
      </trkpt>
      <trkpt lat="47.522038" lon="7.641697">
        <ele>297.723573</ele>
        <time>2021-11-20T16:52:00.187Z</time>
      </trkpt>
      <trkpt lat="47.522121" lon="7.641251">
        <ele>297.433731</ele>
        <time>2021-11-20T16:52:04.128Z</time>
      </trkpt>
      <trkpt lat="47.522213" lon="7.640855">
        <ele>297.171360</ele>
        <time>2021-11-20T16:52:07.878Z</time>
      </trkpt>
      <trkpt lat="47.522447" lon="7.639953">
        <ele>296.565982</ele>
        <time>2021-11-20T16:52:15.929Z</time>
      </trkpt>
      <trkpt lat="47.522550" lon="7.639700">
        <ele>296.380899</ele>
        <time>2021-11-20T16:52:18.428Z</time>
      </trkpt>
      <trkpt lat="47.522677" lon="7.639473">
        <ele>296.003355</ele>
        <time>2021-11-20T16:52:20.536Z</time>
      </trkpt>
      <trkpt lat="47.522788" lon="7.639280">
        <ele>295.528673</ele>
        <time>2021-11-20T16:52:22.443Z</time>
      </trkpt>
      <trkpt lat="47.522996" lon="7.638639">
        <ele>294.197067</ele>
        <time>2021-11-20T16:52:27.378Z</time>
      </trkpt>
      <trkpt lat="47.523089" lon="7.638357">
        <ele>293.609439</ele>
        <time>2021-11-20T16:52:29.625Z</time>
      </trkpt>
      <trkpt lat="47.523154" lon="7.638160">
        <ele>293.198896</ele>
        <time>2021-11-20T16:52:31.062Z</time>
      </trkpt>
      <trkpt lat="47.523801" lon="7.637031">
        <ele>290.621966</ele>
        <time>2021-11-20T16:52:41.227Z</time>
      </trkpt>
      <trkpt lat="47.524249" lon="7.636392">
        <ele>289.280856</ele>
        <time>2021-11-20T16:52:47.608Z</time>
      </trkpt>
      <trkpt lat="47.524748" lon="7.635671">
        <ele>287.777702</ele>
        <time>2021-11-20T16:52:55.552Z</time>
      </trkpt>
      <trkpt lat="47.525218" lon="7.635093">
        <ele>287.832033</ele>
        <time>2021-11-20T16:53:03.545Z</time>
      </trkpt>
      <trkpt lat="47.525496" lon="7.634757">
        <ele>288.155159</ele>
        <time>2021-11-20T16:53:09.367Z</time>
      </trkpt>
      <trkpt lat="47.525562" lon="7.634678">
        <ele>288.231577</ele>
        <time>2021-11-20T16:53:10.867Z</time>
      </trkpt>
      <trkpt lat="47.525828" lon="7.634421">
        <ele>288.517575</ele>
        <time>2021-11-20T16:53:17.299Z</time>
      </trkpt>
      <trkpt lat="47.526076" lon="7.634113">
        <ele>288.809031</ele>
        <time>2021-11-20T16:53:24.448Z</time>
      </trkpt>
      <trkpt lat="47.526449" lon="7.633750">
        <ele>289.605411</ele>
        <time>2021-11-20T16:53:35.577Z</time>
      </trkpt>
      <trkpt lat="47.526697" lon="7.633482">
        <ele>290.549551</ele>
        <time>2021-11-20T16:53:44.238Z</time>
      </trkpt>
      <trkpt lat="47.526830" lon="7.633347">
        <ele>291.045418</ele>
        <time>2021-11-20T16:53:48.807Z</time>
      </trkpt>
      <trkpt lat="47.526975" lon="7.633190">
        <ele>291.597809</ele>
        <time>2021-11-20T16:53:53.757Z</time>
      </trkpt>
      <trkpt lat="47.527279" lon="7.632659">
        <ele>293.043454</ele>
        <time>2021-11-20T16:54:05.365Z</time>
      </trkpt>
      <trkpt lat="47.527458" lon="7.632289">
        <ele>293.988631</ele>
        <time>2021-11-20T16:54:14.451Z</time>
      </trkpt>
      <trkpt lat="47.527665" lon="7.631910">
        <ele>294.887161</ele>
        <time>2021-11-20T16:54:24.817Z</time>
      </trkpt>
      <trkpt lat="47.527861" lon="7.631503">
        <ele>295.645429</ele>
        <time>2021-11-20T16:54:35.085Z</time>
      </trkpt>
      <trkpt lat="47.528027" lon="7.631157">
        <ele>296.289235</ele>
        <time>2021-11-20T16:54:43.898Z</time>
      </trkpt>
      <trkpt lat="47.528165" lon="7.631271">
        <ele>296.644199</ele>
        <time>2021-11-20T16:54:54.922Z</time>
      </trkpt>
      <trkpt lat="47.528165" lon="7.631271">
        <ele>296.644199</ele>
        <time>2021-11-20T16:54:54.978Z</time>
      </trkpt>
      <trkpt lat="47.528165" lon="7.631271">
        <ele>296.644199</ele>
        <time>2021-11-20T16:54:55.037Z</time>
      </trkpt>
      <trkpt lat="47.528027" lon="7.631157">
        <ele>296.999163</ele>
        <time>2021-11-20T16:55:06.081Z</time>
      </trkpt>
      <trkpt lat="47.528264" lon="7.630411">
        <ele>298.249692</ele>
        <time>2021-11-20T16:55:13.058Z</time>
      </trkpt>
      <trkpt lat="47.528284" lon="7.630360">
        <ele>298.339150</ele>
        <time>2021-11-20T16:55:14.821Z</time>
      </trkpt>
      <trkpt lat="47.528516" lon="7.629750">
        <ele>299.082626</ele>
        <time>2021-11-20T16:55:24.435Z</time>
      </trkpt>
      <trkpt lat="47.528686" lon="7.629298">
        <ele>299.547680</ele>
        <time>2021-11-20T16:55:30.866Z</time>
      </trkpt>
      <trkpt lat="47.528711" lon="7.629281">
        <ele>299.584300</ele>
        <time>2021-11-20T16:55:31.771Z</time>
      </trkpt>
      <trkpt lat="47.528732" lon="7.629282">
        <ele>299.612269</ele>
        <time>2021-11-20T16:55:32.175Z</time>
      </trkpt>
      <trkpt lat="47.528775" lon="7.629297">
        <ele>299.671077</ele>
        <time>2021-11-20T16:55:32.609Z</time>
      </trkpt>
      <trkpt lat="47.528956" lon="7.629459">
        <ele>299.952604</ele>
        <time>2021-11-20T16:55:37.614Z</time>
      </trkpt>
      <trkpt lat="47.529013" lon="7.629325">
        <ele>300.094956</ele>
        <time>2021-11-20T16:55:40.259Z</time>
      </trkpt>
      <trkpt lat="47.529126" lon="7.629058">
        <ele>300.378192</ele>
        <time>2021-11-20T16:55:44.773Z</time>
      </trkpt>
      <trkpt lat="47.529242" lon="7.628533">
        <ele>300.874704</ele>
        <time>2021-11-20T16:55:51.868Z</time>
      </trkpt>
      <trkpt lat="47.529256" lon="7.628309">
        <ele>301.060186</ele>
        <time>2021-11-20T16:55:55.237Z</time>
      </trkpt>
      <trkpt lat="47.529243" lon="7.628048">
        <ele>301.233151</ele>
        <time>2021-11-20T16:55:58.864Z</time>
      </trkpt>
      <trkpt lat="47.529188" lon="7.627028">
        <ele>301.909418</ele>
        <time>2021-11-20T16:56:15.249Z</time>
      </trkpt>
      <trkpt lat="47.529178" lon="7.626842">
        <ele>302.032735</ele>
        <time>2021-11-20T16:56:18.477Z</time>
      </trkpt>
      <trkpt lat="47.529108" lon="7.625842">
        <ele>302.697182</ele>
        <time>2021-11-20T16:56:29.744Z</time>
      </trkpt>
      <trkpt lat="47.528999" lon="7.625008">
        <ele>300.121050</ele>
        <time>2021-11-20T16:56:36.454Z</time>
      </trkpt>
      <trkpt lat="47.528967" lon="7.624774">
        <ele>299.256658</ele>
        <time>2021-11-20T16:56:37.984Z</time>
      </trkpt>
      <trkpt lat="47.528899" lon="7.624493">
        <ele>298.175940</ele>
        <time>2021-11-20T16:56:39.848Z</time>
      </trkpt>
      <trkpt lat="47.528856" lon="7.624416">
        <ele>297.814171</ele>
        <time>2021-11-20T16:56:40.453Z</time>
      </trkpt>
      <trkpt lat="47.528828" lon="7.624375">
        <ele>297.603044</ele>
        <time>2021-11-20T16:56:40.783Z</time>
      </trkpt>
      <trkpt lat="47.527839" lon="7.623515">
        <ele>291.239525</ele>
        <time>2021-11-20T16:56:50.936Z</time>
      </trkpt>
      <trkpt lat="47.527668" lon="7.623366">
        <ele>290.039892</ele>
        <time>2021-11-20T16:56:52.691Z</time>
      </trkpt>
      <trkpt lat="47.527585" lon="7.623336">
        <ele>289.523303</ele>
        <time>2021-11-20T16:56:53.425Z</time>
      </trkpt>
      <trkpt lat="47.527349" lon="7.623302">
        <ele>288.089598</ele>
        <time>2021-11-20T16:56:55.548Z</time>
      </trkpt>
      <trkpt lat="47.527294" lon="7.623295">
        <ele>287.755815</ele>
        <time>2021-11-20T16:56:56.045Z</time>
      </trkpt>
      <trkpt lat="47.526978" lon="7.623273">
        <ele>285.843017</ele>
        <time>2021-11-20T16:56:58.928Z</time>
      </trkpt>
      <trkpt lat="47.525187" lon="7.623251">
        <ele>279.473740</ele>
        <time>2021-11-20T16:57:16.927Z</time>
      </trkpt>
      <trkpt lat="47.524983" lon="7.623179">
        <ele>278.986776</ele>
        <time>2021-11-20T16:57:19.730Z</time>
      </trkpt>
      <trkpt lat="47.524857" lon="7.623123">
        <ele>278.681307</ele>
        <time>2021-11-20T16:57:21.374Z</time>
      </trkpt>
      <trkpt lat="47.524607" lon="7.623024">
        <ele>278.080400</ele>
        <time>2021-11-20T16:57:24.869Z</time>
      </trkpt>
      <trkpt lat="47.524384" lon="7.623050">
        <ele>278.750975</ele>
        <time>2021-11-20T16:57:27.860Z</time>
      </trkpt>
      <trkpt lat="47.524013" lon="7.622964">
        <ele>279.885719</ele>
        <time>2021-11-20T16:57:34.303Z</time>
      </trkpt>
      <trkpt lat="47.523991" lon="7.622959">
        <ele>279.952977</ele>
        <time>2021-11-20T16:57:35.091Z</time>
      </trkpt>
      <trkpt lat="47.523896" lon="7.622934">
        <ele>280.244547</ele>
        <time>2021-11-20T16:57:37.118Z</time>
      </trkpt>
      <trkpt lat="47.523145" lon="7.622731">
        <ele>282.551425</ele>
        <time>2021-11-20T16:58:02.077Z</time>
      </trkpt>
      <trkpt lat="47.522782" lon="7.622574">
        <ele>283.916827</ele>
        <time>2021-11-20T16:58:15.903Z</time>
      </trkpt>
      <trkpt lat="47.522665" lon="7.622571">
        <ele>284.705550</ele>
        <time>2021-11-20T16:58:18.533Z</time>
      </trkpt>
      <trkpt lat="47.522585" lon="7.622690">
        <ele>285.469838</ele>
        <time>2021-11-20T16:58:25.645Z</time>
      </trkpt>
      <trkpt lat="47.522503" lon="7.623110">
        <ele>287.459830</ele>
        <time>2021-11-20T16:58:34.619Z</time>
      </trkpt>
      <trkpt lat="47.522482" lon="7.623173">
        <ele>287.779616</ele>
        <time>2021-11-20T16:58:38.956Z</time>
      </trkpt>
      <trkpt lat="47.522347" lon="7.623294">
        <ele>288.843241</ele>
        <time>2021-11-20T16:58:44.505Z</time>
      </trkpt>
      <trkpt lat="47.521784" lon="7.623713">
        <ele>293.090277</ele>
        <time>2021-11-20T16:59:14.003Z</time>
      </trkpt>
      <trkpt lat="47.521370" lon="7.623827">
        <ele>295.826151</ele>
        <time>2021-11-20T16:59:33.673Z</time>
      </trkpt>
      <trkpt lat="47.520946" lon="7.624186">
        <ele>297.964020</ele>
        <time>2021-11-20T16:59:52.305Z</time>
      </trkpt>
      <trkpt lat="47.520872" lon="7.624220">
        <ele>298.303161</ele>
        <time>2021-11-20T16:59:55.052Z</time>
      </trkpt>
      <trkpt lat="47.520815" lon="7.624237">
        <ele>298.557667</ele>
        <time>2021-11-20T16:59:56.739Z</time>
      </trkpt>
      <trkpt lat="47.520733" lon="7.624234">
        <ele>298.916700</ele>
        <time>2021-11-20T16:59:59.514Z</time>
      </trkpt>
      <trkpt lat="47.520376" lon="7.624074">
        <ele>300.549339</ele>
        <time>2021-11-20T17:00:10.733Z</time>
      </trkpt>
      <trkpt lat="47.520189" lon="7.623874">
        <ele>301.559040</ele>
        <time>2021-11-20T17:00:17.299Z</time>
      </trkpt>
      <trkpt lat="47.519373" lon="7.622581">
        <ele>301.841056</ele>
        <time>2021-11-20T17:00:46.931Z</time>
      </trkpt>
      <trkpt lat="47.518610" lon="7.621067">
        <ele>298.002672</ele>
        <time>2021-11-20T17:00:58.777Z</time>
      </trkpt>
      <trkpt lat="47.518522" lon="7.620852">
        <ele>296.876673</ele>
        <time>2021-11-20T17:01:00.492Z</time>
      </trkpt>
      <trkpt lat="47.518498" lon="7.620755">
        <ele>296.413986</ele>
        <time>2021-11-20T17:01:01.070Z</time>
      </trkpt>
      <trkpt lat="47.518254" lon="7.619753">
        <ele>291.643342</ele>
        <time>2021-11-20T17:01:07.445Z</time>
      </trkpt>
      <trkpt lat="47.518224" lon="7.619647">
        <ele>291.128578</ele>
        <time>2021-11-20T17:01:08.093Z</time>
      </trkpt>
      <trkpt lat="47.518095" lon="7.619236">
        <ele>289.098671</ele>
        <time>2021-11-20T17:01:10.928Z</time>
      </trkpt>
      <trkpt lat="47.518048" lon="7.619062">
        <ele>288.259322</ele>
        <time>2021-11-20T17:01:12.050Z</time>
      </trkpt>
      <trkpt lat="47.517971" lon="7.619084">
        <ele>287.739247</ele>
        <time>2021-11-20T17:01:13.340Z</time>
      </trkpt>
      <trkpt lat="47.517896" lon="7.619090">
        <ele>287.516914</ele>
        <time>2021-11-20T17:01:14.085Z</time>
      </trkpt>
      <trkpt lat="47.517673" lon="7.619037">
        <ele>287.246078</ele>
        <time>2021-11-20T17:01:16.068Z</time>
      </trkpt>
      <trkpt lat="47.517607" lon="7.619013">
        <ele>287.164582</ele>
        <time>2021-11-20T17:01:17.453Z</time>
      </trkpt>
      <trkpt lat="47.517519" lon="7.618985">
        <ele>287.056646</ele>
        <time>2021-11-20T17:01:18.584Z</time>
      </trkpt>
      <trkpt lat="47.517425" lon="7.618967">
        <ele>286.942986</ele>
        <time>2021-11-20T17:01:19.419Z</time>
      </trkpt>
      <trkpt lat="47.517339" lon="7.618976">
        <ele>286.839601</ele>
        <time>2021-11-20T17:01:20.295Z</time>
      </trkpt>
      <trkpt lat="47.517243" lon="7.618988">
        <ele>286.724072</ele>
        <time>2021-11-20T17:01:22.447Z</time>
      </trkpt>
      <trkpt lat="47.517018" lon="7.619070">
        <ele>286.446208</ele>
        <time>2021-11-20T17:01:24.703Z</time>
      </trkpt>
      <trkpt lat="47.516562" lon="7.619236">
        <ele>285.883106</ele>
        <time>2021-11-20T17:01:33.867Z</time>
      </trkpt>
      <trkpt lat="47.516384" lon="7.619306">
        <ele>285.662255</ele>
        <time>2021-11-20T17:01:37.850Z</time>
      </trkpt>
      <trkpt lat="47.516297" lon="7.619344">
        <ele>285.553483</ele>
        <time>2021-11-20T17:01:40.527Z</time>
      </trkpt>
      <trkpt lat="47.516078" lon="7.619459">
        <ele>285.896590</ele>
        <time>2021-11-20T17:01:46.651Z</time>
      </trkpt>
      <trkpt lat="47.516041" lon="7.619476">
        <ele>286.047857</ele>
        <time>2021-11-20T17:01:47.800Z</time>
      </trkpt>
      <trkpt lat="47.515963" lon="7.619510">
        <ele>286.365342</ele>
        <time>2021-11-20T17:01:50.626Z</time>
      </trkpt>
      <trkpt lat="47.515378" lon="7.619769">
        <ele>288.749483</ele>
        <time>2021-11-20T17:02:09.220Z</time>
      </trkpt>
      <trkpt lat="47.515045" lon="7.619952">
        <ele>290.136398</ele>
        <time>2021-11-20T17:02:20.015Z</time>
      </trkpt>
      <trkpt lat="47.514972" lon="7.619996">
        <ele>290.444150</ele>
        <time>2021-11-20T17:02:22.595Z</time>
      </trkpt>
      <trkpt lat="47.514570" lon="7.620207">
        <ele>292.109524</ele>
        <time>2021-11-20T17:02:36.120Z</time>
      </trkpt>
      <trkpt lat="47.514417" lon="7.620289">
        <ele>292.813762</ele>
        <time>2021-11-20T17:02:41.554Z</time>
      </trkpt>
      <trkpt lat="47.513993" lon="7.620506">
        <ele>294.966508</ele>
        <time>2021-11-20T17:02:57.170Z</time>
      </trkpt>
      <trkpt lat="47.513927" lon="7.620535">
        <ele>295.296870</ele>
        <time>2021-11-20T17:02:59.495Z</time>
      </trkpt>
      <trkpt lat="47.513861" lon="7.620554">
        <ele>295.619511</ele>
        <time>2021-11-20T17:03:02.518Z</time>
      </trkpt>
      <trkpt lat="47.513848" lon="7.620558">
        <ele>295.683226</ele>
        <time>2021-11-20T17:03:03.015Z</time>
      </trkpt>
      <trkpt lat="47.513713" lon="7.620598">
        <ele>296.343886</ele>
        <time>2021-11-20T17:03:07.517Z</time>
      </trkpt>
      <trkpt lat="47.513499" lon="7.620661">
        <ele>297.390896</ele>
        <time>2021-11-20T17:03:16.387Z</time>
      </trkpt>
      <trkpt lat="47.513422" lon="7.620681">
        <ele>297.766034</ele>
        <time>2021-11-20T17:03:18.942Z</time>
      </trkpt>
      <trkpt lat="47.513328" lon="7.620704">
        <ele>298.223223</ele>
        <time>2021-11-20T17:03:22.390Z</time>
      </trkpt>
      <trkpt lat="47.513204" lon="7.620721">
        <ele>298.820799</ele>
        <time>2021-11-20T17:03:26.716Z</time>
      </trkpt>
      <trkpt lat="47.513126" lon="7.620738">
        <ele>299.199126</ele>
        <time>2021-11-20T17:03:29.972Z</time>
      </trkpt>
      <trkpt lat="47.512974" lon="7.620771">
        <ele>299.936318</ele>
        <time>2021-11-20T17:03:34.565Z</time>
      </trkpt>
      <trkpt lat="47.512586" lon="7.620836">
        <ele>301.477866</ele>
        <time>2021-11-20T17:03:46.312Z</time>
      </trkpt>
      <trkpt lat="47.512484" lon="7.620846">
        <ele>301.746714</ele>
        <time>2021-11-20T17:03:49.398Z</time>
      </trkpt>
      <trkpt lat="47.512183" lon="7.620945">
        <ele>302.557645</ele>
        <time>2021-11-20T17:03:57.876Z</time>
      </trkpt>
      <trkpt lat="47.512137" lon="7.620969">
        <ele>302.685918</ele>
        <time>2021-11-20T17:03:59.429Z</time>
      </trkpt>
      <trkpt lat="47.512084" lon="7.620988">
        <ele>302.829336</ele>
        <time>2021-11-20T17:04:01.070Z</time>
      </trkpt>
      <trkpt lat="47.511978" lon="7.621014">
        <ele>303.111917</ele>
        <time>2021-11-20T17:04:03.591Z</time>
      </trkpt>
      <trkpt lat="47.511960" lon="7.621016">
        <ele>303.159391</ele>
        <time>2021-11-20T17:04:04.145Z</time>
      </trkpt>
      <trkpt lat="47.511800" lon="7.621034">
        <ele>303.581405</ele>
        <time>2021-11-20T17:04:08.028Z</time>
      </trkpt>
      <trkpt lat="47.511656" lon="7.621046">
        <ele>303.960725</ele>
        <time>2021-11-20T17:04:11.695Z</time>
      </trkpt>
      <trkpt lat="47.511541" lon="7.621047">
        <ele>304.263182</ele>
        <time>2021-11-20T17:04:14.175Z</time>
      </trkpt>
      <trkpt lat="47.511365" lon="7.621043">
        <ele>304.726118</ele>
        <time>2021-11-20T17:04:18.195Z</time>
      </trkpt>
      <trkpt lat="47.511298" lon="7.621034">
        <ele>304.903052</ele>
        <time>2021-11-20T17:04:19.582Z</time>
      </trkpt>
      <trkpt lat="47.511233" lon="7.621026">
        <ele>305.074592</ele>
        <time>2021-11-20T17:04:21.081Z</time>
      </trkpt>
      <trkpt lat="47.510934" lon="7.620963">
        <ele>305.833603</ele>
        <time>2021-11-20T17:04:27.425Z</time>
      </trkpt>
      <trkpt lat="47.510811" lon="7.620935">
        <ele>305.978900</ele>
        <time>2021-11-20T17:04:29.937Z</time>
      </trkpt>
      <trkpt lat="47.510466" lon="7.620854">
        <ele>306.386742</ele>
        <time>2021-11-20T17:04:37.173Z</time>
      </trkpt>
      <trkpt lat="47.510340" lon="7.620825">
        <ele>306.535622</ele>
        <time>2021-11-20T17:04:39.551Z</time>
      </trkpt>
      <trkpt lat="47.510287" lon="7.620804">
        <ele>306.599680</ele>
        <time>2021-11-20T17:04:40.581Z</time>
      </trkpt>
      <trkpt lat="47.509916" lon="7.620668">
        <ele>307.045926</ele>
        <time>2021-11-20T17:04:47.746Z</time>
      </trkpt>
      <trkpt lat="47.509508" lon="7.620519">
        <ele>307.536569</ele>
        <time>2021-11-20T17:04:55.895Z</time>
      </trkpt>
      <trkpt lat="47.509079" lon="7.620306">
        <ele>307.897309</ele>
        <time>2021-11-20T17:05:04.364Z</time>
      </trkpt>
      <trkpt lat="47.509013" lon="7.620273">
        <ele>307.893152</ele>
        <time>2021-11-20T17:05:05.605Z</time>
      </trkpt>
      <trkpt lat="47.508663" lon="7.620098">
        <ele>307.871110</ele>
        <time>2021-11-20T17:05:11.973Z</time>
      </trkpt>
      <trkpt lat="47.507966" lon="7.619751">
        <ele>307.827235</ele>
        <time>2021-11-20T17:05:22.872Z</time>
      </trkpt>
      <trkpt lat="47.507606" lon="7.619563">
        <ele>307.804458</ele>
        <time>2021-11-20T17:05:27.508Z</time>
      </trkpt>
      <trkpt lat="47.507380" lon="7.619501">
        <ele>307.711483</ele>
        <time>2021-11-20T17:05:30.353Z</time>
      </trkpt>
      <trkpt lat="47.506979" lon="7.619510">
        <ele>307.431049</ele>
        <time>2021-11-20T17:05:35.012Z</time>
      </trkpt>
      <trkpt lat="47.506634" lon="7.619453">
        <ele>307.188309</ele>
        <time>2021-11-20T17:05:39.194Z</time>
      </trkpt>
      <trkpt lat="47.506542" lon="7.619438">
        <ele>307.123588</ele>
        <time>2021-11-20T17:05:40.204Z</time>
      </trkpt>
      <trkpt lat="47.506328" lon="7.619429">
        <ele>306.973887</ele>
        <time>2021-11-20T17:05:42.977Z</time>
      </trkpt>
      <trkpt lat="47.506241" lon="7.619425">
        <ele>306.913023</ele>
        <time>2021-11-20T17:05:43.942Z</time>
      </trkpt>
      <trkpt lat="47.505968" lon="7.619447">
        <ele>306.721843</ele>
        <time>2021-11-20T17:05:48.027Z</time>
      </trkpt>
      <trkpt lat="47.505759" lon="7.619472">
        <ele>306.575223</ele>
        <time>2021-11-20T17:05:50.849Z</time>
      </trkpt>
      <trkpt lat="47.505257" lon="7.619587">
        <ele>307.302452</ele>
        <time>2021-11-20T17:06:00.189Z</time>
      </trkpt>
      <trkpt lat="47.504951" lon="7.619637">
        <ele>307.814428</ele>
        <time>2021-11-20T17:06:06.006Z</time>
      </trkpt>
      <trkpt lat="47.504399" lon="7.619611">
        <ele>308.732882</ele>
        <time>2021-11-20T17:06:18.535Z</time>
      </trkpt>
      <trkpt lat="47.504266" lon="7.619606">
        <ele>308.954136</ele>
        <time>2021-11-20T17:06:21.880Z</time>
      </trkpt>
      <trkpt lat="47.503777" lon="7.619587">
        <ele>309.885229</ele>
        <time>2021-11-20T17:06:35.412Z</time>
      </trkpt>
      <trkpt lat="47.503702" lon="7.619579">
        <ele>310.072584</ele>
        <time>2021-11-20T17:06:37.217Z</time>
      </trkpt>
      <trkpt lat="47.503407" lon="7.619587">
        <ele>310.807732</ele>
        <time>2021-11-20T17:06:44.782Z</time>
      </trkpt>
      <trkpt lat="47.502869" lon="7.619611">
        <ele>312.148825</ele>
        <time>2021-11-20T17:06:58.210Z</time>
      </trkpt>
      <trkpt lat="47.502748" lon="7.619618">
        <ele>312.450540</ele>
        <time>2021-11-20T17:07:01.515Z</time>
      </trkpt>
      <trkpt lat="47.502423" lon="7.619573">
        <ele>313.263847</ele>
        <time>2021-11-20T17:07:09.065Z</time>
      </trkpt>
      <trkpt lat="47.501858" lon="7.619248">
        <ele>314.918566</ele>
        <time>2021-11-20T17:07:22.593Z</time>
      </trkpt>
      <trkpt lat="47.501815" lon="7.619219">
        <ele>315.058641</ele>
        <time>2021-11-20T17:07:24.136Z</time>
      </trkpt>
      <trkpt lat="47.501728" lon="7.619173">
        <ele>315.332501</ele>
        <time>2021-11-20T17:07:26.533Z</time>
      </trkpt>
      <trkpt lat="47.501642" lon="7.619135">
        <ele>315.598554</ele>
        <time>2021-11-20T17:07:28.703Z</time>
      </trkpt>
      <trkpt lat="47.501258" lon="7.619029">
        <ele>316.756502</ele>
        <time>2021-11-20T17:07:38.769Z</time>
      </trkpt>
      <trkpt lat="47.501024" lon="7.619039">
        <ele>317.450457</ele>
        <time>2021-11-20T17:07:44.717Z</time>
      </trkpt>
      <trkpt lat="47.500324" lon="7.619214">
        <ele>319.630080</ele>
        <time>2021-11-20T17:08:05.719Z</time>
      </trkpt>
      <trkpt lat="47.499712" lon="7.619298">
        <ele>322.104473</ele>
        <time>2021-11-20T17:08:24.984Z</time>
      </trkpt>
      <trkpt lat="47.499629" lon="7.619296">
        <ele>322.438663</ele>
        <time>2021-11-20T17:08:27.496Z</time>
      </trkpt>
      <trkpt lat="47.499588" lon="7.619273">
        <ele>322.615179</ele>
        <time>2021-11-20T17:08:28.831Z</time>
      </trkpt>
      <trkpt lat="47.499552" lon="7.619300">
        <ele>322.777653</ele>
        <time>2021-11-20T17:08:30.886Z</time>
      </trkpt>
      <trkpt lat="47.499482" lon="7.619313">
        <ele>323.061672</ele>
        <time>2021-11-20T17:08:33.282Z</time>
      </trkpt>
      <trkpt lat="47.499079" lon="7.619349">
        <ele>324.687044</ele>
        <time>2021-11-20T17:08:47.841Z</time>
      </trkpt>
      <trkpt lat="47.498887" lon="7.619379">
        <ele>325.464302</ele>
        <time>2021-11-20T17:08:54.633Z</time>
      </trkpt>
      <trkpt lat="47.498443" lon="7.619450">
        <ele>327.167362</ele>
        <time>2021-11-20T17:09:11.372Z</time>
      </trkpt>
      <trkpt lat="47.498018" lon="7.619431">
        <ele>328.639062</ele>
        <time>2021-11-20T17:09:26.526Z</time>
      </trkpt>
      <trkpt lat="47.497861" lon="7.619439">
        <ele>329.182800</ele>
        <time>2021-11-20T17:09:32.064Z</time>
      </trkpt>
      <trkpt lat="47.497749" lon="7.619469">
        <ele>329.576756</ele>
        <time>2021-11-20T17:09:35.932Z</time>
      </trkpt>
      <trkpt lat="47.497635" lon="7.619528">
        <ele>329.994764</ele>
        <time>2021-11-20T17:09:40.092Z</time>
      </trkpt>
      <trkpt lat="47.497529" lon="7.619591">
        <ele>330.390130</ele>
        <time>2021-11-20T17:09:44.285Z</time>
      </trkpt>
      <trkpt lat="47.497427" lon="7.619683">
        <ele>330.803565</ele>
        <time>2021-11-20T17:09:48.359Z</time>
      </trkpt>
      <trkpt lat="47.497282" lon="7.619853">
        <ele>331.443820</ele>
        <time>2021-11-20T17:09:54.665Z</time>
      </trkpt>
      <trkpt lat="47.496981" lon="7.620187">
        <ele>332.745926</ele>
        <time>2021-11-20T17:10:06.728Z</time>
      </trkpt>
      <trkpt lat="47.496874" lon="7.620315">
        <ele>332.989525</ele>
        <time>2021-11-20T17:10:10.732Z</time>
      </trkpt>
      <trkpt lat="47.496715" lon="7.620506">
        <ele>333.296703</ele>
        <time>2021-11-20T17:10:16.628Z</time>
      </trkpt>
      <trkpt lat="47.496519" lon="7.620793">
        <ele>333.710284</ele>
        <time>2021-11-20T17:10:24.139Z</time>
      </trkpt>
      <trkpt lat="47.496439" lon="7.620890">
        <ele>333.865415</ele>
        <time>2021-11-20T17:10:27.154Z</time>
      </trkpt>
      <trkpt lat="47.496331" lon="7.621021">
        <ele>334.074875</ele>
        <time>2021-11-20T17:10:30.763Z</time>
      </trkpt>
      <trkpt lat="47.496219" lon="7.621150">
        <ele>334.287758</ele>
        <time>2021-11-20T17:10:34.430Z</time>
      </trkpt>
      <trkpt lat="47.496143" lon="7.621224">
        <ele>334.424220</ele>
        <time>2021-11-20T17:10:36.767Z</time>
      </trkpt>
      <trkpt lat="47.496025" lon="7.621316">
        <ele>334.624284</ele>
        <time>2021-11-20T17:10:40.046Z</time>
      </trkpt>
      <trkpt lat="47.495914" lon="7.621389">
        <ele>334.806488</ele>
        <time>2021-11-20T17:10:42.947Z</time>
      </trkpt>
      <trkpt lat="47.495847" lon="7.621416">
        <ele>334.910651</ele>
        <time>2021-11-20T17:10:44.557Z</time>
      </trkpt>
      <trkpt lat="47.495742" lon="7.621459">
        <ele>335.074075</ele>
        <time>2021-11-20T17:10:47.138Z</time>
      </trkpt>
      <trkpt lat="47.495602" lon="7.621476">
        <ele>335.284789</ele>
        <time>2021-11-20T17:10:50.332Z</time>
      </trkpt>
      <trkpt lat="47.495472" lon="7.621503">
        <ele>335.481707</ele>
        <time>2021-11-20T17:10:53.371Z</time>
      </trkpt>
      <trkpt lat="47.495126" lon="7.621574">
        <ele>335.636958</ele>
        <time>2021-11-20T17:11:01.125Z</time>
      </trkpt>
      <trkpt lat="47.495010" lon="7.621539">
        <ele>335.682524</ele>
        <time>2021-11-20T17:11:03.620Z</time>
      </trkpt>
      <trkpt lat="47.494852" lon="7.621478">
        <ele>335.745373</ele>
        <time>2021-11-20T17:11:07.195Z</time>
      </trkpt>
      <trkpt lat="47.494819" lon="7.621452">
        <ele>335.759762</ele>
        <time>2021-11-20T17:11:07.856Z</time>
      </trkpt>
      <trkpt lat="47.494692" lon="7.621355">
        <ele>335.814769</ele>
        <time>2021-11-20T17:11:10.770Z</time>
      </trkpt>
      <trkpt lat="47.494315" lon="7.620971">
        <ele>335.990918</ele>
        <time>2021-11-20T17:11:19.908Z</time>
      </trkpt>
      <trkpt lat="47.494082" lon="7.620677">
        <ele>336.108768</ele>
        <time>2021-11-20T17:11:26.516Z</time>
      </trkpt>
      <trkpt lat="47.493993" lon="7.620565">
        <ele>336.153733</ele>
        <time>2021-11-20T17:11:29.210Z</time>
      </trkpt>
      <trkpt lat="47.493781" lon="7.620372">
        <ele>336.338117</ele>
        <time>2021-11-20T17:11:34.886Z</time>
      </trkpt>
      <trkpt lat="47.493732" lon="7.620332">
        <ele>336.399782</ele>
        <time>2021-11-20T17:11:36.219Z</time>
      </trkpt>
      <trkpt lat="47.493497" lon="7.620078">
        <ele>336.720449</ele>
        <time>2021-11-20T17:11:43.252Z</time>
      </trkpt>
      <trkpt lat="47.493391" lon="7.619934">
        <ele>336.879004</ele>
        <time>2021-11-20T17:11:46.982Z</time>
      </trkpt>
      <trkpt lat="47.493340" lon="7.619802">
        <ele>336.992221</ele>
        <time>2021-11-20T17:11:50.119Z</time>
      </trkpt>
      <trkpt lat="47.493329" lon="7.619697">
        <ele>337.071335</ele>
        <time>2021-11-20T17:11:51.736Z</time>
      </trkpt>
      <trkpt lat="47.493331" lon="7.619560">
        <ele>337.173365</ele>
        <time>2021-11-20T17:11:54.056Z</time>
      </trkpt>
      <trkpt lat="47.493334" lon="7.619310">
        <ele>337.359536</ele>
        <time>2021-11-20T17:11:58.647Z</time>
      </trkpt>
      <trkpt lat="47.493309" lon="7.619233">
        <ele>337.423144</ele>
        <time>2021-11-20T17:12:00.383Z</time>
      </trkpt>
      <trkpt lat="47.493201" lon="7.619190">
        <ele>337.546387</ele>
        <time>2021-11-20T17:12:03.029Z</time>
      </trkpt>
      <trkpt lat="47.493020" lon="7.619115">
        <ele>337.753512</ele>
        <time>2021-11-20T17:12:07.950Z</time>
      </trkpt>
      <trkpt lat="47.492973" lon="7.619088">
        <ele>337.809069</ele>
        <time>2021-11-20T17:12:09.610Z</time>
      </trkpt>
      <trkpt lat="47.492915" lon="7.619047">
        <ele>337.879899</ele>
        <time>2021-11-20T17:12:10.835Z</time>
      </trkpt>
      <trkpt lat="47.492606" lon="7.618789">
        <ele>338.084254</ele>
        <time>2021-11-20T17:12:19.614Z</time>
      </trkpt>
      <trkpt lat="47.492349" lon="7.618574">
        <ele>337.710503</ele>
        <time>2021-11-20T17:12:26.956Z</time>
      </trkpt>
      <trkpt lat="47.492276" lon="7.618508">
        <ele>337.602202</ele>
        <time>2021-11-20T17:12:28.375Z</time>
      </trkpt>
      <trkpt lat="47.492198" lon="7.618429">
        <ele>337.482542</ele>
        <time>2021-11-20T17:12:30.112Z</time>
      </trkpt>
      <trkpt lat="47.491682" lon="7.617901">
        <ele>336.688334</ele>
        <time>2021-11-20T17:12:40.747Z</time>
      </trkpt>
      <trkpt lat="47.491641" lon="7.617861">
        <ele>336.626163</ele>
        <time>2021-11-20T17:12:41.422Z</time>
      </trkpt>
      <trkpt lat="47.491373" lon="7.617592">
        <ele>336.216196</ele>
        <time>2021-11-20T17:12:46.322Z</time>
      </trkpt>
      <trkpt lat="47.491155" lon="7.617319">
        <ele>335.791865</ele>
        <time>2021-11-20T17:12:50.623Z</time>
      </trkpt>
      <trkpt lat="47.491145" lon="7.617309">
        <ele>335.758222</ele>
        <time>2021-11-20T17:12:50.782Z</time>
      </trkpt>
      <trkpt lat="47.490849" lon="7.617012">
        <ele>334.761341</ele>
        <time>2021-11-20T17:12:55.816Z</time>
      </trkpt>
      <trkpt lat="47.490495" lon="7.616853">
        <ele>333.730099</ele>
        <time>2021-11-20T17:13:01.089Z</time>
      </trkpt>
      <trkpt lat="47.490420" lon="7.616856">
        <ele>333.520956</ele>
        <time>2021-11-20T17:13:02.083Z</time>
      </trkpt>
      <trkpt lat="47.490341" lon="7.616865">
        <ele>333.300087</ele>
        <time>2021-11-20T17:13:03.394Z</time>
      </trkpt>
      <trkpt lat="47.490259" lon="7.616879">
        <ele>333.069991</ele>
        <time>2021-11-20T17:13:04.643Z</time>
      </trkpt>
      <trkpt lat="47.490202" lon="7.616888">
        <ele>332.910198</ele>
        <time>2021-11-20T17:13:05.427Z</time>
      </trkpt>
      <trkpt lat="47.489959" lon="7.616840">
        <ele>332.226814</ele>
        <time>2021-11-20T17:13:09.099Z</time>
      </trkpt>
      <trkpt lat="47.489774" lon="7.616769">
        <ele>331.694056</ele>
        <time>2021-11-20T17:13:12.021Z</time>
      </trkpt>
      <trkpt lat="47.489696" lon="7.616739">
        <ele>331.469403</ele>
        <time>2021-11-20T17:13:13.147Z</time>
      </trkpt>
      <trkpt lat="47.489609" lon="7.616701">
        <ele>331.216543</ele>
        <time>2021-11-20T17:13:14.795Z</time>
      </trkpt>
      <trkpt lat="47.489472" lon="7.616634">
        <ele>330.940231</ele>
        <time>2021-11-20T17:13:17.068Z</time>
      </trkpt>
      <trkpt lat="47.489367" lon="7.616590">
        <ele>331.122432</ele>
        <time>2021-11-20T17:13:18.775Z</time>
      </trkpt>
      <trkpt lat="47.489033" lon="7.616482">
        <ele>331.693235</ele>
        <time>2021-11-20T17:13:25.447Z</time>
      </trkpt>
      <trkpt lat="47.488943" lon="7.616458">
        <ele>331.845919</ele>
        <time>2021-11-20T17:13:27.128Z</time>
      </trkpt>
      <trkpt lat="47.488573" lon="7.616341">
        <ele>332.477616</ele>
        <time>2021-11-20T17:13:37.445Z</time>
      </trkpt>
      <trkpt lat="47.488450" lon="7.616333">
        <ele>332.683175</ele>
        <time>2021-11-20T17:13:40.187Z</time>
      </trkpt>
      <trkpt lat="47.488365" lon="7.616350">
        <ele>332.826381</ele>
        <time>2021-11-20T17:13:43.726Z</time>
      </trkpt>
      <trkpt lat="47.488112" lon="7.616379">
        <ele>333.250055</ele>
        <time>2021-11-20T17:13:52.178Z</time>
      </trkpt>
      <trkpt lat="47.487648" lon="7.616423">
        <ele>334.284205</ele>
        <time>2021-11-20T17:14:10.214Z</time>
      </trkpt>
      <trkpt lat="47.487342" lon="7.616370">
        <ele>335.816944</ele>
        <time>2021-11-20T17:14:20.993Z</time>
      </trkpt>
      <trkpt lat="47.487154" lon="7.616356">
        <ele>336.753426</ele>
        <time>2021-11-20T17:14:29.510Z</time>
      </trkpt>
      <trkpt lat="47.487109" lon="7.616365">
        <ele>336.979336</ele>
        <time>2021-11-20T17:14:30.846Z</time>
      </trkpt>
      <trkpt lat="47.486975" lon="7.616399">
        <ele>337.655713</ele>
        <time>2021-11-20T17:14:34.985Z</time>
      </trkpt>
      <trkpt lat="47.486903" lon="7.616427">
        <ele>338.026075</ele>
        <time>2021-11-20T17:14:39.236Z</time>
      </trkpt>
      <trkpt lat="47.485613" lon="7.617149">
        <ele>344.074350</ele>
        <time>2021-11-20T17:15:36.768Z</time>
      </trkpt>
      <trkpt lat="47.485391" lon="7.617237">
        <ele>344.762686</ele>
        <time>2021-11-20T17:15:46.083Z</time>
      </trkpt>
      <trkpt lat="47.485220" lon="7.617315">
        <ele>345.298614</ele>
        <time>2021-11-20T17:15:51.934Z</time>
      </trkpt>
      <trkpt lat="47.485039" lon="7.617384">
        <ele>345.858412</ele>
        <time>2021-11-20T17:15:59.032Z</time>
      </trkpt>
      <trkpt lat="47.484935" lon="7.617457">
        <ele>346.203161</ele>
        <time>2021-11-20T17:16:01.632Z</time>
      </trkpt>
      <trkpt lat="47.484516" lon="7.617810">
        <ele>347.647208</ele>
        <time>2021-11-20T17:16:14.097Z</time>
      </trkpt>
      <trkpt lat="47.484375" lon="7.617928">
        <ele>348.132364</ele>
        <time>2021-11-20T17:16:19.528Z</time>
      </trkpt>
      <trkpt lat="47.484330" lon="7.617816">
        <ele>348.096097</ele>
        <time>2021-11-20T17:16:20.733Z</time>
      </trkpt>
      <trkpt lat="47.484000" lon="7.617026">
        <ele>346.554001</ele>
        <time>2021-11-20T17:16:33.725Z</time>
      </trkpt>
      <trkpt lat="47.483995" lon="7.617017">
        <ele>346.534656</ele>
        <time>2021-11-20T17:16:33.825Z</time>
      </trkpt>
      <trkpt lat="47.483936" lon="7.616913">
        <ele>346.309191</ele>
        <time>2021-11-20T17:16:35.081Z</time>
      </trkpt>
      <trkpt lat="47.483825" lon="7.616762">
        <ele>345.938728</ele>
        <time>2021-11-20T17:16:37.498Z</time>
      </trkpt>
      <trkpt lat="47.483743" lon="7.616680">
        <ele>345.695561</ele>
        <time>2021-11-20T17:16:39.845Z</time>
      </trkpt>
      <trkpt lat="47.483702" lon="7.616634">
        <ele>345.569142</ele>
        <time>2021-11-20T17:16:40.456Z</time>
      </trkpt>
      <trkpt lat="47.483580" lon="7.616530">
        <ele>345.223205</ele>
        <time>2021-11-20T17:16:42.436Z</time>
      </trkpt>
      <trkpt lat="47.483420" lon="7.616421">
        <ele>344.790423</ele>
        <time>2021-11-20T17:16:45.532Z</time>
      </trkpt>
      <trkpt lat="47.483265" lon="7.616318">
        <ele>344.372949</ele>
        <time>2021-11-20T17:16:47.685Z</time>
      </trkpt>
      <trkpt lat="47.483187" lon="7.616266">
        <ele>344.162751</ele>
        <time>2021-11-20T17:16:48.855Z</time>
      </trkpt>
      <trkpt lat="47.482693" lon="7.616016">
        <ele>342.310772</ele>
        <time>2021-11-20T17:16:55.770Z</time>
      </trkpt>
      <trkpt lat="47.482219" lon="7.615958">
        <ele>340.428536</ele>
        <time>2021-11-20T17:17:02.483Z</time>
      </trkpt>
      <trkpt lat="47.482054" lon="7.615956">
        <ele>339.775535</ele>
        <time>2021-11-20T17:17:04.727Z</time>
      </trkpt>
      <trkpt lat="47.481902" lon="7.615955">
        <ele>339.173996</ele>
        <time>2021-11-20T17:17:06.952Z</time>
      </trkpt>
      <trkpt lat="47.481510" lon="7.615924">
        <ele>337.620460</ele>
        <time>2021-11-20T17:17:12.472Z</time>
      </trkpt>
      <trkpt lat="47.480700" lon="7.615720">
        <ele>335.786699</ele>
        <time>2021-11-20T17:17:25.234Z</time>
      </trkpt>
      <trkpt lat="47.480647" lon="7.615730">
        <ele>335.704193</ele>
        <time>2021-11-20T17:17:26.010Z</time>
      </trkpt>
      <trkpt lat="47.480591" lon="7.615758">
        <ele>335.612913</ele>
        <time>2021-11-20T17:17:26.825Z</time>
      </trkpt>
      <trkpt lat="47.480519" lon="7.615801">
        <ele>335.493015</ele>
        <time>2021-11-20T17:17:27.998Z</time>
      </trkpt>
      <trkpt lat="47.480436" lon="7.615853">
        <ele>335.353830</ele>
        <time>2021-11-20T17:17:29.903Z</time>
      </trkpt>
      <trkpt lat="47.480333" lon="7.615826">
        <ele>335.192300</ele>
        <time>2021-11-20T17:17:31.958Z</time>
      </trkpt>
      <trkpt lat="47.480308" lon="7.615759">
        <ele>335.112426</ele>
        <time>2021-11-20T17:17:32.842Z</time>
      </trkpt>
      <trkpt lat="47.480242" lon="7.615789">
        <ele>335.005808</ele>
        <time>2021-11-20T17:17:33.487Z</time>
      </trkpt>
      <trkpt lat="47.479834" lon="7.615911">
        <ele>334.363034</ele>
        <time>2021-11-20T17:17:39.209Z</time>
      </trkpt>
      <trkpt lat="47.479445" lon="7.615933">
        <ele>333.784817</ele>
        <time>2021-11-20T17:17:44.641Z</time>
      </trkpt>
      <trkpt lat="47.479444" lon="7.615795">
        <ele>333.662135</ele>
        <time>2021-11-20T17:17:46.731Z</time>
      </trkpt>
      <trkpt lat="47.479412" lon="7.615446">
        <ele>333.349051</ele>
        <time>2021-11-20T17:17:50.793Z</time>
      </trkpt>
      <trkpt lat="47.479247" lon="7.615061">
        <ele>332.943797</ele>
        <time>2021-11-20T17:17:56.138Z</time>
      </trkpt>
      <trkpt lat="47.479181" lon="7.614964">
        <ele>332.821440</ele>
        <time>2021-11-20T17:17:58.062Z</time>
      </trkpt>
      <trkpt lat="47.479127" lon="7.615023">
        <ele>332.733148</ele>
        <time>2021-11-20T17:17:59.522Z</time>
      </trkpt>
      <trkpt lat="47.478847" lon="7.615061">
        <ele>332.363321</ele>
        <time>2021-11-20T17:18:04.167Z</time>
      </trkpt>
      <trkpt lat="47.478555" lon="7.615035">
        <ele>331.978561</ele>
        <time>2021-11-20T17:18:08.943Z</time>
      </trkpt>
      <trkpt lat="47.478502" lon="7.615052">
        <ele>331.907231</ele>
        <time>2021-11-20T17:18:09.795Z</time>
      </trkpt>
      <trkpt lat="47.478472" lon="7.614999">
        <ele>331.845775</ele>
        <time>2021-11-20T17:18:10.435Z</time>
      </trkpt>
      <trkpt lat="47.477951" lon="7.614702">
        <ele>330.102768</ele>
        <time>2021-11-20T17:18:19.135Z</time>
      </trkpt>
      <trkpt lat="47.477916" lon="7.614657">
        <ele>329.901769</ele>
        <time>2021-11-20T17:18:19.740Z</time>
      </trkpt>
      <trkpt lat="47.477846" lon="7.614478">
        <ele>329.295878</ele>
        <time>2021-11-20T17:18:21.726Z</time>
      </trkpt>
      <trkpt lat="47.477717" lon="7.614041">
        <ele>327.898765</ele>
        <time>2021-11-20T17:18:26.143Z</time>
      </trkpt>
      <trkpt lat="47.477432" lon="7.612902">
        <ele>324.340364</ele>
        <time>2021-11-20T17:18:37.318Z</time>
      </trkpt>
      <trkpt lat="47.477412" lon="7.612421">
        <ele>322.451386</ele>
        <time>2021-11-20T17:18:41.570Z</time>
      </trkpt>
      <trkpt lat="47.477420" lon="7.612339">
        <ele>322.068372</ele>
        <time>2021-11-20T17:18:42.429Z</time>
      </trkpt>
      <trkpt lat="47.477437" lon="7.612167">
        <ele>321.264761</ele>
        <time>2021-11-20T17:18:43.907Z</time>
      </trkpt>
      <trkpt lat="47.477433" lon="7.611750">
        <ele>319.336782</ele>
        <time>2021-11-20T17:18:47.565Z</time>
      </trkpt>
      <trkpt lat="47.477367" lon="7.611584">
        <ele>318.446432</ele>
        <time>2021-11-20T17:18:49.264Z</time>
      </trkpt>
      <trkpt lat="47.476944" lon="7.611296">
        <ele>315.261488</ele>
        <time>2021-11-20T17:18:55.166Z</time>
      </trkpt>
      <trkpt lat="47.476626" lon="7.611202">
        <ele>313.043399</ele>
        <time>2021-11-20T17:18:59.287Z</time>
      </trkpt>
      <trkpt lat="47.476625" lon="7.611014">
        <ele>312.174238</ele>
        <time>2021-11-20T17:19:00.894Z</time>
      </trkpt>
      <trkpt lat="47.476854" lon="7.610885">
        <ele>310.684707</ele>
        <time>2021-11-20T17:19:03.960Z</time>
      </trkpt>
      <trkpt lat="47.476930" lon="7.610778">
        <ele>310.107540</ele>
        <time>2021-11-20T17:19:05.331Z</time>
      </trkpt>
      <trkpt lat="47.476939" lon="7.610736">
        <ele>309.943706</ele>
        <time>2021-11-20T17:19:05.669Z</time>
      </trkpt>
      <trkpt lat="47.476935" lon="7.610699">
        <ele>309.804376</ele>
        <time>2021-11-20T17:19:05.964Z</time>
      </trkpt>
      <trkpt lat="47.476868" lon="7.610545">
        <ele>309.123363</ele>
        <time>2021-11-20T17:19:08.031Z</time>
      </trkpt>
      <trkpt lat="47.476801" lon="7.610434">
        <ele>308.569986</ele>
        <time>2021-11-20T17:19:09.289Z</time>
      </trkpt>
      <trkpt lat="47.476778" lon="7.610396">
        <ele>308.380311</ele>
        <time>2021-11-20T17:19:09.732Z</time>
      </trkpt>
      <trkpt lat="47.476617" lon="7.609995">
        <ele>306.645983</ele>
        <time>2021-11-20T17:19:13.861Z</time>
      </trkpt>
      <trkpt lat="47.476607" lon="7.609971">
        <ele>306.541145</ele>
        <time>2021-11-20T17:19:14.107Z</time>
      </trkpt>
      <trkpt lat="47.476586" lon="7.609858">
        <ele>306.105368</ele>
        <time>2021-11-20T17:19:15.159Z</time>
      </trkpt>
      <trkpt lat="47.476586" lon="7.609858">
        <ele>306.105368</ele>
        <time>2021-11-20T17:19:15.168Z</time>
      </trkpt>
      <trkpt lat="47.476580" lon="7.609780">
        <ele>305.813458</ele>
        <time>2021-11-20T17:19:15.795Z</time>
      </trkpt>
      <trkpt lat="47.476568" lon="7.609650">
        <ele>305.325574</ele>
        <time>2021-11-20T17:19:18.497Z</time>
      </trkpt>
      <trkpt lat="47.476542" lon="7.609129">
        <ele>303.382995</ele>
        <time>2021-11-20T17:19:23.232Z</time>
      </trkpt>
      <trkpt lat="47.476563" lon="7.609017">
        <ele>302.950802</ele>
        <time>2021-11-20T17:19:24.215Z</time>
      </trkpt>
      <trkpt lat="47.475998" lon="7.608763">
        <ele>301.469455</ele>
        <time>2021-11-20T17:19:30.259Z</time>
      </trkpt>
      <trkpt lat="47.475691" lon="7.608623">
        <ele>301.386893</ele>
        <time>2021-11-20T17:19:34.399Z</time>
      </trkpt>
      <trkpt lat="47.475533" lon="7.608551">
        <ele>301.344405</ele>
        <time>2021-11-20T17:19:36.982Z</time>
      </trkpt>
      <trkpt lat="47.475185" lon="7.608496">
        <ele>301.254460</ele>
        <time>2021-11-20T17:19:42.788Z</time>
      </trkpt>
      <trkpt lat="47.474780" lon="7.608665">
        <ele>301.146315</ele>
        <time>2021-11-20T17:19:52.302Z</time>
      </trkpt>
      <trkpt lat="47.474713" lon="7.608693">
        <ele>301.128422</ele>
        <time>2021-11-20T17:19:53.826Z</time>
      </trkpt>
      <trkpt lat="47.474675" lon="7.608706">
        <ele>301.118399</ele>
        <time>2021-11-20T17:19:54.645Z</time>
      </trkpt>
      <trkpt lat="47.474589" lon="7.608727">
        <ele>301.095998</ele>
        <time>2021-11-20T17:19:56.676Z</time>
      </trkpt>
      <trkpt lat="47.474483" lon="7.608736">
        <ele>301.172552</ele>
        <time>2021-11-20T17:19:59.011Z</time>
      </trkpt>
      <trkpt lat="47.474351" lon="7.608723">
        <ele>301.279210</ele>
        <time>2021-11-20T17:20:01.617Z</time>
      </trkpt>
      <trkpt lat="47.474326" lon="7.608720">
        <ele>301.299432</ele>
        <time>2021-11-20T17:20:02.129Z</time>
      </trkpt>
      <trkpt lat="47.474303" lon="7.608715">
        <ele>301.318175</ele>
        <time>2021-11-20T17:20:02.623Z</time>
      </trkpt>
      <trkpt lat="47.473987" lon="7.608646">
        <ele>301.575705</ele>
        <time>2021-11-20T17:20:09.206Z</time>
      </trkpt>
      <trkpt lat="47.473800" lon="7.608605">
        <ele>301.728117</ele>
        <time>2021-11-20T17:20:13.218Z</time>
      </trkpt>
      <trkpt lat="47.473504" lon="7.608484">
        <ele>301.975705</ele>
        <time>2021-11-20T17:20:18.764Z</time>
      </trkpt>
      <trkpt lat="47.473495" lon="7.608479">
        <ele>301.983456</ele>
        <time>2021-11-20T17:20:19.225Z</time>
      </trkpt>
      <trkpt lat="47.473360" lon="7.608395">
        <ele>302.101532</ele>
        <time>2021-11-20T17:20:21.606Z</time>
      </trkpt>
      <trkpt lat="47.473270" lon="7.608339">
        <ele>302.180250</ele>
        <time>2021-11-20T17:20:23.045Z</time>
      </trkpt>
      <trkpt lat="47.472986" lon="7.608110">
        <ele>302.441021</ele>
        <time>2021-11-20T17:20:28.146Z</time>
      </trkpt>
      <trkpt lat="47.472745" lon="7.607872">
        <ele>302.313503</ele>
        <time>2021-11-20T17:20:32.285Z</time>
      </trkpt>
      <trkpt lat="47.472581" lon="7.607710">
        <ele>302.033188</ele>
        <time>2021-11-20T17:20:34.712Z</time>
      </trkpt>
      <trkpt lat="47.472416" lon="7.607545">
        <ele>301.750084</ele>
        <time>2021-11-20T17:20:37.293Z</time>
      </trkpt>
      <trkpt lat="47.471898" lon="7.607030">
        <ele>300.862921</ele>
        <time>2021-11-20T17:20:44.089Z</time>
      </trkpt>
      <trkpt lat="47.471584" lon="7.606718">
        <ele>300.325238</ele>
        <time>2021-11-20T17:20:48.214Z</time>
      </trkpt>
      <trkpt lat="47.471542" lon="7.606672">
        <ele>300.250954</ele>
        <time>2021-11-20T17:20:48.814Z</time>
      </trkpt>
      <trkpt lat="47.471218" lon="7.606364">
        <ele>299.908852</ele>
        <time>2021-11-20T17:20:53.137Z</time>
      </trkpt>
      <trkpt lat="47.471126" lon="7.606288">
        <ele>299.867498</ele>
        <time>2021-11-20T17:20:54.291Z</time>
      </trkpt>
      <trkpt lat="47.470931" lon="7.606143">
        <ele>299.781843</ele>
        <time>2021-11-20T17:20:56.818Z</time>
      </trkpt>
      <trkpt lat="47.470700" lon="7.606019">
        <ele>299.685400</ele>
        <time>2021-11-20T17:20:59.700Z</time>
      </trkpt>
      <trkpt lat="47.470508" lon="7.605936">
        <ele>299.606896</ele>
        <time>2021-11-20T17:21:02.649Z</time>
      </trkpt>
      <trkpt lat="47.470011" lon="7.605752">
        <ele>299.405826</ele>
        <time>2021-11-20T17:21:10.479Z</time>
      </trkpt>
      <trkpt lat="47.469880" lon="7.605693">
        <ele>299.352083</ele>
        <time>2021-11-20T17:21:13.188Z</time>
      </trkpt>
      <trkpt lat="47.469347" lon="7.605370">
        <ele>299.847476</ele>
        <time>2021-11-20T17:21:23.892Z</time>
      </trkpt>
      <trkpt lat="47.468884" lon="7.605116">
        <ele>300.554334</ele>
        <time>2021-11-20T17:21:36.081Z</time>
      </trkpt>
      <trkpt lat="47.467885" lon="7.604836">
        <ele>301.804621</ele>
        <time>2021-11-20T17:21:57.867Z</time>
      </trkpt>
      <trkpt lat="47.467586" lon="7.604473">
        <ele>301.620085</ele>
        <time>2021-11-20T17:22:03.118Z</time>
      </trkpt>
      <trkpt lat="47.467474" lon="7.604275">
        <ele>301.536821</ele>
        <time>2021-11-20T17:22:06.315Z</time>
      </trkpt>
      <trkpt lat="47.467476" lon="7.604051">
        <ele>301.464573</ele>
        <time>2021-11-20T17:22:07.860Z</time>
      </trkpt>
      <trkpt lat="47.467436" lon="7.603858">
        <ele>301.399469</ele>
        <time>2021-11-20T17:22:10.057Z</time>
      </trkpt>
      <trkpt lat="47.467276" lon="7.603648">
        <ele>301.297422</ele>
        <time>2021-11-20T17:22:12.392Z</time>
      </trkpt>
      <trkpt lat="47.467093" lon="7.603406">
        <ele>301.180316</ele>
        <time>2021-11-20T17:22:15.758Z</time>
      </trkpt>
      <trkpt lat="47.467077" lon="7.603280">
        <ele>301.138969</ele>
        <time>2021-11-20T17:22:16.601Z</time>
      </trkpt>
      <trkpt lat="47.467095" lon="7.602880">
        <ele>301.009678</ele>
        <time>2021-11-20T17:22:20.588Z</time>
      </trkpt>
      <trkpt lat="47.467099" lon="7.602861">
        <ele>301.003260</ele>
        <time>2021-11-20T17:22:20.720Z</time>
      </trkpt>
      <trkpt lat="47.467110" lon="7.602737">
        <ele>301.022560</ele>
        <time>2021-11-20T17:22:21.544Z</time>
      </trkpt>
      <trkpt lat="47.467144" lon="7.602634">
        <ele>301.048790</ele>
        <time>2021-11-20T17:22:22.481Z</time>
      </trkpt>
      <trkpt lat="47.466982" lon="7.602627">
        <ele>301.103653</ele>
        <time>2021-11-20T17:22:25.539Z</time>
      </trkpt>
      <trkpt lat="47.466102" lon="7.602784">
        <ele>301.403703</ele>
        <time>2021-11-20T17:22:36.438Z</time>
      </trkpt>
      <trkpt lat="47.466036" lon="7.602807">
        <ele>301.426657</ele>
        <time>2021-11-20T17:22:37.671Z</time>
      </trkpt>
      <trkpt lat="47.465922" lon="7.602849">
        <ele>301.466426</ele>
        <time>2021-11-20T17:22:40.096Z</time>
      </trkpt>
      <trkpt lat="47.465329" lon="7.602908">
        <ele>302.174389</ele>
        <time>2021-11-20T17:22:55.671Z</time>
      </trkpt>
      <trkpt lat="47.464779" lon="7.603045">
        <ele>303.933142</ele>
        <time>2021-11-20T17:23:12.561Z</time>
      </trkpt>
      <trkpt lat="47.463633" lon="7.603710">
        <ele>307.405592</ele>
        <time>2021-11-20T17:23:47.137Z</time>
      </trkpt>
      <trkpt lat="47.463302" lon="7.604022">
        <ele>307.698970</ele>
        <time>2021-11-20T17:23:55.676Z</time>
      </trkpt>
      <trkpt lat="47.463115" lon="7.604102">
        <ele>307.844475</ele>
        <time>2021-11-20T17:23:59.654Z</time>
      </trkpt>
      <trkpt lat="47.463046" lon="7.604157">
        <ele>307.903063</ele>
        <time>2021-11-20T17:24:02.658Z</time>
      </trkpt>
      <trkpt lat="47.463045" lon="7.604227">
        <ele>307.938445</ele>
        <time>2021-11-20T17:24:03.071Z</time>
      </trkpt>
      <trkpt lat="47.462987" lon="7.604954">
        <ele>308.308375</ele>
        <time>2021-11-20T17:24:10.584Z</time>
      </trkpt>
      <trkpt lat="47.462918" lon="7.605253">
        <ele>308.468031</ele>
        <time>2021-11-20T17:24:13.519Z</time>
      </trkpt>
      <trkpt lat="47.462063" lon="7.606915">
        <ele>308.039041</ele>
        <time>2021-11-20T17:24:30.224Z</time>
      </trkpt>
      <trkpt lat="47.461735" lon="7.607437">
        <ele>307.805594</ele>
        <time>2021-11-20T17:24:37.487Z</time>
      </trkpt>
      <trkpt lat="47.461161" lon="7.608238">
        <ele>310.018441</ele>
        <time>2021-11-20T17:24:53.767Z</time>
      </trkpt>
      <trkpt lat="47.460744" lon="7.608677">
        <ele>311.732106</ele>
        <time>2021-11-20T17:25:07.734Z</time>
      </trkpt>
      <trkpt lat="47.459989" lon="7.609149">
        <ele>315.051491</ele>
        <time>2021-11-20T17:25:39.193Z</time>
      </trkpt>
      <trkpt lat="47.459570" lon="7.609743">
        <ele>318.583934</ele>
        <time>2021-11-20T17:26:03.433Z</time>
      </trkpt>
      <trkpt lat="47.459450" lon="7.609891">
        <ele>319.534903</ele>
        <time>2021-11-20T17:26:10.718Z</time>
      </trkpt>
      <trkpt lat="47.459284" lon="7.609953">
        <ele>320.576953</ele>
        <time>2021-11-20T17:26:17.648Z</time>
      </trkpt>
      <trkpt lat="47.459046" lon="7.609954">
        <ele>322.025510</ele>
        <time>2021-11-20T17:26:27.816Z</time>
      </trkpt>
      <trkpt lat="47.458787" lon="7.609922">
        <ele>323.607365</ele>
        <time>2021-11-20T17:26:37.826Z</time>
      </trkpt>
      <trkpt lat="47.458580" lon="7.609833">
        <ele>324.771960</ele>
        <time>2021-11-20T17:26:45.748Z</time>
      </trkpt>
      <trkpt lat="47.457834" lon="7.609195">
        <ele>326.130451</ele>
        <time>2021-11-20T17:27:09.746Z</time>
      </trkpt>
      <trkpt lat="47.457651" lon="7.608959">
        <ele>326.513210</ele>
        <time>2021-11-20T17:27:16.806Z</time>
      </trkpt>
      <trkpt lat="47.457427" lon="7.608611">
        <ele>327.025350</ele>
        <time>2021-11-20T17:27:20.691Z</time>
      </trkpt>
      <trkpt lat="47.457134" lon="7.608143">
        <ele>327.230202</ele>
        <time>2021-11-20T17:27:25.364Z</time>
      </trkpt>
      <trkpt lat="47.456842" lon="7.607863">
        <ele>326.033438</ele>
        <time>2021-11-20T17:27:28.896Z</time>
      </trkpt>
      <trkpt lat="47.456732" lon="7.607809">
        <ele>325.634860</ele>
        <time>2021-11-20T17:27:29.902Z</time>
      </trkpt>
      <trkpt lat="47.456552" lon="7.607797">
        <ele>325.015221</ele>
        <time>2021-11-20T17:27:31.915Z</time>
      </trkpt>
      <trkpt lat="47.456503" lon="7.607794">
        <ele>324.846569</ele>
        <time>2021-11-20T17:27:33.208Z</time>
      </trkpt>
      <trkpt lat="47.456504" lon="7.607697">
        <ele>324.620994</ele>
        <time>2021-11-20T17:27:33.774Z</time>
      </trkpt>
      <trkpt lat="47.456498" lon="7.607577">
        <ele>324.341203</ele>
        <time>2021-11-20T17:27:34.486Z</time>
      </trkpt>
      <trkpt lat="47.456130" lon="7.607179">
        <ele>322.773393</ele>
        <time>2021-11-20T17:27:39.020Z</time>
      </trkpt>
      <trkpt lat="47.455859" lon="7.606734">
        <ele>321.380831</ele>
        <time>2021-11-20T17:27:43.095Z</time>
      </trkpt>
      <trkpt lat="47.454525" lon="7.604692">
        <ele>317.480051</ele>
        <time>2021-11-20T17:28:03.732Z</time>
      </trkpt>
      <trkpt lat="47.454443" lon="7.604568">
        <ele>317.476350</ele>
        <time>2021-11-20T17:28:05.423Z</time>
      </trkpt>
      <trkpt lat="47.454415" lon="7.604527">
        <ele>317.475107</ele>
        <time>2021-11-20T17:28:05.981Z</time>
      </trkpt>
      <trkpt lat="47.453825" lon="7.603661">
        <ele>317.448874</ele>
        <time>2021-11-20T17:28:19.527Z</time>
      </trkpt>
      <trkpt lat="47.453231" lon="7.602759">
        <ele>317.438313</ele>
        <time>2021-11-20T17:28:33.836Z</time>
      </trkpt>
      <trkpt lat="47.452789" lon="7.602121">
        <ele>317.482206</ele>
        <time>2021-11-20T17:28:44.387Z</time>
      </trkpt>
      <trkpt lat="47.452700" lon="7.602024">
        <ele>317.490063</ele>
        <time>2021-11-20T17:28:45.896Z</time>
      </trkpt>
      <trkpt lat="47.451732" lon="7.600712">
        <ele>317.405431</ele>
        <time>2021-11-20T17:29:04.496Z</time>
      </trkpt>
      <trkpt lat="47.451051" lon="7.600134">
        <ele>317.113249</ele>
        <time>2021-11-20T17:29:14.286Z</time>
      </trkpt>
      <trkpt lat="47.450248" lon="7.599869">
        <ele>317.090475</ele>
        <time>2021-11-20T17:29:25.929Z</time>
      </trkpt>
      <trkpt lat="47.449658" lon="7.599861">
        <ele>317.664035</ele>
        <time>2021-11-20T17:29:36.185Z</time>
      </trkpt>
      <trkpt lat="47.449274" lon="7.599940">
        <ele>318.040915</ele>
        <time>2021-11-20T17:29:43.528Z</time>
      </trkpt>
      <trkpt lat="47.449110" lon="7.599981">
        <ele>318.202601</ele>
        <time>2021-11-20T17:29:46.604Z</time>
      </trkpt>
      <trkpt lat="47.448901" lon="7.600063">
        <ele>318.412798</ele>
        <time>2021-11-20T17:29:51.208Z</time>
      </trkpt>
      <trkpt lat="47.446755" lon="7.601393">
        <ele>324.272639</ele>
        <time>2021-11-20T17:30:46.754Z</time>
      </trkpt>
      <trkpt lat="47.445821" lon="7.601888">
        <ele>328.966754</ele>
        <time>2021-11-20T17:31:19.932Z</time>
      </trkpt>
      <trkpt lat="47.445408" lon="7.601966">
        <ele>330.936578</ele>
        <time>2021-11-20T17:31:36.617Z</time>
      </trkpt>
      <trkpt lat="47.444672" lon="7.601966">
        <ele>335.012260</ele>
        <time>2021-11-20T17:32:08.398Z</time>
      </trkpt>
      <trkpt lat="47.444268" lon="7.601867">
        <ele>337.325652</ele>
        <time>2021-11-20T17:32:26.756Z</time>
      </trkpt>
      <trkpt lat="47.443775" lon="7.601627">
        <ele>340.257754</ele>
        <time>2021-11-20T17:32:47.112Z</time>
      </trkpt>
      <trkpt lat="47.442999" lon="7.600903">
        <ele>341.156854</ele>
        <time>2021-11-20T17:33:05.068Z</time>
      </trkpt>
      <trkpt lat="47.442615" lon="7.600280">
        <ele>340.858132</ele>
        <time>2021-11-20T17:33:11.712Z</time>
      </trkpt>
      <trkpt lat="47.442610" lon="7.600272">
        <ele>340.854271</ele>
        <time>2021-11-20T17:33:11.787Z</time>
      </trkpt>
      <trkpt lat="47.442073" lon="7.599290">
        <ele>340.996333</ele>
        <time>2021-11-20T17:33:21.032Z</time>
      </trkpt>
      <trkpt lat="47.441802" lon="7.598715">
        <ele>341.602787</ele>
        <time>2021-11-20T17:33:26.252Z</time>
      </trkpt>
      <trkpt lat="47.441765" lon="7.598658">
        <ele>341.671152</ele>
        <time>2021-11-20T17:33:29.766Z</time>
      </trkpt>
      <trkpt lat="47.441606" lon="7.598477">
        <ele>341.927890</ele>
        <time>2021-11-20T17:33:32.016Z</time>
      </trkpt>
      <trkpt lat="47.441477" lon="7.598427">
        <ele>342.098514</ele>
        <time>2021-11-20T17:33:35.357Z</time>
      </trkpt>
      <trkpt lat="47.441395" lon="7.598446">
        <ele>342.204707</ele>
        <time>2021-11-20T17:33:40.434Z</time>
      </trkpt>
      <trkpt lat="47.441450" lon="7.598548">
        <ele>342.317589</ele>
        <time>2021-11-20T17:33:41.829Z</time>
      </trkpt>
      <trkpt lat="47.441594" lon="7.599011">
        <ele>342.758568</ele>
        <time>2021-11-20T17:33:53.370Z</time>
      </trkpt>
      <trkpt lat="47.441602" lon="7.599131">
        <ele>342.862911</ele>
        <time>2021-11-20T17:33:54.492Z</time>
      </trkpt>
      <trkpt lat="47.441602" lon="7.599333">
        <ele>343.736836</ele>
        <time>2021-11-20T17:34:00.309Z</time>
      </trkpt>
      <trkpt lat="47.441601" lon="7.599760">
        <ele>345.736864</ele>
        <time>2021-11-20T17:34:10.423Z</time>
      </trkpt>
      <trkpt lat="47.441600" lon="7.599932">
        <ele>346.542521</ele>
        <time>2021-11-20T17:34:18.199Z</time>
      </trkpt>
      <trkpt lat="47.441598" lon="7.599979">
        <ele>346.763098</ele>
        <time>2021-11-20T17:34:20.632Z</time>
      </trkpt>
      <trkpt lat="47.441592" lon="7.600122">
        <ele>347.434181</ele>
        <time>2021-11-20T17:34:23.607Z</time>
      </trkpt>
      <trkpt lat="47.441518" lon="7.600570">
        <ele>349.594233</ele>
        <time>2021-11-20T17:34:39.907Z</time>
      </trkpt>
      <trkpt lat="47.441352" lon="7.600904">
        <ele>351.535624</ele>
        <time>2021-11-20T17:34:52.054Z</time>
      </trkpt>
      <trkpt lat="47.440883" lon="7.601484">
        <ele>355.573739</ele>
        <time>2021-11-20T17:35:19.578Z</time>
      </trkpt>
      <trkpt lat="47.440657" lon="7.601611">
        <ele>356.491951</ele>
        <time>2021-11-20T17:35:27.969Z</time>
      </trkpt>
      <trkpt lat="47.440622" lon="7.601616">
        <ele>356.625493</ele>
        <time>2021-11-20T17:35:30.757Z</time>
      </trkpt>
      <trkpt lat="47.440531" lon="7.601611">
        <ele>356.971334</ele>
        <time>2021-11-20T17:35:33.391Z</time>
      </trkpt>
      <trkpt lat="47.440244" lon="7.601628">
        <ele>358.062183</ele>
        <time>2021-11-20T17:35:41.732Z</time>
      </trkpt>
      <trkpt lat="47.439425" lon="7.602178">
        <ele>361.478418</ele>
        <time>2021-11-20T17:36:04.596Z</time>
      </trkpt>
      <trkpt lat="47.439289" lon="7.602343">
        <ele>362.146563</ele>
        <time>2021-11-20T17:36:09.822Z</time>
      </trkpt>
      <trkpt lat="47.438853" lon="7.603255">
        <ele>365.719640</ele>
        <time>2021-11-20T17:36:25.368Z</time>
      </trkpt>
      <trkpt lat="47.437782" lon="7.604672">
        <ele>374.411862</ele>
        <time>2021-11-20T17:37:24.528Z</time>
      </trkpt>
      <trkpt lat="47.437714" lon="7.604828">
        <ele>375.614985</ele>
        <time>2021-11-20T17:37:30.800Z</time>
      </trkpt>
      <trkpt lat="47.437464" lon="7.605752">
        <ele>382.066522</ele>
        <time>2021-11-20T17:38:08.902Z</time>
      </trkpt>
      <trkpt lat="47.437345" lon="7.606244">
        <ele>385.453847</ele>
        <time>2021-11-20T17:38:29.464Z</time>
      </trkpt>
      <trkpt lat="47.437301" lon="7.608142">
        <ele>398.749891</ele>
        <time>2021-11-20T17:39:46.528Z</time>
      </trkpt>
      <trkpt lat="47.437255" lon="7.608489">
        <ele>401.271544</ele>
        <time>2021-11-20T17:39:59.086Z</time>
      </trkpt>
      <trkpt lat="47.437065" lon="7.608973">
        <ele>405.262305</ele>
        <time>2021-11-20T17:40:18.347Z</time>
      </trkpt>
      <trkpt lat="47.436627" lon="7.609289">
        <ele>410.122944</ele>
        <time>2021-11-20T17:40:46.018Z</time>
      </trkpt>
      <trkpt lat="47.436519" lon="7.609451">
        <ele>411.616783</ele>
        <time>2021-11-20T17:40:54.581Z</time>
      </trkpt>
      <trkpt lat="47.436425" lon="7.610175">
        <ele>416.458465</ele>
        <time>2021-11-20T17:41:22.045Z</time>
      </trkpt>
      <trkpt lat="47.436450" lon="7.610590">
        <ele>419.194773</ele>
        <time>2021-11-20T17:41:37.035Z</time>
      </trkpt>
      <trkpt lat="47.436519" lon="7.610982">
        <ele>421.854980</ele>
        <time>2021-11-20T17:41:51.217Z</time>
      </trkpt>
      <trkpt lat="47.436540" lon="7.611115">
        <ele>422.751941</ele>
        <time>2021-11-20T17:41:55.994Z</time>
      </trkpt>
      <trkpt lat="47.436509" lon="7.611472">
        <ele>425.143751</ele>
        <time>2021-11-20T17:42:07.956Z</time>
      </trkpt>
      <trkpt lat="47.436296" lon="7.611932">
        <ele>428.938909</ele>
        <time>2021-11-20T17:42:26.923Z</time>
      </trkpt>
      <trkpt lat="47.436238" lon="7.612162">
        <ele>430.610020</ele>
        <time>2021-11-20T17:42:37.179Z</time>
      </trkpt>
      <trkpt lat="47.436346" lon="7.613152">
        <ele>437.437001</ele>
        <time>2021-11-20T17:43:17.287Z</time>
      </trkpt>
      <trkpt lat="47.436183" lon="7.613927">
        <ele>442.998251</ele>
        <time>2021-11-20T17:43:44.141Z</time>
      </trkpt>
      <trkpt lat="47.436123" lon="7.614115">
        <ele>444.513573</ele>
        <time>2021-11-20T17:43:54.376Z</time>
      </trkpt>
      <trkpt lat="47.436102" lon="7.614198">
        <ele>445.159549</ele>
        <time>2021-11-20T17:43:59.118Z</time>
      </trkpt>
      <trkpt lat="47.436071" lon="7.614475">
        <ele>447.206210</ele>
        <time>2021-11-20T17:44:06.764Z</time>
      </trkpt>
      <trkpt lat="47.436069" lon="7.614561">
        <ele>447.833484</ele>
        <time>2021-11-20T17:44:10.777Z</time>
      </trkpt>
      <trkpt lat="47.436067" lon="7.614736">
        <ele>449.109342</ele>
        <time>2021-11-20T17:44:20.102Z</time>
      </trkpt>
      <trkpt lat="47.436034" lon="7.615017">
        <ele>451.188356</ele>
        <time>2021-11-20T17:44:27.873Z</time>
      </trkpt>
      <trkpt lat="47.435908" lon="7.615327">
        <ele>453.824718</ele>
        <time>2021-11-20T17:44:42.929Z</time>
      </trkpt>
      <trkpt lat="47.435602" lon="7.615989">
        <ele>459.669588</ele>
        <time>2021-11-20T17:45:15.629Z</time>
      </trkpt>
      <trkpt lat="47.435559" lon="7.616096">
        <ele>460.576852</ele>
        <time>2021-11-20T17:45:23.764Z</time>
      </trkpt>
      <trkpt lat="47.435233" lon="7.617227">
        <ele>468.158049</ele>
        <time>2021-11-20T17:46:09.117Z</time>
      </trkpt>
      <trkpt lat="47.435099" lon="7.617577">
        <ele>470.564081</ele>
        <time>2021-11-20T17:46:24.081Z</time>
      </trkpt>
      <trkpt lat="47.435060" lon="7.617695">
        <ele>471.349788</ele>
        <time>2021-11-20T17:46:27.479Z</time>
      </trkpt>
      <trkpt lat="47.435022" lon="7.617823">
        <ele>472.186065</ele>
        <time>2021-11-20T17:46:31.689Z</time>
      </trkpt>
      <trkpt lat="47.435002" lon="7.617895">
        <ele>472.651717</ele>
        <time>2021-11-20T17:46:33.864Z</time>
      </trkpt>
      <trkpt lat="47.434973" lon="7.618039">
        <ele>473.550580</ele>
        <time>2021-11-20T17:46:40.402Z</time>
      </trkpt>
      <trkpt lat="47.434926" lon="7.618291">
        <ele>475.114451</ele>
        <time>2021-11-20T17:46:47.244Z</time>
      </trkpt>
      <trkpt lat="47.434907" lon="7.618382">
        <ele>475.684212</ele>
        <time>2021-11-20T17:46:49.840Z</time>
      </trkpt>
      <trkpt lat="47.434861" lon="7.618572">
        <ele>476.891520</ele>
        <time>2021-11-20T17:46:56.073Z</time>
      </trkpt>
      <trkpt lat="47.434717" lon="7.618908">
        <ele>478.703157</ele>
        <time>2021-11-20T17:47:05.345Z</time>
      </trkpt>
      <trkpt lat="47.434301" lon="7.619435">
        <ele>481.743416</ele>
        <time>2021-11-20T17:47:27.195Z</time>
      </trkpt>
      <trkpt lat="47.434044" lon="7.619955">
        <ele>484.160950</ele>
        <time>2021-11-20T17:47:42.243Z</time>
      </trkpt>
      <trkpt lat="47.433983" lon="7.620109">
        <ele>484.830871</ele>
        <time>2021-11-20T17:47:47.962Z</time>
      </trkpt>
      <trkpt lat="47.433938" lon="7.620200">
        <ele>485.254022</ele>
        <time>2021-11-20T17:47:50.534Z</time>
      </trkpt>
      <trkpt lat="47.433902" lon="7.620259">
        <ele>485.552294</ele>
        <time>2021-11-20T17:47:51.876Z</time>
      </trkpt>
      <trkpt lat="47.433866" lon="7.620304">
        <ele>485.813921</ele>
        <time>2021-11-20T17:47:52.921Z</time>
      </trkpt>
      <trkpt lat="47.433827" lon="7.620344">
        <ele>486.077338</ele>
        <time>2021-11-20T17:47:53.884Z</time>
      </trkpt>
      <trkpt lat="47.433769" lon="7.620390">
        <ele>486.442604</ele>
        <time>2021-11-20T17:47:55.167Z</time>
      </trkpt>
      <trkpt lat="47.433715" lon="7.620425">
        <ele>486.769813</ele>
        <time>2021-11-20T17:47:58.993Z</time>
      </trkpt>
      <trkpt lat="47.433532" lon="7.620600">
        <ele>488.079237</ele>
        <time>2021-11-20T17:48:05.191Z</time>
      </trkpt>
      <trkpt lat="47.433401" lon="7.620993">
        <ele>490.377790</ele>
        <time>2021-11-20T17:48:16.253Z</time>
      </trkpt>
      <trkpt lat="47.433329" lon="7.622145">
        <ele>496.447336</ele>
        <time>2021-11-20T17:48:47.604Z</time>
      </trkpt>
      <trkpt lat="47.433029" lon="7.623936">
        <ele>508.887765</ele>
        <time>2021-11-20T17:50:00.708Z</time>
      </trkpt>
      <trkpt lat="47.432861" lon="7.624652">
        <ele>515.330344</ele>
        <time>2021-11-20T17:50:34.830Z</time>
      </trkpt>
      <trkpt lat="47.432643" lon="7.625626">
        <ele>524.051944</ele>
        <time>2021-11-20T17:51:23.418Z</time>
      </trkpt>
      <trkpt lat="47.432480" lon="7.626239">
        <ele>529.677186</ele>
        <time>2021-11-20T17:51:54.880Z</time>
      </trkpt>
      <trkpt lat="47.432318" lon="7.626613">
        <ele>533.470786</ele>
        <time>2021-11-20T17:52:15.788Z</time>
      </trkpt>
      <trkpt lat="47.431765" lon="7.627321">
        <ele>542.708818</ele>
        <time>2021-11-20T17:53:02.640Z</time>
      </trkpt>
      <trkpt lat="47.430809" lon="7.627830">
        <ele>552.484957</ele>
        <time>2021-11-20T17:54:03.297Z</time>
      </trkpt>
      <trkpt lat="47.430607" lon="7.627808">
        <ele>554.128253</ele>
        <time>2021-11-20T17:54:14.365Z</time>
      </trkpt>
      <trkpt lat="47.430440" lon="7.627654">
        <ele>555.725165</ele>
        <time>2021-11-20T17:54:23.890Z</time>
      </trkpt>
      <trkpt lat="47.430375" lon="7.627543">
        <ele>556.530922</ele>
        <time>2021-11-20T17:54:29.285Z</time>
      </trkpt>
      <trkpt lat="47.430235" lon="7.627251">
        <ele>558.495235</ele>
        <time>2021-11-20T17:54:39.288Z</time>
      </trkpt>
      <trkpt lat="47.430150" lon="7.627070">
        <ele>559.704545</ele>
        <time>2021-11-20T17:54:46.381Z</time>
      </trkpt>
      <trkpt lat="47.429945" lon="7.626886">
        <ele>561.567762</ele>
        <time>2021-11-20T17:54:51.291Z</time>
      </trkpt>
      <trkpt lat="47.429718" lon="7.626954">
        <ele>560.987311</ele>
        <time>2021-11-20T17:54:55.567Z</time>
      </trkpt>
      <trkpt lat="47.429694" lon="7.626977">
        <ele>560.915630</ele>
        <time>2021-11-20T17:54:58.604Z</time>
      </trkpt>
      <trkpt lat="47.429650" lon="7.627038">
        <ele>560.764454</ele>
        <time>2021-11-20T17:54:59.196Z</time>
      </trkpt>
      <trkpt lat="47.429598" lon="7.627181">
        <ele>560.489210</ele>
        <time>2021-11-20T17:55:03.144Z</time>
      </trkpt>
      <trkpt lat="47.429603" lon="7.627368">
        <ele>560.171928</ele>
        <time>2021-11-20T17:55:04.277Z</time>
      </trkpt>
      <trkpt lat="47.429833" lon="7.628257">
        <ele>558.558284</ele>
        <time>2021-11-20T17:55:11.911Z</time>
      </trkpt>
      <trkpt lat="47.429835" lon="7.628282">
        <ele>558.515605</ele>
        <time>2021-11-20T17:55:12.055Z</time>
      </trkpt>
      <trkpt lat="47.429834" lon="7.628328">
        <ele>558.437578</ele>
        <time>2021-11-20T17:55:12.310Z</time>
      </trkpt>
      <trkpt lat="47.429783" lon="7.628563">
        <ele>558.019167</ele>
        <time>2021-11-20T17:55:14.083Z</time>
      </trkpt>
      <trkpt lat="47.429592" lon="7.628846">
        <ele>557.341435</ele>
        <time>2021-11-20T17:55:16.466Z</time>
      </trkpt>
      <trkpt lat="47.429500" lon="7.629078">
        <ele>556.520639</ele>
        <time>2021-11-20T17:55:18.213Z</time>
      </trkpt>
      <trkpt lat="47.429454" lon="7.629283">
        <ele>555.466246</ele>
        <time>2021-11-20T17:55:19.430Z</time>
      </trkpt>
      <trkpt lat="47.429449" lon="7.629304">
        <ele>555.357563</ele>
        <time>2021-11-20T17:55:19.555Z</time>
      </trkpt>
      <trkpt lat="47.429415" lon="7.629476">
        <ele>554.482774</ele>
        <time>2021-11-20T17:55:20.733Z</time>
      </trkpt>
      <trkpt lat="47.429395" lon="7.629566">
        <ele>554.020310</ele>
        <time>2021-11-20T17:55:21.329Z</time>
      </trkpt>
      <trkpt lat="47.429336" lon="7.629790">
        <ele>552.846815</ele>
        <time>2021-11-20T17:55:22.689Z</time>
      </trkpt>
      <trkpt lat="47.429180" lon="7.630511">
        <ele>549.151355</ele>
        <time>2021-11-20T17:55:27.218Z</time>
      </trkpt>
      <trkpt lat="47.429101" lon="7.632082">
        <ele>542.843614</ele>
        <time>2021-11-20T17:55:37.042Z</time>
      </trkpt>
      <trkpt lat="47.429179" lon="7.632389">
        <ele>542.081485</ele>
        <time>2021-11-20T17:55:39.282Z</time>
      </trkpt>
      <trkpt lat="47.429442" lon="7.632873">
        <ele>540.638740</ele>
        <time>2021-11-20T17:55:43.566Z</time>
      </trkpt>
      <trkpt lat="47.429721" lon="7.633544">
        <ele>538.808340</ele>
        <time>2021-11-20T17:55:49.075Z</time>
      </trkpt>
      <trkpt lat="47.429793" lon="7.633724">
        <ele>538.322369</ele>
        <time>2021-11-20T17:55:50.577Z</time>
      </trkpt>
      <trkpt lat="47.430452" lon="7.635377">
        <ele>536.797039</ele>
        <time>2021-11-20T17:56:05.610Z</time>
      </trkpt>
      <trkpt lat="47.430558" lon="7.635635">
        <ele>536.602714</ele>
        <time>2021-11-20T17:56:08.702Z</time>
      </trkpt>
      <trkpt lat="47.430721" lon="7.636020">
        <ele>536.310325</ele>
        <time>2021-11-20T17:56:13.388Z</time>
      </trkpt>
      <trkpt lat="47.430902" lon="7.636497">
        <ele>536.400126</ele>
        <time>2021-11-20T17:56:19.382Z</time>
      </trkpt>
      <trkpt lat="47.430985" lon="7.636739">
        <ele>536.532745</ele>
        <time>2021-11-20T17:56:22.119Z</time>
      </trkpt>
      <trkpt lat="47.431083" lon="7.637066">
        <ele>536.707559</ele>
        <time>2021-11-20T17:56:27.407Z</time>
      </trkpt>
      <trkpt lat="47.431325" lon="7.638189">
        <ele>537.283634</ele>
        <time>2021-11-20T17:56:42.486Z</time>
      </trkpt>
      <trkpt lat="47.431434" lon="7.638831">
        <ele>537.467046</ele>
        <time>2021-11-20T17:56:50.338Z</time>
      </trkpt>
      <trkpt lat="47.431445" lon="7.638902">
        <ele>537.451828</ele>
        <time>2021-11-20T17:56:52.110Z</time>
      </trkpt>
      <trkpt lat="47.431759" lon="7.640615">
        <ele>537.081029</ele>
        <time>2021-11-20T17:57:07.916Z</time>
      </trkpt>
      <trkpt lat="47.431904" lon="7.641155">
        <ele>536.959646</ele>
        <time>2021-11-20T17:57:13.075Z</time>
      </trkpt>
      <trkpt lat="47.431932" lon="7.641220">
        <ele>536.940993</ele>
        <time>2021-11-20T17:57:13.565Z</time>
      </trkpt>
      <trkpt lat="47.432271" lon="7.641873">
        <ele>536.724888</ele>
        <time>2021-11-20T17:57:20.850Z</time>
      </trkpt>
      <trkpt lat="47.432454" lon="7.642387">
        <ele>536.572393</ele>
        <time>2021-11-20T17:57:25.986Z</time>
      </trkpt>
      <trkpt lat="47.432676" lon="7.643677">
        <ele>536.285510</ele>
        <time>2021-11-20T17:57:38.725Z</time>
      </trkpt>
      <trkpt lat="47.433179" lon="7.645231">
        <ele>536.704214</ele>
        <time>2021-11-20T17:57:58.196Z</time>
      </trkpt>
      <trkpt lat="47.433441" lon="7.646437">
        <ele>537.032722</ele>
        <time>2021-11-20T17:58:12.333Z</time>
      </trkpt>
      <trkpt lat="47.433991" lon="7.648329">
        <ele>537.626849</ele>
        <time>2021-11-20T17:58:35.687Z</time>
      </trkpt>
      <trkpt lat="47.434313" lon="7.649642">
        <ele>537.902609</ele>
        <time>2021-11-20T17:58:50.378Z</time>
      </trkpt>
      <trkpt lat="47.434393" lon="7.649974">
        <ele>537.968466</ele>
        <time>2021-11-20T17:58:54.110Z</time>
      </trkpt>
      <trkpt lat="47.434521" lon="7.650847">
        <ele>538.135386</ele>
        <time>2021-11-20T17:59:03.716Z</time>
      </trkpt>
      <trkpt lat="47.434561" lon="7.651598">
        <ele>538.495166</ele>
        <time>2021-11-20T17:59:12.158Z</time>
      </trkpt>
      <trkpt lat="47.434554" lon="7.651838">
        <ele>538.629040</ele>
        <time>2021-11-20T17:59:14.855Z</time>
      </trkpt>
      <trkpt lat="47.434545" lon="7.651951">
        <ele>538.692448</ele>
        <time>2021-11-20T17:59:16.235Z</time>
      </trkpt>
      <trkpt lat="47.434522" lon="7.652176">
        <ele>538.819262</ele>
        <time>2021-11-20T17:59:18.735Z</time>
      </trkpt>
      <trkpt lat="47.434475" lon="7.652704">
        <ele>539.116048</ele>
        <time>2021-11-20T17:59:25.150Z</time>
      </trkpt>
      <trkpt lat="47.434463" lon="7.652974">
        <ele>539.266841</ele>
        <time>2021-11-20T17:59:29.030Z</time>
      </trkpt>
      <trkpt lat="47.434461" lon="7.653222">
        <ele>539.405059</ele>
        <time>2021-11-20T17:59:32.079Z</time>
      </trkpt>
      <trkpt lat="47.434469" lon="7.653527">
        <ele>539.575160</ele>
        <time>2021-11-20T17:59:36.485Z</time>
      </trkpt>
      <trkpt lat="47.434636" lon="7.654926">
        <ele>541.185192</ele>
        <time>2021-11-20T17:59:55.821Z</time>
      </trkpt>
      <trkpt lat="47.434655" lon="7.655002">
        <ele>541.281715</ele>
        <time>2021-11-20T17:59:57.834Z</time>
      </trkpt>
      <trkpt lat="47.434684" lon="7.655121">
        <ele>541.432395</ele>
        <time>2021-11-20T17:59:59.637Z</time>
      </trkpt>
      <trkpt lat="47.434700" lon="7.655203">
        <ele>541.534062</ele>
        <time>2021-11-20T18:00:00.711Z</time>
      </trkpt>
      <trkpt lat="47.434724" lon="7.655366">
        <ele>541.732786</ele>
        <time>2021-11-20T18:00:02.791Z</time>
      </trkpt>
      <trkpt lat="47.434788" lon="7.655893">
        <ele>542.370623</ele>
        <time>2021-11-20T18:00:10.828Z</time>
      </trkpt>
      <trkpt lat="47.434874" lon="7.656543">
        <ele>543.296486</ele>
        <time>2021-11-20T18:00:21.992Z</time>
      </trkpt>
      <trkpt lat="47.434967" lon="7.656985">
        <ele>544.066991</ele>
        <time>2021-11-20T18:00:29.631Z</time>
      </trkpt>
      <trkpt lat="47.434972" lon="7.657027">
        <ele>544.137977</ele>
        <time>2021-11-20T18:00:30.591Z</time>
      </trkpt>
      <trkpt lat="47.434978" lon="7.657092">
        <ele>544.247175</ele>
        <time>2021-11-20T18:00:32.032Z</time>
      </trkpt>
      <trkpt lat="47.434926" lon="7.658284">
        <ele>546.235446</ele>
        <time>2021-11-20T18:00:51.206Z</time>
      </trkpt>
      <trkpt lat="47.434918" lon="7.658372">
        <ele>546.383244</ele>
        <time>2021-11-20T18:00:53.097Z</time>
      </trkpt>
      <trkpt lat="47.434888" lon="7.658482">
        <ele>546.580668</ele>
        <time>2021-11-20T18:00:55.277Z</time>
      </trkpt>
      <trkpt lat="47.434743" lon="7.658784">
        <ele>547.197127</ele>
        <time>2021-11-20T18:01:01.124Z</time>
      </trkpt>
      <trkpt lat="47.434694" lon="7.658816">
        <ele>547.347809</ele>
        <time>2021-11-20T18:01:03.032Z</time>
      </trkpt>
      <trkpt lat="47.434660" lon="7.658830">
        <ele>547.453338</ele>
        <time>2021-11-20T18:01:03.875Z</time>
      </trkpt>
      <trkpt lat="47.434278" lon="7.658890">
        <ele>548.601939</ele>
        <time>2021-11-20T18:01:13.581Z</time>
      </trkpt>
      <trkpt lat="47.434228" lon="7.658941">
        <ele>548.783569</ele>
        <time>2021-11-20T18:01:14.686Z</time>
      </trkpt>
      <trkpt lat="47.434200" lon="7.658986">
        <ele>548.907232</ele>
        <time>2021-11-20T18:01:15.567Z</time>
      </trkpt>
      <trkpt lat="47.434084" lon="7.659216">
        <ele>549.487483</ele>
        <time>2021-11-20T18:01:20.563Z</time>
      </trkpt>
      <trkpt lat="47.434021" lon="7.659378">
        <ele>549.865422</ele>
        <time>2021-11-20T18:01:23.900Z</time>
      </trkpt>
      <trkpt lat="47.433811" lon="7.660025">
        <ele>551.316852</ele>
        <time>2021-11-20T18:01:37.379Z</time>
      </trkpt>
      <trkpt lat="47.433783" lon="7.660107">
        <ele>551.502634</ele>
        <time>2021-11-20T18:01:39.563Z</time>
      </trkpt>
      <trkpt lat="47.433425" lon="7.661161">
        <ele>554.729682</ele>
        <time>2021-11-20T18:02:01.977Z</time>
      </trkpt>
      <trkpt lat="47.433375" lon="7.661263">
        <ele>555.153441</ele>
        <time>2021-11-20T18:02:04.649Z</time>
      </trkpt>
      <trkpt lat="47.433323" lon="7.661365">
        <ele>555.583112</ele>
        <time>2021-11-20T18:02:06.816Z</time>
      </trkpt>
      <trkpt lat="47.433245" lon="7.661519">
        <ele>556.230309</ele>
        <time>2021-11-20T18:02:11.363Z</time>
      </trkpt>
      <trkpt lat="47.433040" lon="7.661786">
        <ele>557.589039</ele>
        <time>2021-11-20T18:02:19.933Z</time>
      </trkpt>
      <trkpt lat="47.432812" lon="7.661916">
        <ele>558.804331</ele>
        <time>2021-11-20T18:02:29.375Z</time>
      </trkpt>
      <trkpt lat="47.431859" lon="7.662126">
        <ele>564.361027</ele>
        <time>2021-11-20T18:03:09.821Z</time>
      </trkpt>
      <trkpt lat="47.431423" lon="7.662273">
        <ele>567.422173</ele>
        <time>2021-11-20T18:03:27.894Z</time>
      </trkpt>
      <trkpt lat="47.431237" lon="7.662333">
        <ele>568.725341</ele>
        <time>2021-11-20T18:03:36.787Z</time>
      </trkpt>
      <trkpt lat="47.430248" lon="7.662388">
        <ele>574.803789</ele>
        <time>2021-11-20T18:04:19.476Z</time>
      </trkpt>
      <trkpt lat="47.429735" lon="7.662451">
        <ele>576.816718</ele>
        <time>2021-11-20T18:04:39.536Z</time>
      </trkpt>
      <trkpt lat="47.429321" lon="7.662502">
        <ele>578.441222</ele>
        <time>2021-11-20T18:04:51.944Z</time>
      </trkpt>
      <trkpt lat="47.427955" lon="7.662742">
        <ele>579.583544</ele>
        <time>2021-11-20T18:05:17.698Z</time>
      </trkpt>
      <trkpt lat="47.427132" lon="7.662811">
        <ele>578.115271</ele>
        <time>2021-11-20T18:05:25.966Z</time>
      </trkpt>
      <trkpt lat="47.425818" lon="7.663438">
        <ele>573.258200</ele>
        <time>2021-11-20T18:05:39.157Z</time>
      </trkpt>
      <trkpt lat="47.425650" lon="7.663587">
        <ele>572.501047</ele>
        <time>2021-11-20T18:05:41.028Z</time>
      </trkpt>
      <trkpt lat="47.425614" lon="7.663617">
        <ele>572.341335</ele>
        <time>2021-11-20T18:05:41.450Z</time>
      </trkpt>
      <trkpt lat="47.425596" lon="7.663633">
        <ele>572.260164</ele>
        <time>2021-11-20T18:05:41.899Z</time>
      </trkpt>
      <trkpt lat="47.425207" lon="7.663976">
        <ele>570.693798</ele>
        <time>2021-11-20T18:05:46.623Z</time>
      </trkpt>
      <trkpt lat="47.424925" lon="7.664067">
        <ele>570.416160</ele>
        <time>2021-11-20T18:05:49.730Z</time>
      </trkpt>
      <trkpt lat="47.424397" lon="7.664048">
        <ele>569.908140</ele>
        <time>2021-11-20T18:05:55.857Z</time>
      </trkpt>
      <trkpt lat="47.424319" lon="7.664045">
        <ele>569.833089</ele>
        <time>2021-11-20T18:05:56.718Z</time>
      </trkpt>
      <trkpt lat="47.424143" lon="7.664043">
        <ele>569.663794</ele>
        <time>2021-11-20T18:05:59.874Z</time>
      </trkpt>
      <trkpt lat="47.424082" lon="7.664042">
        <ele>569.605116</ele>
        <time>2021-11-20T18:06:00.632Z</time>
      </trkpt>
      <trkpt lat="47.423516" lon="7.664003">
        <ele>569.060104</ele>
        <time>2021-11-20T18:06:09.426Z</time>
      </trkpt>
      <trkpt lat="47.423461" lon="7.663981">
        <ele>569.043781</ele>
        <time>2021-11-20T18:06:10.677Z</time>
      </trkpt>
      <trkpt lat="47.423339" lon="7.663911">
        <ele>569.167054</ele>
        <time>2021-11-20T18:06:12.479Z</time>
      </trkpt>
      <trkpt lat="47.423150" lon="7.663794">
        <ele>569.360068</ele>
        <time>2021-11-20T18:06:15.765Z</time>
      </trkpt>
      <trkpt lat="47.422900" lon="7.663633">
        <ele>569.616940</ele>
        <time>2021-11-20T18:06:20.039Z</time>
      </trkpt>
      <trkpt lat="47.422849" lon="7.663600">
        <ele>569.669382</ele>
        <time>2021-11-20T18:06:20.803Z</time>
      </trkpt>
      <trkpt lat="47.422767" lon="7.663553">
        <ele>569.752227</ele>
        <time>2021-11-20T18:06:22.602Z</time>
      </trkpt>
      <trkpt lat="47.422716" lon="7.663529">
        <ele>569.802643</ele>
        <time>2021-11-20T18:06:23.279Z</time>
      </trkpt>
      <trkpt lat="47.422665" lon="7.663506">
        <ele>569.852869</ele>
        <time>2021-11-20T18:06:24.089Z</time>
      </trkpt>
      <trkpt lat="47.422602" lon="7.663494">
        <ele>569.912703</ele>
        <time>2021-11-20T18:06:25.133Z</time>
      </trkpt>
      <trkpt lat="47.422573" lon="7.663490">
        <ele>569.940138</ele>
        <time>2021-11-20T18:06:25.594Z</time>
      </trkpt>
      <trkpt lat="47.422472" lon="7.663483">
        <ele>570.035380</ele>
        <time>2021-11-20T18:06:27.262Z</time>
      </trkpt>
      <trkpt lat="47.422253" lon="7.663506">
        <ele>570.242189</ele>
        <time>2021-11-20T18:06:31.072Z</time>
      </trkpt>
      <trkpt lat="47.422093" lon="7.663554">
        <ele>570.395975</ele>
        <time>2021-11-20T18:06:34.007Z</time>
      </trkpt>
      <trkpt lat="47.421833" lon="7.663646">
        <ele>570.647804</ele>
        <time>2021-11-20T18:06:38.831Z</time>
      </trkpt>
      <trkpt lat="47.420627" lon="7.664074">
        <ele>577.257300</ele>
        <time>2021-11-20T18:07:17.166Z</time>
      </trkpt>
      <trkpt lat="47.419921" lon="7.664331">
        <ele>581.488162</ele>
        <time>2021-11-20T18:07:56.059Z</time>
      </trkpt>
      <trkpt lat="47.419643" lon="7.664425">
        <ele>583.545676</ele>
        <time>2021-11-20T18:08:08.854Z</time>
      </trkpt>
      <trkpt lat="47.419634" lon="7.664478">
        <ele>583.812427</ele>
        <time>2021-11-20T18:08:12.817Z</time>
      </trkpt>
      <trkpt lat="47.419396" lon="7.664801">
        <ele>586.143664</ele>
        <time>2021-11-20T18:08:25.933Z</time>
      </trkpt>
      <trkpt lat="47.419266" lon="7.665002">
        <ele>587.501039</ele>
        <time>2021-11-20T18:08:37.641Z</time>
      </trkpt>
      <trkpt lat="47.419196" lon="7.665142">
        <ele>588.350828</ele>
        <time>2021-11-20T18:08:41.253Z</time>
      </trkpt>
      <trkpt lat="47.418855" lon="7.665888">
        <ele>592.745715</ele>
        <time>2021-11-20T18:09:07.695Z</time>
      </trkpt>
      <trkpt lat="47.418627" lon="7.666418">
        <ele>593.910631</ele>
        <time>2021-11-20T18:09:21.895Z</time>
      </trkpt>
      <trkpt lat="47.418611" lon="7.666455">
        <ele>593.923158</ele>
        <time>2021-11-20T18:09:22.157Z</time>
      </trkpt>
      <trkpt lat="47.418303" lon="7.667476">
        <ele>594.242054</ele>
        <time>2021-11-20T18:09:31.925Z</time>
      </trkpt>
      <trkpt lat="47.418241" lon="7.667681">
        <ele>594.306111</ele>
        <time>2021-11-20T18:09:33.628Z</time>
      </trkpt>
      <trkpt lat="47.417870" lon="7.668841">
        <ele>594.975973</ele>
        <time>2021-11-20T18:09:43.825Z</time>
      </trkpt>
      <trkpt lat="47.417760" lon="7.669198">
        <ele>595.368472</ele>
        <time>2021-11-20T18:09:47.712Z</time>
      </trkpt>
      <trkpt lat="47.417497" lon="7.670003">
        <ele>596.262917</ele>
        <time>2021-11-20T18:10:01.805Z</time>
      </trkpt>
      <trkpt lat="47.417012" lon="7.671293">
        <ele>597.778465</ele>
        <time>2021-11-20T18:10:29.333Z</time>
      </trkpt>
      <trkpt lat="47.416895" lon="7.671624">
        <ele>598.179628</ele>
        <time>2021-11-20T18:10:35.775Z</time>
      </trkpt>
      <trkpt lat="47.416831" lon="7.671870">
        <ele>598.462750</ele>
        <time>2021-11-20T18:10:39.861Z</time>
      </trkpt>
      <trkpt lat="47.416672" lon="7.672526">
        <ele>599.211295</ele>
        <time>2021-11-20T18:10:48.640Z</time>
      </trkpt>
      <trkpt lat="47.416570" lon="7.673050">
        <ele>599.797027</ele>
        <time>2021-11-20T18:10:54.899Z</time>
      </trkpt>
      <trkpt lat="47.416452" lon="7.673625">
        <ele>600.483253</ele>
        <time>2021-11-20T18:11:01.326Z</time>
      </trkpt>
      <trkpt lat="47.416296" lon="7.674658">
        <ele>601.743363</ele>
        <time>2021-11-20T18:11:12.398Z</time>
      </trkpt>
      <trkpt lat="47.416266" lon="7.674888">
        <ele>602.022234</ele>
        <time>2021-11-20T18:11:14.742Z</time>
      </trkpt>
      <trkpt lat="47.416245" lon="7.675042">
        <ele>602.209268</ele>
        <time>2021-11-20T18:11:18.398Z</time>
      </trkpt>
      <trkpt lat="47.416209" lon="7.675715">
        <ele>603.013020</ele>
        <time>2021-11-20T18:11:30.183Z</time>
      </trkpt>
      <trkpt lat="47.416268" lon="7.676434">
        <ele>605.709726</ele>
        <time>2021-11-20T18:11:46.326Z</time>
      </trkpt>
      <trkpt lat="47.416280" lon="7.676561">
        <ele>606.296898</ele>
        <time>2021-11-20T18:11:50.631Z</time>
      </trkpt>
      <trkpt lat="47.416423" lon="7.677757">
        <ele>611.858183</ele>
        <time>2021-11-20T18:12:29.704Z</time>
      </trkpt>
      <trkpt lat="47.416671" lon="7.678721">
        <ele>615.344464</ele>
        <time>2021-11-20T18:13:02.845Z</time>
      </trkpt>
      <trkpt lat="47.416956" lon="7.679751">
        <ele>615.095232</ele>
        <time>2021-11-20T18:13:25.854Z</time>
      </trkpt>
      <trkpt lat="47.417122" lon="7.680430">
        <ele>614.933534</ele>
        <time>2021-11-20T18:13:30.787Z</time>
      </trkpt>
      <trkpt lat="47.417419" lon="7.681674">
        <ele>607.172682</ele>
        <time>2021-11-20T18:13:38.604Z</time>
      </trkpt>
      <trkpt lat="47.417536" lon="7.682130">
        <ele>602.229420</ele>
        <time>2021-11-20T18:13:41.337Z</time>
      </trkpt>
      <trkpt lat="47.417831" lon="7.683207">
        <ele>590.452220</ele>
        <time>2021-11-20T18:13:47.797Z</time>
      </trkpt>
      <trkpt lat="47.418122" lon="7.684530">
        <ele>573.436858</ele>
        <time>2021-11-20T18:13:55.495Z</time>
      </trkpt>
      <trkpt lat="47.418224" lon="7.684834">
        <ele>569.126662</ele>
        <time>2021-11-20T18:13:57.378Z</time>
      </trkpt>
      <trkpt lat="47.418585" lon="7.685419">
        <ele>559.069622</ele>
        <time>2021-11-20T18:14:01.772Z</time>
      </trkpt>
      <trkpt lat="47.418745" lon="7.685840">
        <ele>553.100534</ele>
        <time>2021-11-20T18:14:04.455Z</time>
      </trkpt>
      <trkpt lat="47.418815" lon="7.686186">
        <ele>549.162294</ele>
        <time>2021-11-20T18:14:06.472Z</time>
      </trkpt>
      <trkpt lat="47.419003" lon="7.687403">
        <ele>535.549252</ele>
        <time>2021-11-20T18:14:13.456Z</time>
      </trkpt>
      <trkpt lat="47.419067" lon="7.687847">
        <ele>530.598731</ele>
        <time>2021-11-20T18:14:15.995Z</time>
      </trkpt>
      <trkpt lat="47.419162" lon="7.688661">
        <ele>522.200350</ele>
        <time>2021-11-20T18:14:20.651Z</time>
      </trkpt>
      <trkpt lat="47.419239" lon="7.688933">
        <ele>519.541944</ele>
        <time>2021-11-20T18:14:22.313Z</time>
      </trkpt>
      <trkpt lat="47.419320" lon="7.689282">
        <ele>516.215312</ele>
        <time>2021-11-20T18:14:24.397Z</time>
      </trkpt>
      <trkpt lat="47.419818" lon="7.690447">
        <ele>503.790861</ele>
        <time>2021-11-20T18:14:32.241Z</time>
      </trkpt>
      <trkpt lat="47.420068" lon="7.690857">
        <ele>499.382543</ele>
        <time>2021-11-20T18:14:35.379Z</time>
      </trkpt>
      <trkpt lat="47.420420" lon="7.691053">
        <ele>495.593154</ele>
        <time>2021-11-20T18:14:38.585Z</time>
      </trkpt>
      <trkpt lat="47.420520" lon="7.691185">
        <ele>494.242449</ele>
        <time>2021-11-20T18:14:39.746Z</time>
      </trkpt>
      <trkpt lat="47.420795" lon="7.691860">
        <ele>488.871824</ele>
        <time>2021-11-20T18:14:44.349Z</time>
      </trkpt>
      <trkpt lat="47.421097" lon="7.692251">
        <ele>484.827213</ele>
        <time>2021-11-20T18:14:47.837Z</time>
      </trkpt>
      <trkpt lat="47.421634" lon="7.692689">
        <ele>480.006435</ele>
        <time>2021-11-20T18:14:53.245Z</time>
      </trkpt>
      <trkpt lat="47.421819" lon="7.692972">
        <ele>478.157002</ele>
        <time>2021-11-20T18:14:55.611Z</time>
      </trkpt>
      <trkpt lat="47.421947" lon="7.693272">
        <ele>476.490128</ele>
        <time>2021-11-20T18:14:57.761Z</time>
      </trkpt>
      <trkpt lat="47.422114" lon="7.693937">
        <ele>473.156431</ele>
        <time>2021-11-20T18:15:02.108Z</time>
      </trkpt>
      <trkpt lat="47.422396" lon="7.694536">
        <ele>470.059057</ele>
        <time>2021-11-20T18:15:06.675Z</time>
      </trkpt>
      <trkpt lat="47.423013" lon="7.694976">
        <ele>467.272054</ele>
        <time>2021-11-20T18:15:13.260Z</time>
      </trkpt>
      <trkpt lat="47.423449" lon="7.695467">
        <ele>465.042109</ele>
        <time>2021-11-20T18:15:18.732Z</time>
      </trkpt>
      <trkpt lat="47.423762" lon="7.695632">
        <ele>463.690185</ele>
        <time>2021-11-20T18:15:22.157Z</time>
      </trkpt>
      <trkpt lat="47.424016" lon="7.695878">
        <ele>462.406829</ele>
        <time>2021-11-20T18:15:25.354Z</time>
      </trkpt>
      <trkpt lat="47.424900" lon="7.697003">
        <ele>457.360412</ele>
        <time>2021-11-20T18:15:36.622Z</time>
      </trkpt>
      <trkpt lat="47.425158" lon="7.697261">
        <ele>456.012855</ele>
        <time>2021-11-20T18:15:39.539Z</time>
      </trkpt>
      <trkpt lat="47.425339" lon="7.697456">
        <ele>454.984280</ele>
        <time>2021-11-20T18:15:41.608Z</time>
      </trkpt>
      <trkpt lat="47.425557" lon="7.697758">
        <ele>453.492277</ele>
        <time>2021-11-20T18:15:44.392Z</time>
      </trkpt>
      <trkpt lat="47.425781" lon="7.698040">
        <ele>452.022964</ele>
        <time>2021-11-20T18:15:47.148Z</time>
      </trkpt>
      <trkpt lat="47.425893" lon="7.698191">
        <ele>451.265965</ele>
        <time>2021-11-20T18:15:48.575Z</time>
      </trkpt>
      <trkpt lat="47.425884" lon="7.698248">
        <ele>451.068221</ele>
        <time>2021-11-20T18:15:48.928Z</time>
      </trkpt>
      <trkpt lat="47.425872" lon="7.698326">
        <ele>450.797977</ele>
        <time>2021-11-20T18:15:49.469Z</time>
      </trkpt>
      <trkpt lat="47.426150" lon="7.698478">
        <ele>449.317811</ele>
        <time>2021-11-20T18:15:52.205Z</time>
      </trkpt>
      <trkpt lat="47.426300" lon="7.698599">
        <ele>448.464479</ele>
        <time>2021-11-20T18:15:53.809Z</time>
      </trkpt>
      <trkpt lat="47.426380" lon="7.698755">
        <ele>447.803153</ele>
        <time>2021-11-20T18:15:55.046Z</time>
      </trkpt>
      <trkpt lat="47.426486" lon="7.699326">
        <ele>446.123091</ele>
        <time>2021-11-20T18:15:58.881Z</time>
      </trkpt>
      <trkpt lat="47.426614" lon="7.699686">
        <ele>445.430557</ele>
        <time>2021-11-20T18:16:01.708Z</time>
      </trkpt>
      <trkpt lat="47.426785" lon="7.699970">
        <ele>444.783153</ele>
        <time>2021-11-20T18:16:04.360Z</time>
      </trkpt>
      <trkpt lat="47.426839" lon="7.700045">
        <ele>444.596646</ele>
        <time>2021-11-20T18:16:05.220Z</time>
      </trkpt>
      <trkpt lat="47.427025" lon="7.700228">
        <ele>444.034251</ele>
        <time>2021-11-20T18:16:07.616Z</time>
      </trkpt>
      <trkpt lat="47.427200" lon="7.700373">
        <ele>443.529288</ele>
        <time>2021-11-20T18:16:10.098Z</time>
      </trkpt>
      <trkpt lat="47.427453" lon="7.700575">
        <ele>442.805520</ele>
        <time>2021-11-20T18:16:13.402Z</time>
      </trkpt>
      <trkpt lat="47.427610" lon="7.700727">
        <ele>442.333128</ele>
        <time>2021-11-20T18:16:15.504Z</time>
      </trkpt>
      <trkpt lat="47.427876" lon="7.701155">
        <ele>441.403171</ele>
        <time>2021-11-20T18:16:19.779Z</time>
      </trkpt>
      <trkpt lat="47.428025" lon="7.701397">
        <ele>440.903541</ele>
        <time>2021-11-20T18:16:22.278Z</time>
      </trkpt>
      <trkpt lat="47.428127" lon="7.701544">
        <ele>440.582017</ele>
        <time>2021-11-20T18:16:23.751Z</time>
      </trkpt>
      <trkpt lat="47.428395" lon="7.701911">
        <ele>439.757464</ele>
        <time>2021-11-20T18:16:27.576Z</time>
      </trkpt>
      <trkpt lat="47.428616" lon="7.702184">
        <ele>439.107424</ele>
        <time>2021-11-20T18:16:30.722Z</time>
      </trkpt>
      <trkpt lat="47.428931" lon="7.702542">
        <ele>438.210624</ele>
        <time>2021-11-20T18:16:34.994Z</time>
      </trkpt>
      <trkpt lat="47.429066" lon="7.702651">
        <ele>437.863439</ele>
        <time>2021-11-20T18:16:36.640Z</time>
      </trkpt>
      <trkpt lat="47.429518" lon="7.702735">
        <ele>436.455951</ele>
        <time>2021-11-20T18:16:41.501Z</time>
      </trkpt>
      <trkpt lat="47.429638" lon="7.702791">
        <ele>436.067001</ele>
        <time>2021-11-20T18:16:42.777Z</time>
      </trkpt>
      <trkpt lat="47.429706" lon="7.702845">
        <ele>435.828412</ele>
        <time>2021-11-20T18:16:43.574Z</time>
      </trkpt>
      <trkpt lat="47.429875" lon="7.703034">
        <ele>435.173405</ele>
        <time>2021-11-20T18:16:45.692Z</time>
      </trkpt>
      <trkpt lat="47.430055" lon="7.703420">
        <ele>434.193120</ele>
        <time>2021-11-20T18:16:48.925Z</time>
      </trkpt>
      <trkpt lat="47.430104" lon="7.703542">
        <ele>433.896452</ele>
        <time>2021-11-20T18:16:49.872Z</time>
      </trkpt>
      <trkpt lat="47.430128" lon="7.703597">
        <ele>433.759601</ele>
        <time>2021-11-20T18:16:50.305Z</time>
      </trkpt>
      <trkpt lat="47.430196" lon="7.703773">
        <ele>433.335803</ele>
        <time>2021-11-20T18:16:51.663Z</time>
      </trkpt>
      <trkpt lat="47.430561" lon="7.704385">
        <ele>431.661065</ele>
        <time>2021-11-20T18:16:57.151Z</time>
      </trkpt>
      <trkpt lat="47.430706" lon="7.704567">
        <ele>431.100406</ele>
        <time>2021-11-20T18:16:59.014Z</time>
      </trkpt>
      <trkpt lat="47.430768" lon="7.704645">
        <ele>430.860444</ele>
        <time>2021-11-20T18:16:59.829Z</time>
      </trkpt>
      <trkpt lat="47.431152" lon="7.704943">
        <ele>429.582147</ele>
        <time>2021-11-20T18:17:04.371Z</time>
      </trkpt>
      <trkpt lat="47.431237" lon="7.705015">
        <ele>429.293400</ele>
        <time>2021-11-20T18:17:05.422Z</time>
      </trkpt>
      <trkpt lat="47.431286" lon="7.705056">
        <ele>429.127445</ele>
        <time>2021-11-20T18:17:05.951Z</time>
      </trkpt>
      <trkpt lat="47.431446" lon="7.705407">
        <ele>428.283539</ele>
        <time>2021-11-20T18:17:09.036Z</time>
      </trkpt>
      <trkpt lat="47.431456" lon="7.705511">
        <ele>428.074094</ele>
        <time>2021-11-20T18:17:09.744Z</time>
      </trkpt>
      <trkpt lat="47.431448" lon="7.705624">
        <ele>427.847558</ele>
        <time>2021-11-20T18:17:10.525Z</time>
      </trkpt>
      <trkpt lat="47.431295" lon="7.706190">
        <ele>426.754720</ele>
        <time>2021-11-20T18:17:14.860Z</time>
      </trkpt>
      <trkpt lat="47.431256" lon="7.706292">
        <ele>426.598671</ele>
        <time>2021-11-20T18:17:15.731Z</time>
      </trkpt>
      <trkpt lat="47.431180" lon="7.706427">
        <ele>426.364751</ele>
        <time>2021-11-20T18:17:17.000Z</time>
      </trkpt>
      <trkpt lat="47.431059" lon="7.706618">
        <ele>426.016230</ele>
        <time>2021-11-20T18:17:18.847Z</time>
      </trkpt>
      <trkpt lat="47.431007" lon="7.706752">
        <ele>425.810479</ele>
        <time>2021-11-20T18:17:20.016Z</time>
      </trkpt>
      <trkpt lat="47.430982" lon="7.706822">
        <ele>425.705052</ele>
        <time>2021-11-20T18:17:20.589Z</time>
      </trkpt>
      <trkpt lat="47.430965" lon="7.706914">
        <ele>425.578031</ele>
        <time>2021-11-20T18:17:21.218Z</time>
      </trkpt>
      <trkpt lat="47.430932" lon="7.707381">
        <ele>424.952660</ele>
        <time>2021-11-20T18:17:24.945Z</time>
      </trkpt>
      <trkpt lat="47.430993" lon="7.708159">
        <ele>423.909523</ele>
        <time>2021-11-20T18:17:31.222Z</time>
      </trkpt>
      <trkpt lat="47.431014" lon="7.708349">
        <ele>423.653111</ele>
        <time>2021-11-20T18:17:32.545Z</time>
      </trkpt>
      <trkpt lat="47.431069" lon="7.708486">
        <ele>423.436997</ele>
        <time>2021-11-20T18:17:33.881Z</time>
      </trkpt>
      <trkpt lat="47.431129" lon="7.708615">
        <ele>423.185110</ele>
        <time>2021-11-20T18:17:35.309Z</time>
      </trkpt>
      <trkpt lat="47.431145" lon="7.708642">
        <ele>423.127356</ele>
        <time>2021-11-20T18:17:35.548Z</time>
      </trkpt>
      <trkpt lat="47.431218" lon="7.708768">
        <ele>422.860433</ele>
        <time>2021-11-20T18:17:36.693Z</time>
      </trkpt>
      <trkpt lat="47.431395" lon="7.709100">
        <ele>422.180295</ele>
        <time>2021-11-20T18:17:39.896Z</time>
      </trkpt>
      <trkpt lat="47.431436" lon="7.709183">
        <ele>422.014935</ele>
        <time>2021-11-20T18:17:40.567Z</time>
      </trkpt>
      <trkpt lat="47.431436" lon="7.709183">
        <ele>422.014935</ele>
        <time>2021-11-20T18:17:40.568Z</time>
      </trkpt>
      <trkpt lat="47.431483" lon="7.709323">
        <ele>421.763463</ele>
        <time>2021-11-20T18:17:41.785Z</time>
      </trkpt>
      <trkpt lat="47.431600" lon="7.709867">
        <ele>420.845005</ele>
        <time>2021-11-20T18:17:45.771Z</time>
      </trkpt>
      <trkpt lat="47.431651" lon="7.710071">
        <ele>420.495077</ele>
        <time>2021-11-20T18:17:47.346Z</time>
      </trkpt>
      <trkpt lat="47.431662" lon="7.710114">
        <ele>420.421109</ele>
        <time>2021-11-20T18:17:47.611Z</time>
      </trkpt>
      <trkpt lat="47.432119" lon="7.711341">
        <ele>418.365565</ele>
        <time>2021-11-20T18:17:57.849Z</time>
      </trkpt>
      <trkpt lat="47.432229" lon="7.711639">
        <ele>417.926041</ele>
        <time>2021-11-20T18:18:00.215Z</time>
      </trkpt>
      <trkpt lat="47.432749" lon="7.713189">
        <ele>415.711961</ele>
        <time>2021-11-20T18:18:13.517Z</time>
      </trkpt>
      <trkpt lat="47.432995" lon="7.713939">
        <ele>415.158077</ele>
        <time>2021-11-20T18:18:20.176Z</time>
      </trkpt>
      <trkpt lat="47.433065" lon="7.714138">
        <ele>415.009029</ele>
        <time>2021-11-20T18:18:22.060Z</time>
      </trkpt>
      <trkpt lat="47.433737" lon="7.716123">
        <ele>414.468052</ele>
        <time>2021-11-20T18:18:40.746Z</time>
      </trkpt>
      <trkpt lat="47.434523" lon="7.718469">
        <ele>416.981600</ele>
        <time>2021-11-20T18:19:19.720Z</time>
      </trkpt>
      <trkpt lat="47.434530" lon="7.718491">
        <ele>417.021348</ele>
        <time>2021-11-20T18:19:20.815Z</time>
      </trkpt>
      <trkpt lat="47.434654" lon="7.718874">
        <ele>417.715530</ele>
        <time>2021-11-20T18:19:28.382Z</time>
      </trkpt>
      <trkpt lat="47.434848" lon="7.719466">
        <ele>418.790967</ele>
        <time>2021-11-20T18:19:41.262Z</time>
      </trkpt>
      <trkpt lat="47.435127" lon="7.720293">
        <ele>420.301823</ele>
        <time>2021-11-20T18:19:56.330Z</time>
      </trkpt>
      <trkpt lat="47.435175" lon="7.720447">
        <ele>420.134761</ele>
        <time>2021-11-20T18:19:59.605Z</time>
      </trkpt>
      <trkpt lat="47.435558" lon="7.721586">
        <ele>418.686006</ele>
        <time>2021-11-20T18:20:12.100Z</time>
      </trkpt>
      <trkpt lat="47.436765" lon="7.725173">
        <ele>409.690875</ele>
        <time>2021-11-20T18:20:38.106Z</time>
      </trkpt>
      <trkpt lat="47.437033" lon="7.725956">
        <ele>409.301268</ele>
        <time>2021-11-20T18:20:44.664Z</time>
      </trkpt>
      <trkpt lat="47.437077" lon="7.726084">
        <ele>409.237522</ele>
        <time>2021-11-20T18:20:45.685Z</time>
      </trkpt>
      <trkpt lat="47.437210" lon="7.726504">
        <ele>409.031629</ele>
        <time>2021-11-20T18:20:50.100Z</time>
      </trkpt>
      <trkpt lat="47.437247" lon="7.726609">
        <ele>408.979065</ele>
        <time>2021-11-20T18:20:51.331Z</time>
      </trkpt>
      <trkpt lat="47.437291" lon="7.726736">
        <ele>408.915714</ele>
        <time>2021-11-20T18:20:53.936Z</time>
      </trkpt>
      <trkpt lat="47.437400" lon="7.726969">
        <ele>408.789938</ele>
        <time>2021-11-20T18:20:58.325Z</time>
      </trkpt>
      <trkpt lat="47.437559" lon="7.727278">
        <ele>408.617566</ele>
        <time>2021-11-20T18:21:04.516Z</time>
      </trkpt>
      <trkpt lat="47.438029" lon="7.727947">
        <ele>408.055220</ele>
        <time>2021-11-20T18:21:16.483Z</time>
      </trkpt>
      <trkpt lat="47.438277" lon="7.728199">
        <ele>407.786941</ele>
        <time>2021-11-20T18:21:21.813Z</time>
      </trkpt>
      <trkpt lat="47.438420" lon="7.728330">
        <ele>407.636966</ele>
        <time>2021-11-20T18:21:26.447Z</time>
      </trkpt>
      <trkpt lat="47.438996" lon="7.728816">
        <ele>407.045719</ele>
        <time>2021-11-20T18:21:33.740Z</time>
      </trkpt>
      <trkpt lat="47.440046" lon="7.729716">
        <ele>399.499089</ele>
        <time>2021-11-20T18:21:44.546Z</time>
      </trkpt>
      <trkpt lat="47.440436" lon="7.730051">
        <ele>396.488355</ele>
        <time>2021-11-20T18:21:48.515Z</time>
      </trkpt>
      <trkpt lat="47.440666" lon="7.730243">
        <ele>394.814072</ele>
        <time>2021-11-20T18:21:50.927Z</time>
      </trkpt>
      <trkpt lat="47.441594" lon="7.731080">
        <ele>390.373348</ele>
        <time>2021-11-20T18:22:01.149Z</time>
      </trkpt>
      <trkpt lat="47.441706" lon="7.731181">
        <ele>389.837425</ele>
        <time>2021-11-20T18:22:02.541Z</time>
      </trkpt>
      <trkpt lat="47.442994" lon="7.732397">
        <ele>385.744378</ele>
        <time>2021-11-20T18:22:20.002Z</time>
      </trkpt>
      <trkpt lat="47.443020" lon="7.732425">
        <ele>385.683390</ele>
        <time>2021-11-20T18:22:20.270Z</time>
      </trkpt>
      <trkpt lat="47.443230" lon="7.732639">
        <ele>385.199810</ele>
        <time>2021-11-20T18:22:23.416Z</time>
      </trkpt>
      <trkpt lat="47.443386" lon="7.732819">
        <ele>384.824619</ele>
        <time>2021-11-20T18:22:25.486Z</time>
      </trkpt>
      <trkpt lat="47.443761" lon="7.733253">
        <ele>383.897464</ele>
        <time>2021-11-20T18:22:30.761Z</time>
      </trkpt>
      <trkpt lat="47.443863" lon="7.733374">
        <ele>383.627625</ele>
        <time>2021-11-20T18:22:32.154Z</time>
      </trkpt>
      <trkpt lat="47.443910" lon="7.733430">
        <ele>383.503073</ele>
        <time>2021-11-20T18:22:32.736Z</time>
      </trkpt>
      <trkpt lat="47.444242" lon="7.733828">
        <ele>382.621132</ele>
        <time>2021-11-20T18:22:37.369Z</time>
      </trkpt>
      <trkpt lat="47.444384" lon="7.733998">
        <ele>382.244118</ele>
        <time>2021-11-20T18:22:39.408Z</time>
      </trkpt>
      <trkpt lat="47.444690" lon="7.734364">
        <ele>381.431977</ele>
        <time>2021-11-20T18:22:43.838Z</time>
      </trkpt>
      <trkpt lat="47.444778" lon="7.734464">
        <ele>381.202962</ele>
        <time>2021-11-20T18:22:45.127Z</time>
      </trkpt>
      <trkpt lat="47.444952" lon="7.734628">
        <ele>380.777179</ele>
        <time>2021-11-20T18:22:47.330Z</time>
      </trkpt>
      <trkpt lat="47.445206" lon="7.734772">
        <ele>380.201484</ele>
        <time>2021-11-20T18:22:50.263Z</time>
      </trkpt>
      <trkpt lat="47.445351" lon="7.734812">
        <ele>379.880845</ele>
        <time>2021-11-20T18:22:51.801Z</time>
      </trkpt>
      <trkpt lat="47.445493" lon="7.734890">
        <ele>379.551555</ele>
        <time>2021-11-20T18:22:53.458Z</time>
      </trkpt>
      <trkpt lat="47.445550" lon="7.734931">
        <ele>379.413765</ele>
        <time>2021-11-20T18:22:54.141Z</time>
      </trkpt>
      <trkpt lat="47.445610" lon="7.734982">
        <ele>379.263323</ele>
        <time>2021-11-20T18:22:54.855Z</time>
      </trkpt>
      <trkpt lat="47.445804" lon="7.735171">
        <ele>378.758302</ele>
        <time>2021-11-20T18:22:57.377Z</time>
      </trkpt>
      <trkpt lat="47.446093" lon="7.735404">
        <ele>378.042759</ele>
        <time>2021-11-20T18:23:00.915Z</time>
      </trkpt>
      <trkpt lat="47.446470" lon="7.735676">
        <ele>377.130888</ele>
        <time>2021-11-20T18:23:05.457Z</time>
      </trkpt>
      <trkpt lat="47.447048" lon="7.735793">
        <ele>375.962490</ele>
        <time>2021-11-20T18:23:11.931Z</time>
      </trkpt>
      <trkpt lat="47.447629" lon="7.735983">
        <ele>374.850259</ele>
        <time>2021-11-20T18:23:18.509Z</time>
      </trkpt>
      <trkpt lat="47.447927" lon="7.736077">
        <ele>374.280712</ele>
        <time>2021-11-20T18:23:21.886Z</time>
      </trkpt>
      <trkpt lat="47.448235" lon="7.736115">
        <ele>373.703005</ele>
        <time>2021-11-20T18:23:25.402Z</time>
      </trkpt>
      <trkpt lat="47.448379" lon="7.736094">
        <ele>373.432538</ele>
        <time>2021-11-20T18:23:26.918Z</time>
      </trkpt>
      <trkpt lat="47.448554" lon="7.736059">
        <ele>373.120643</ele>
        <time>2021-11-20T18:23:29.054Z</time>
      </trkpt>
      <trkpt lat="47.448658" lon="7.736045">
        <ele>372.957638</ele>
        <time>2021-11-20T18:23:30.146Z</time>
      </trkpt>
      <trkpt lat="47.448771" lon="7.736054">
        <ele>372.781000</ele>
        <time>2021-11-20T18:23:31.407Z</time>
      </trkpt>
      <trkpt lat="47.448896" lon="7.736079">
        <ele>372.584110</ele>
        <time>2021-11-20T18:23:32.950Z</time>
      </trkpt>
      <trkpt lat="47.449072" lon="7.736131">
        <ele>372.303961</ele>
        <time>2021-11-20T18:23:34.868Z</time>
      </trkpt>
      <trkpt lat="47.449300" lon="7.736166">
        <ele>371.946162</ele>
        <time>2021-11-20T18:23:37.760Z</time>
      </trkpt>
      <trkpt lat="47.449358" lon="7.736158">
        <ele>371.855237</ele>
        <time>2021-11-20T18:23:38.373Z</time>
      </trkpt>
      <trkpt lat="47.449411" lon="7.736143">
        <ele>371.771007</ele>
        <time>2021-11-20T18:23:38.921Z</time>
      </trkpt>
      <trkpt lat="47.449636" lon="7.736014">
        <ele>371.394331</ele>
        <time>2021-11-20T18:23:41.982Z</time>
      </trkpt>
      <trkpt lat="47.449876" lon="7.735764">
        <ele>370.936102</ele>
        <time>2021-11-20T18:23:45.314Z</time>
      </trkpt>
      <trkpt lat="47.449999" lon="7.735674">
        <ele>370.721893</ele>
        <time>2021-11-20T18:23:46.837Z</time>
      </trkpt>
      <trkpt lat="47.450032" lon="7.735659">
        <ele>370.668005</ele>
        <time>2021-11-20T18:23:47.189Z</time>
      </trkpt>
      <trkpt lat="47.450096" lon="7.735633">
        <ele>370.564405</ele>
        <time>2021-11-20T18:23:47.929Z</time>
      </trkpt>
      <trkpt lat="47.450162" lon="7.735630">
        <ele>370.461337</ele>
        <time>2021-11-20T18:23:48.757Z</time>
      </trkpt>
      <trkpt lat="47.450235" lon="7.735644">
        <ele>370.355967</ele>
        <time>2021-11-20T18:23:49.641Z</time>
      </trkpt>
      <trkpt lat="47.450479" lon="7.735840">
        <ele>369.992799</ele>
        <time>2021-11-20T18:23:52.782Z</time>
      </trkpt>
      <trkpt lat="47.450546" lon="7.735968">
        <ele>369.849639</ele>
        <time>2021-11-20T18:23:54.145Z</time>
      </trkpt>
      <trkpt lat="47.450604" lon="7.736062">
        <ele>369.737096</ele>
        <time>2021-11-20T18:23:55.130Z</time>
      </trkpt>
      <trkpt lat="47.450657" lon="7.736137">
        <ele>369.641153</ele>
        <time>2021-11-20T18:23:55.905Z</time>
      </trkpt>
      <trkpt lat="47.450802" lon="7.736283">
        <ele>369.411722</ele>
        <time>2021-11-20T18:23:58.059Z</time>
      </trkpt>
      <trkpt lat="47.450937" lon="7.736418">
        <ele>369.198576</ele>
        <time>2021-11-20T18:24:00.134Z</time>
      </trkpt>
      <trkpt lat="47.451089" lon="7.736610">
        <ele>368.937126</ele>
        <time>2021-11-20T18:24:02.489Z</time>
      </trkpt>
      <trkpt lat="47.451187" lon="7.736763">
        <ele>368.750742</ele>
        <time>2021-11-20T18:24:04.255Z</time>
      </trkpt>
      <trkpt lat="47.451252" lon="7.736833">
        <ele>368.645576</ele>
        <time>2021-11-20T18:24:05.173Z</time>
      </trkpt>
      <trkpt lat="47.451333" lon="7.736889">
        <ele>368.528631</ele>
        <time>2021-11-20T18:24:06.217Z</time>
      </trkpt>
      <trkpt lat="47.451595" lon="7.736972">
        <ele>368.178189</ele>
        <time>2021-11-20T18:24:09.421Z</time>
      </trkpt>
      <trkpt lat="47.451812" lon="7.737022">
        <ele>367.858121</ele>
        <time>2021-11-20T18:24:12.013Z</time>
      </trkpt>
      <trkpt lat="47.451885" lon="7.737043">
        <ele>367.741125</ele>
        <time>2021-11-20T18:24:12.908Z</time>
      </trkpt>
      <trkpt lat="47.452015" lon="7.736899">
        <ele>367.485599</ele>
        <time>2021-11-20T18:24:14.731Z</time>
      </trkpt>
      <trkpt lat="47.452271" lon="7.736620">
        <ele>366.985309</ele>
        <time>2021-11-20T18:24:18.423Z</time>
      </trkpt>
      <trkpt lat="47.452433" lon="7.736548">
        <ele>366.719190</ele>
        <time>2021-11-20T18:24:20.379Z</time>
      </trkpt>
      <trkpt lat="47.452718" lon="7.736396">
        <ele>366.242562</ele>
        <time>2021-11-20T18:24:23.800Z</time>
      </trkpt>
      <trkpt lat="47.453006" lon="7.736239">
        <ele>365.759678</ele>
        <time>2021-11-20T18:24:27.273Z</time>
      </trkpt>
      <trkpt lat="47.453622" lon="7.735950">
        <ele>364.683231</ele>
        <time>2021-11-20T18:24:34.457Z</time>
      </trkpt>
      <trkpt lat="47.453883" lon="7.735834">
        <ele>364.201127</ele>
        <time>2021-11-20T18:24:37.458Z</time>
      </trkpt>
      <trkpt lat="47.454308" lon="7.735755">
        <ele>363.443392</ele>
        <time>2021-11-20T18:24:42.193Z</time>
      </trkpt>
      <trkpt lat="47.454885" lon="7.735630">
        <ele>362.411795</ele>
        <time>2021-11-20T18:24:48.748Z</time>
      </trkpt>
      <trkpt lat="47.455429" lon="7.735582">
        <ele>361.504579</ele>
        <time>2021-11-20T18:24:55.111Z</time>
      </trkpt>
      <trkpt lat="47.455549" lon="7.735588">
        <ele>361.312510</ele>
        <time>2021-11-20T18:24:56.520Z</time>
      </trkpt>
      <trkpt lat="47.455615" lon="7.735594">
        <ele>361.206733</ele>
        <time>2021-11-20T18:24:57.333Z</time>
      </trkpt>
      <trkpt lat="47.456176" lon="7.735679">
        <ele>360.304628</ele>
        <time>2021-11-20T18:25:03.737Z</time>
      </trkpt>
      <trkpt lat="47.456690" lon="7.735740">
        <ele>359.479760</ele>
        <time>2021-11-20T18:25:09.534Z</time>
      </trkpt>
      <trkpt lat="47.457063" lon="7.735820">
        <ele>358.822518</ele>
        <time>2021-11-20T18:25:13.788Z</time>
      </trkpt>
      <trkpt lat="47.457484" lon="7.735879">
        <ele>358.018142</ele>
        <time>2021-11-20T18:25:18.508Z</time>
      </trkpt>
      <trkpt lat="47.457758" lon="7.735918">
        <ele>357.494555</ele>
        <time>2021-11-20T18:25:21.550Z</time>
      </trkpt>
      <trkpt lat="47.457799" lon="7.735179">
        <ele>356.540947</ele>
        <time>2021-11-20T18:25:27.131Z</time>
      </trkpt>
      <trkpt lat="47.458298" lon="7.735177">
        <ele>355.605655</ele>
        <time>2021-11-20T18:25:32.516Z</time>
      </trkpt>
      <trkpt lat="47.458729" lon="7.735136">
        <ele>354.859496</ele>
        <time>2021-11-20T18:25:37.292Z</time>
      </trkpt>
      <trkpt lat="47.459171" lon="7.734384">
        <ele>353.695568</ele>
        <time>2021-11-20T18:25:45.043Z</time>
      </trkpt>
      <trkpt lat="47.459314" lon="7.734184">
        <ele>353.355547</ele>
        <time>2021-11-20T18:25:47.243Z</time>
      </trkpt>
      <trkpt lat="47.459335" lon="7.734155">
        <ele>353.305911</ele>
        <time>2021-11-20T18:25:47.562Z</time>
      </trkpt>
      <trkpt lat="47.459375" lon="7.734098">
        <ele>353.209949</ele>
        <time>2021-11-20T18:25:48.187Z</time>
      </trkpt>
      <trkpt lat="47.459533" lon="7.733882">
        <ele>352.838234</ele>
        <time>2021-11-20T18:25:50.606Z</time>
      </trkpt>
      <trkpt lat="47.459872" lon="7.733477">
        <ele>352.079385</ele>
        <time>2021-11-20T18:25:55.591Z</time>
      </trkpt>
      <trkpt lat="47.460742" lon="7.733028">
        <ele>350.470153</ele>
        <time>2021-11-20T18:26:05.985Z</time>
      </trkpt>
      <trkpt lat="47.461241" lon="7.732810">
        <ele>349.561466</ele>
        <time>2021-11-20T18:26:11.758Z</time>
      </trkpt>
      <trkpt lat="47.461727" lon="7.732633">
        <ele>348.528579</ele>
        <time>2021-11-20T18:26:17.221Z</time>
      </trkpt>
      <trkpt lat="47.462549" lon="7.732636">
        <ele>346.810564</ele>
        <time>2021-11-20T18:26:26.212Z</time>
      </trkpt>
      <trkpt lat="47.463439" lon="7.732609">
        <ele>344.983807</ele>
        <time>2021-11-20T18:26:35.795Z</time>
      </trkpt>
      <trkpt lat="47.464097" lon="7.732716">
        <ele>343.659786</ele>
        <time>2021-11-20T18:26:42.965Z</time>
      </trkpt>
      <trkpt lat="47.465398" lon="7.732895">
        <ele>341.471739</ele>
        <time>2021-11-20T18:26:57.667Z</time>
      </trkpt>
      <trkpt lat="47.466451" lon="7.733067">
        <ele>340.178799</ele>
        <time>2021-11-20T18:27:10.281Z</time>
      </trkpt>
      <trkpt lat="47.467031" lon="7.733067">
        <ele>339.877452</ele>
        <time>2021-11-20T18:27:17.898Z</time>
      </trkpt>
      <trkpt lat="47.468111" lon="7.733543">
        <ele>339.687956</ele>
        <time>2021-11-20T18:27:34.976Z</time>
      </trkpt>
      <trkpt lat="47.468168" lon="7.733547">
        <ele>339.678361</ele>
        <time>2021-11-20T18:27:35.560Z</time>
      </trkpt>
      <trkpt lat="47.468229" lon="7.733497">
        <ele>339.666634</ele>
        <time>2021-11-20T18:27:37.331Z</time>
      </trkpt>
      <trkpt lat="47.468421" lon="7.733200">
        <ele>339.623282</ele>
        <time>2021-11-20T18:27:40.881Z</time>
      </trkpt>
      <trkpt lat="47.468562" lon="7.733196">
        <ele>339.603544</ele>
        <time>2021-11-20T18:27:43.329Z</time>
      </trkpt>
      <trkpt lat="47.468620" lon="7.733218">
        <ele>339.595164</ele>
        <time>2021-11-20T18:27:44.992Z</time>
      </trkpt>
      <trkpt lat="47.468845" lon="7.733471">
        <ele>339.555610</ele>
        <time>2021-11-20T18:27:48.652Z</time>
      </trkpt>
      <trkpt lat="47.469087" lon="7.733776">
        <ele>339.511115</ele>
        <time>2021-11-20T18:27:53.623Z</time>
      </trkpt>
      <trkpt lat="47.469170" lon="7.733878">
        <ele>339.496014</ele>
        <time>2021-11-20T18:27:55.668Z</time>
      </trkpt>
      <trkpt lat="47.469549" lon="7.734424">
        <ele>339.421974</ele>
        <time>2021-11-20T18:28:03.227Z</time>
      </trkpt>
      <trkpt lat="47.470937" lon="7.735790">
        <ele>338.214615</ele>
        <time>2021-11-20T18:28:24.004Z</time>
      </trkpt>
      <trkpt lat="47.471007" lon="7.735877">
        <ele>338.139371</ele>
        <time>2021-11-20T18:28:25.220Z</time>
      </trkpt>
      <trkpt lat="47.471084" lon="7.736004">
        <ele>338.044461</ele>
        <time>2021-11-20T18:28:26.563Z</time>
      </trkpt>
      <trkpt lat="47.471200" lon="7.736140">
        <ele>337.922646</ele>
        <time>2021-11-20T18:28:28.532Z</time>
      </trkpt>
      <trkpt lat="47.471461" lon="7.736291">
        <ele>337.777835</ele>
        <time>2021-11-20T18:28:31.980Z</time>
      </trkpt>
      <trkpt lat="47.471811" lon="7.736488">
        <ele>337.592154</ele>
        <time>2021-11-20T18:28:36.598Z</time>
      </trkpt>
      <trkpt lat="47.473022" lon="7.737442">
        <ele>337.313283</ele>
        <time>2021-11-20T18:28:55.064Z</time>
      </trkpt>
      <trkpt lat="47.473306" lon="7.737636">
        <ele>337.755598</ele>
        <time>2021-11-20T18:29:00.298Z</time>
      </trkpt>
      <trkpt lat="47.473508" lon="7.737670">
        <ele>338.043067</ele>
        <time>2021-11-20T18:29:04.387Z</time>
      </trkpt>
      <trkpt lat="47.474657" lon="7.737686">
        <ele>339.786826</ele>
        <time>2021-11-20T18:29:30.430Z</time>
      </trkpt>
      <trkpt lat="47.474872" lon="7.737661">
        <ele>340.426358</ele>
        <time>2021-11-20T18:29:36.520Z</time>
      </trkpt>
      <trkpt lat="47.475220" lon="7.737599">
        <ele>341.465780</ele>
        <time>2021-11-20T18:29:46.505Z</time>
      </trkpt>
      <trkpt lat="47.475400" lon="7.737565">
        <ele>342.003889</ele>
        <time>2021-11-20T18:29:51.665Z</time>
      </trkpt>
      <trkpt lat="47.476062" lon="7.737471">
        <ele>343.976018</ele>
        <time>2021-11-20T18:30:10.268Z</time>
      </trkpt>
      <trkpt lat="47.476872" lon="7.737320">
        <ele>345.452817</ele>
        <time>2021-11-20T18:30:31.083Z</time>
      </trkpt>
      <trkpt lat="47.476935" lon="7.737308">
        <ele>345.522923</ele>
        <time>2021-11-20T18:30:32.505Z</time>
      </trkpt>
      <trkpt lat="47.477242" lon="7.737251">
        <ele>345.864408</ele>
        <time>2021-11-20T18:30:38.875Z</time>
      </trkpt>
      <trkpt lat="47.478176" lon="7.737114">
        <ele>346.844272</ele>
        <time>2021-11-20T18:30:54.007Z</time>
      </trkpt>
      <trkpt lat="47.478204" lon="7.737110">
        <ele>346.796572</ele>
        <time>2021-11-20T18:30:54.346Z</time>
      </trkpt>
      <trkpt lat="47.478369" lon="7.737083">
        <ele>346.515076</ele>
        <time>2021-11-20T18:30:56.512Z</time>
      </trkpt>
      <trkpt lat="47.478726" lon="7.737047">
        <ele>345.908307</ele>
        <time>2021-11-20T18:31:00.787Z</time>
      </trkpt>
      <trkpt lat="47.479890" lon="7.736787">
        <ele>343.912150</ele>
        <time>2021-11-20T18:31:13.528Z</time>
      </trkpt>
      <trkpt lat="47.480337" lon="7.736672">
        <ele>342.584132</ele>
        <time>2021-11-20T18:31:18.243Z</time>
      </trkpt>
      <trkpt lat="47.480441" lon="7.736647">
        <ele>342.259849</ele>
        <time>2021-11-20T18:31:19.315Z</time>
      </trkpt>
      <trkpt lat="47.480564" lon="7.736617">
        <ele>341.876176</ele>
        <time>2021-11-20T18:31:20.712Z</time>
      </trkpt>
      <trkpt lat="47.480675" lon="7.736582">
        <ele>341.526874</ele>
        <time>2021-11-20T18:31:21.867Z</time>
      </trkpt>
      <trkpt lat="47.480717" lon="7.736638">
        <ele>341.352868</ele>
        <time>2021-11-20T18:31:22.424Z</time>
      </trkpt>
      <trkpt lat="47.480783" lon="7.736712">
        <ele>341.098005</ele>
        <time>2021-11-20T18:31:23.289Z</time>
      </trkpt>
      <trkpt lat="47.480998" lon="7.736963">
        <ele>340.255121</ele>
        <time>2021-11-20T18:31:26.072Z</time>
      </trkpt>
      <trkpt lat="47.481043" lon="7.737005">
        <ele>340.091371</ele>
        <time>2021-11-20T18:31:26.594Z</time>
      </trkpt>
      <trkpt lat="47.481084" lon="7.737033">
        <ele>339.952391</ele>
        <time>2021-11-20T18:31:27.115Z</time>
      </trkpt>
      <trkpt lat="47.481122" lon="7.737038">
        <ele>339.834975</ele>
        <time>2021-11-20T18:31:27.534Z</time>
      </trkpt>
      <trkpt lat="47.481358" lon="7.736813">
        <ele>338.970904</ele>
        <time>2021-11-20T18:31:30.259Z</time>
      </trkpt>
      <trkpt lat="47.481415" lon="7.736739">
        <ele>338.737518</ele>
        <time>2021-11-20T18:31:31.141Z</time>
      </trkpt>
      <trkpt lat="47.481528" lon="7.736594">
        <ele>338.273623</ele>
        <time>2021-11-20T18:31:32.614Z</time>
      </trkpt>
      <trkpt lat="47.481746" lon="7.736309">
        <ele>337.170717</ele>
        <time>2021-11-20T18:31:35.447Z</time>
      </trkpt>
      <trkpt lat="47.481911" lon="7.736111">
        <ele>336.365279</ele>
        <time>2021-11-20T18:31:37.487Z</time>
      </trkpt>
      <trkpt lat="47.482046" lon="7.736005">
        <ele>335.785847</ele>
        <time>2021-11-20T18:31:39.018Z</time>
      </trkpt>
      <trkpt lat="47.482126" lon="7.735966">
        <ele>335.466501</ele>
        <time>2021-11-20T18:31:39.816Z</time>
      </trkpt>
      <trkpt lat="47.482190" lon="7.735935">
        <ele>335.211184</ele>
        <time>2021-11-20T18:31:40.439Z</time>
      </trkpt>
      <trkpt lat="47.482455" lon="7.735817">
        <ele>334.161968</ele>
        <time>2021-11-20T18:31:43.235Z</time>
      </trkpt>
      <trkpt lat="47.482502" lon="7.735796">
        <ele>333.975827</ele>
        <time>2021-11-20T18:31:43.667Z</time>
      </trkpt>
      <trkpt lat="47.482666" lon="7.735762">
        <ele>333.347972</ele>
        <time>2021-11-20T18:31:45.405Z</time>
      </trkpt>
      <trkpt lat="47.482759" lon="7.735794">
        <ele>332.985968</ele>
        <time>2021-11-20T18:31:46.385Z</time>
      </trkpt>
      <trkpt lat="47.482798" lon="7.735712">
        <ele>332.729049</ele>
        <time>2021-11-20T18:31:47.028Z</time>
      </trkpt>
      <trkpt lat="47.482843" lon="7.735675">
        <ele>332.533868</ele>
        <time>2021-11-20T18:31:47.509Z</time>
      </trkpt>
      <trkpt lat="47.482931" lon="7.735630">
        <ele>332.180867</ele>
        <time>2021-11-20T18:31:48.492Z</time>
      </trkpt>
      <trkpt lat="47.482953" lon="7.735671">
        <ele>332.046729</ele>
        <time>2021-11-20T18:31:48.975Z</time>
      </trkpt>
      <trkpt lat="47.483095" lon="7.735982">
        <ele>331.032289</ele>
        <time>2021-11-20T18:31:52.571Z</time>
      </trkpt>
      <trkpt lat="47.483352" lon="7.736146">
        <ele>329.826906</ele>
        <time>2021-11-20T18:31:56.688Z</time>
      </trkpt>
      <trkpt lat="47.483356" lon="7.736149">
        <ele>329.807592</ele>
        <time>2021-11-20T18:31:56.738Z</time>
      </trkpt>
      <trkpt lat="47.483599" lon="7.736235">
        <ele>328.731527</ele>
        <time>2021-11-20T18:32:00.261Z</time>
      </trkpt>
      <trkpt lat="47.483778" lon="7.736282">
        <ele>327.948570</ele>
        <time>2021-11-20T18:32:02.784Z</time>
      </trkpt>
      <trkpt lat="47.483917" lon="7.736315">
        <ele>327.342271</ele>
        <time>2021-11-20T18:32:04.774Z</time>
      </trkpt>
      <trkpt lat="47.484114" lon="7.736364">
        <ele>326.481931</ele>
        <time>2021-11-20T18:32:06.696Z</time>
      </trkpt>
      <trkpt lat="47.484515" lon="7.736477">
        <ele>324.723874</ele>
        <time>2021-11-20T18:32:10.563Z</time>
      </trkpt>
      <trkpt lat="47.484700" lon="7.736511">
        <ele>323.920997</ele>
        <time>2021-11-20T18:32:12.314Z</time>
      </trkpt>
      <trkpt lat="47.484870" lon="7.736533">
        <ele>323.132418</ele>
        <time>2021-11-20T18:32:13.887Z</time>
      </trkpt>
      <trkpt lat="47.484905" lon="7.736536">
        <ele>322.966453</ele>
        <time>2021-11-20T18:32:14.233Z</time>
      </trkpt>
      <trkpt lat="47.485005" lon="7.736543">
        <ele>322.492531</ele>
        <time>2021-11-20T18:32:15.184Z</time>
      </trkpt>
      <trkpt lat="47.485052" lon="7.736552">
        <ele>322.268182</ele>
        <time>2021-11-20T18:32:15.633Z</time>
      </trkpt>
      <trkpt lat="47.485143" lon="7.736599">
        <ele>321.811909</ele>
        <time>2021-11-20T18:32:16.504Z</time>
      </trkpt>
      <trkpt lat="47.485182" lon="7.736627">
        <ele>321.606703</ele>
        <time>2021-11-20T18:32:16.910Z</time>
      </trkpt>
      <trkpt lat="47.485212" lon="7.736657">
        <ele>321.435297</ele>
        <time>2021-11-20T18:32:17.273Z</time>
      </trkpt>
      <trkpt lat="47.485357" lon="7.736813">
        <ele>320.586634</ele>
        <time>2021-11-20T18:32:18.995Z</time>
      </trkpt>
      <trkpt lat="47.485412" lon="7.736871">
        <ele>320.266918</ele>
        <time>2021-11-20T18:32:19.600Z</time>
      </trkpt>
      <trkpt lat="47.485482" lon="7.736917">
        <ele>319.904337</ele>
        <time>2021-11-20T18:32:20.331Z</time>
      </trkpt>
      <trkpt lat="47.485564" lon="7.736965">
        <ele>319.486887</ele>
        <time>2021-11-20T18:32:21.188Z</time>
      </trkpt>
      <trkpt lat="47.485679" lon="7.737020">
        <ele>318.914759</ele>
        <time>2021-11-20T18:32:22.337Z</time>
      </trkpt>
      <trkpt lat="47.485750" lon="7.737070">
        <ele>318.542530</ele>
        <time>2021-11-20T18:32:23.034Z</time>
      </trkpt>
      <trkpt lat="47.485806" lon="7.737111">
        <ele>318.246758</ele>
        <time>2021-11-20T18:32:23.621Z</time>
      </trkpt>
      <trkpt lat="47.485875" lon="7.737156">
        <ele>317.889801</ele>
        <time>2021-11-20T18:32:24.370Z</time>
      </trkpt>
      <trkpt lat="47.485976" lon="7.737217">
        <ele>317.373386</ele>
        <time>2021-11-20T18:32:25.419Z</time>
      </trkpt>
      <trkpt lat="47.486087" lon="7.737329">
        <ele>316.737392</ele>
        <time>2021-11-20T18:32:26.662Z</time>
      </trkpt>
      <trkpt lat="47.486287" lon="7.737642">
        <ele>315.359350</ele>
        <time>2021-11-20T18:32:29.492Z</time>
      </trkpt>
      <trkpt lat="47.486314" lon="7.737686">
        <ele>315.208632</ele>
        <time>2021-11-20T18:32:29.860Z</time>
      </trkpt>
      <trkpt lat="47.486354" lon="7.737753">
        <ele>315.185163</ele>
        <time>2021-11-20T18:32:30.459Z</time>
      </trkpt>
      <trkpt lat="47.486384" lon="7.737805">
        <ele>315.167215</ele>
        <time>2021-11-20T18:32:30.952Z</time>
      </trkpt>
      <trkpt lat="47.486495" lon="7.737981">
        <ele>315.104018</ele>
        <time>2021-11-20T18:32:32.639Z</time>
      </trkpt>
      <trkpt lat="47.486621" lon="7.738169">
        <ele>315.034511</ele>
        <time>2021-11-20T18:32:34.417Z</time>
      </trkpt>
      <trkpt lat="47.486676" lon="7.738293">
        <ele>314.995574</ele>
        <time>2021-11-20T18:32:35.540Z</time>
      </trkpt>
      <trkpt lat="47.486689" lon="7.738358">
        <ele>314.977780</ele>
        <time>2021-11-20T18:32:36.051Z</time>
      </trkpt>
      <trkpt lat="47.486696" lon="7.738489">
        <ele>314.943284</ele>
        <time>2021-11-20T18:32:37.002Z</time>
      </trkpt>
      <trkpt lat="47.486688" lon="7.738613">
        <ele>314.910585</ele>
        <time>2021-11-20T18:32:37.862Z</time>
      </trkpt>
      <trkpt lat="47.486652" lon="7.738745">
        <ele>314.873219</ele>
        <time>2021-11-20T18:32:39.422Z</time>
      </trkpt>
      <trkpt lat="47.486599" lon="7.738994">
        <ele>314.804689</ele>
        <time>2021-11-20T18:32:41.791Z</time>
      </trkpt>
      <trkpt lat="47.486588" lon="7.739167">
        <ele>314.759075</ele>
        <time>2021-11-20T18:32:43.589Z</time>
      </trkpt>
      <trkpt lat="47.486574" lon="7.739389">
        <ele>314.700545</ele>
        <time>2021-11-20T18:32:46.693Z</time>
      </trkpt>
      <trkpt lat="47.486546" lon="7.739919">
        <ele>314.560992</ele>
        <time>2021-11-20T18:32:55.123Z</time>
      </trkpt>
      <trkpt lat="47.486498" lon="7.740674">
        <ele>316.616564</ele>
        <time>2021-11-20T18:33:10.315Z</time>
      </trkpt>
      <trkpt lat="47.486493" lon="7.740755">
        <ele>316.912906</ele>
        <time>2021-11-20T18:33:11.699Z</time>
      </trkpt>
      <trkpt lat="47.486469" lon="7.741035">
        <ele>317.941225</ele>
        <time>2021-11-20T18:33:20.061Z</time>
      </trkpt>
      <trkpt lat="47.486458" lon="7.741135">
        <ele>318.310359</ele>
        <time>2021-11-20T18:33:22.724Z</time>
      </trkpt>
      <trkpt lat="47.486413" lon="7.741401">
        <ele>319.309405</ele>
        <time>2021-11-20T18:33:29.179Z</time>
      </trkpt>
      <trkpt lat="47.486335" lon="7.741716">
        <ele>320.531694</ele>
        <time>2021-11-20T18:33:38.626Z</time>
      </trkpt>
      <trkpt lat="47.486221" lon="7.742103">
        <ele>322.069826</ele>
        <time>2021-11-20T18:33:51.212Z</time>
      </trkpt>
      <trkpt lat="47.486170" lon="7.742275">
        <ele>322.754161</ele>
        <time>2021-11-20T18:33:54.598Z</time>
      </trkpt>
      <trkpt lat="47.486081" lon="7.742579">
        <ele>323.961230</ele>
        <time>2021-11-20T18:34:05.562Z</time>
      </trkpt>
      <trkpt lat="47.485726" lon="7.743655">
        <ele>328.107871</ele>
        <time>2021-11-20T18:34:35.970Z</time>
      </trkpt>
      <trkpt lat="47.485353" lon="7.744189">
        <ele>330.759095</ele>
        <time>2021-11-20T18:34:54.969Z</time>
      </trkpt>
      <trkpt lat="47.485152" lon="7.744380">
        <ele>331.979366</ele>
        <time>2021-11-20T18:35:04.625Z</time>
      </trkpt>
      <trkpt lat="47.484772" lon="7.744741">
        <ele>333.977741</ele>
        <time>2021-11-20T18:35:15.080Z</time>
      </trkpt>
      <trkpt lat="47.484727" lon="7.744803">
        <ele>334.182634</ele>
        <time>2021-11-20T18:35:15.995Z</time>
      </trkpt>
      <trkpt lat="47.484658" lon="7.744938">
        <ele>334.563808</ele>
        <time>2021-11-20T18:35:17.350Z</time>
      </trkpt>
      <trkpt lat="47.484616" lon="7.745052">
        <ele>334.856204</ele>
        <time>2021-11-20T18:35:22.419Z</time>
      </trkpt>
      <trkpt lat="47.484266" lon="7.746897">
        <ele>339.171687</ele>
        <time>2021-11-20T18:35:56.506Z</time>
      </trkpt>
      <trkpt lat="47.484176" lon="7.747166">
        <ele>340.165134</ele>
        <time>2021-11-20T18:36:05.013Z</time>
      </trkpt>
      <trkpt lat="47.484176" lon="7.747166">
        <ele>340.165134</ele>
        <time>2021-11-20T18:36:05.100Z</time>
      </trkpt>
      <trkpt lat="47.483953" lon="7.747697">
        <ele>342.555665</ele>
        <time>2021-11-20T18:36:17.083Z</time>
      </trkpt>
      <trkpt lat="47.483857" lon="7.747917">
        <ele>343.557020</ele>
        <time>2021-11-20T18:36:23.911Z</time>
      </trkpt>
      <trkpt lat="47.483653" lon="7.748384">
        <ele>345.683299</ele>
        <time>2021-11-20T18:36:38.872Z</time>
      </trkpt>
      <trkpt lat="47.483455" lon="7.748863">
        <ele>347.830354</ele>
        <time>2021-11-20T18:36:55.158Z</time>
      </trkpt>
      <trkpt lat="47.483297" lon="7.749247">
        <ele>349.549435</ele>
        <time>2021-11-20T18:37:07.378Z</time>
      </trkpt>
      <trkpt lat="47.483127" lon="7.749663">
        <ele>351.946347</ele>
        <time>2021-11-20T18:37:20.681Z</time>
      </trkpt>
      <trkpt lat="47.483104" lon="7.749789">
        <ele>352.591448</ele>
        <time>2021-11-20T18:37:26.326Z</time>
      </trkpt>
      <trkpt lat="47.483118" lon="7.750142">
        <ele>354.339229</ele>
        <time>2021-11-20T18:37:34.136Z</time>
      </trkpt>
      <trkpt lat="47.483212" lon="7.750380">
        <ele>355.701759</ele>
        <time>2021-11-20T18:37:42.825Z</time>
      </trkpt>
      <trkpt lat="47.483353" lon="7.750495">
        <ele>356.879280</ele>
        <time>2021-11-20T18:37:48.075Z</time>
      </trkpt>
      <trkpt lat="47.483598" lon="7.750514">
        <ele>358.673619</ele>
        <time>2021-11-20T18:38:00.247Z</time>
      </trkpt>
      <trkpt lat="47.483821" lon="7.750312">
        <ele>360.585926</ele>
        <time>2021-11-20T18:38:12.629Z</time>
      </trkpt>
      <trkpt lat="47.484079" lon="7.749775">
        <ele>364.260331</ele>
        <time>2021-11-20T18:38:33.734Z</time>
      </trkpt>
      <trkpt lat="47.484228" lon="7.749587">
        <ele>366.227744</ele>
        <time>2021-11-20T18:38:43.551Z</time>
      </trkpt>
      <trkpt lat="47.484276" lon="7.749526">
        <ele>366.863467</ele>
        <time>2021-11-20T18:38:46.797Z</time>
      </trkpt>
      <trkpt lat="47.484374" lon="7.749499">
        <ele>367.865037</ele>
        <time>2021-11-20T18:38:51.697Z</time>
      </trkpt>
      <trkpt lat="47.484403" lon="7.749499">
        <ele>368.156413</ele>
        <time>2021-11-20T18:38:53.261Z</time>
      </trkpt>
      <trkpt lat="47.484462" lon="7.749511">
        <ele>368.754785</ele>
        <time>2021-11-20T18:38:55.698Z</time>
      </trkpt>
      <trkpt lat="47.484510" lon="7.749532">
        <ele>369.257699</ele>
        <time>2021-11-20T18:38:58.329Z</time>
      </trkpt>
      <trkpt lat="47.484572" lon="7.749580">
        <ele>369.960748</ele>
        <time>2021-11-20T18:39:03.470Z</time>
      </trkpt>
      <trkpt lat="47.484700" lon="7.749896">
        <ele>372.462281</ele>
        <time>2021-11-20T18:39:15.878Z</time>
      </trkpt>
      <trkpt lat="47.484640" lon="7.750440">
        <ele>376.204875</ele>
        <time>2021-11-20T18:39:37.275Z</time>
      </trkpt>
      <trkpt lat="47.484582" lon="7.750743">
        <ele>378.343168</ele>
        <time>2021-11-20T18:39:50.965Z</time>
      </trkpt>
      <trkpt lat="47.484428" lon="7.751559">
        <ele>383.943740</ele>
        <time>2021-11-20T18:40:27.329Z</time>
      </trkpt>
      <trkpt lat="47.484067" lon="7.753436">
        <ele>396.584046</ele>
        <time>2021-11-20T18:41:41.424Z</time>
      </trkpt>
      <trkpt lat="47.483916" lon="7.754251">
        <ele>399.393150</ele>
        <time>2021-11-20T18:41:58.652Z</time>
      </trkpt>
      <trkpt lat="47.483838" lon="7.754668">
        <ele>400.339132</ele>
        <time>2021-11-20T18:42:06.947Z</time>
      </trkpt>
      <trkpt lat="47.483795" lon="7.754908">
        <ele>400.881983</ele>
        <time>2021-11-20T18:42:10.792Z</time>
      </trkpt>
      <trkpt lat="47.483754" lon="7.755239">
        <ele>401.617719</ele>
        <time>2021-11-20T18:42:16.671Z</time>
      </trkpt>
      <trkpt lat="47.483769" lon="7.756121">
        <ele>403.546687</ele>
        <time>2021-11-20T18:42:31.321Z</time>
      </trkpt>
      <trkpt lat="47.483791" lon="7.756407">
        <ele>404.314077</ele>
        <time>2021-11-20T18:42:33.876Z</time>
      </trkpt>
      <trkpt lat="47.483892" lon="7.756713">
        <ele>405.378255</ele>
        <time>2021-11-20T18:42:38.462Z</time>
      </trkpt>
      <trkpt lat="47.484252" lon="7.757357">
        <ele>407.989949</ele>
        <time>2021-11-20T18:42:50.661Z</time>
      </trkpt>
      <trkpt lat="47.484552" lon="7.757716">
        <ele>409.774004</ele>
        <time>2021-11-20T18:43:06.367Z</time>
      </trkpt>
      <trkpt lat="47.485109" lon="7.758040">
        <ele>412.922313</ele>
        <time>2021-11-20T18:43:34.304Z</time>
      </trkpt>
      <trkpt lat="47.485584" lon="7.758116">
        <ele>417.405437</ele>
        <time>2021-11-20T18:43:58.403Z</time>
      </trkpt>
      <trkpt lat="47.485622" lon="7.758125">
        <ele>417.766547</ele>
        <time>2021-11-20T18:44:01.869Z</time>
      </trkpt>
      <trkpt lat="47.485673" lon="7.758136">
        <ele>418.250160</ele>
        <time>2021-11-20T18:44:05.167Z</time>
      </trkpt>
      <trkpt lat="47.485984" lon="7.758280">
        <ele>421.307938</ele>
        <time>2021-11-20T18:44:21.810Z</time>
      </trkpt>
      <trkpt lat="47.486303" lon="7.758588">
        <ele>424.882063</ele>
        <time>2021-11-20T18:44:42.198Z</time>
      </trkpt>
      <trkpt lat="47.486484" lon="7.758798">
        <ele>427.040253</ele>
        <time>2021-11-20T18:44:52.989Z</time>
      </trkpt>
      <trkpt lat="47.486636" lon="7.758922">
        <ele>428.668914</ele>
        <time>2021-11-20T18:45:04.503Z</time>
      </trkpt>
      <trkpt lat="47.487031" lon="7.759652">
        <ele>435.095994</ele>
        <time>2021-11-20T18:45:37.747Z</time>
      </trkpt>
      <trkpt lat="47.487890" lon="7.761232">
        <ele>449.300644</ele>
        <time>2021-11-20T18:46:55.226Z</time>
      </trkpt>
      <trkpt lat="47.488339" lon="7.762200">
        <ele>458.357438</ele>
        <time>2021-11-20T18:47:42.417Z</time>
      </trkpt>
      <trkpt lat="47.488582" lon="7.762924">
        <ele>464.593137</ele>
        <time>2021-11-20T18:48:16.259Z</time>
      </trkpt>
      <trkpt lat="47.488619" lon="7.763292">
        <ele>467.463034</ele>
        <time>2021-11-20T18:48:31.819Z</time>
      </trkpt>
      <trkpt lat="47.488592" lon="7.765070">
        <ele>481.977115</ele>
        <time>2021-11-20T18:49:50.527Z</time>
      </trkpt>
      <trkpt lat="47.488674" lon="7.765750">
        <ele>487.626185</ele>
        <time>2021-11-20T18:50:20.249Z</time>
      </trkpt>
      <trkpt lat="47.488779" lon="7.766201">
        <ele>490.587352</ele>
        <time>2021-11-20T18:50:40.801Z</time>
      </trkpt>
      <trkpt lat="47.488885" lon="7.766666">
        <ele>492.491752</ele>
        <time>2021-11-20T18:50:58.724Z</time>
      </trkpt>
      <trkpt lat="47.489047" lon="7.767376">
        <ele>495.399815</ele>
        <time>2021-11-20T18:51:21.100Z</time>
      </trkpt>
      <trkpt lat="47.489106" lon="7.767650">
        <ele>496.515780</ele>
        <time>2021-11-20T18:51:27.694Z</time>
      </trkpt>
      <trkpt lat="47.489166" lon="7.767905">
        <ele>497.563607</ele>
        <time>2021-11-20T18:51:33.636Z</time>
      </trkpt>
      <trkpt lat="47.489202" lon="7.768057">
        <ele>498.188639</ele>
        <time>2021-11-20T18:51:35.649Z</time>
      </trkpt>
      <trkpt lat="47.489217" lon="7.768114">
        <ele>498.426015</ele>
        <time>2021-11-20T18:51:37.444Z</time>
      </trkpt>
      <trkpt lat="47.489260" lon="7.768283">
        <ele>499.126785</ele>
        <time>2021-11-20T18:51:40.761Z</time>
      </trkpt>
      <trkpt lat="47.489330" lon="7.768521">
        <ele>499.999612</ele>
        <time>2021-11-20T18:51:42.764Z</time>
      </trkpt>
      <trkpt lat="47.489759" lon="7.769607">
        <ele>494.969187</ele>
        <time>2021-11-20T18:51:51.234Z</time>
      </trkpt>
      <trkpt lat="47.489882" lon="7.769861">
        <ele>493.719583</ele>
        <time>2021-11-20T18:51:53.097Z</time>
      </trkpt>
      <trkpt lat="47.490063" lon="7.770088">
        <ele>492.315541</ele>
        <time>2021-11-20T18:51:55.182Z</time>
      </trkpt>
      <trkpt lat="47.490367" lon="7.770241">
        <ele>490.415307</ele>
        <time>2021-11-20T18:51:57.925Z</time>
      </trkpt>
      <trkpt lat="47.491182" lon="7.770222">
        <ele>484.570018</ele>
        <time>2021-11-20T18:52:04.941Z</time>
      </trkpt>
      <trkpt lat="47.492020" lon="7.770184">
        <ele>478.285767</ele>
        <time>2021-11-20T18:52:12.450Z</time>
      </trkpt>
      <trkpt lat="47.492137" lon="7.770169">
        <ele>477.405499</ele>
        <time>2021-11-20T18:52:13.567Z</time>
      </trkpt>
      <trkpt lat="47.492435" lon="7.770039">
        <ele>475.682993</ele>
        <time>2021-11-20T18:52:16.516Z</time>
      </trkpt>
      <trkpt lat="47.492661" lon="7.769832">
        <ele>475.087028</ele>
        <time>2021-11-20T18:52:19.128Z</time>
      </trkpt>
      <trkpt lat="47.492753" lon="7.769701">
        <ele>474.800757</ele>
        <time>2021-11-20T18:52:20.568Z</time>
      </trkpt>
      <trkpt lat="47.492853" lon="7.769527">
        <ele>474.454665</ele>
        <time>2021-11-20T18:52:22.256Z</time>
      </trkpt>
      <trkpt lat="47.493003" lon="7.769128">
        <ele>473.762870</ele>
        <time>2021-11-20T18:52:26.358Z</time>
      </trkpt>
      <trkpt lat="47.493049" lon="7.768906">
        <ele>473.411058</ele>
        <time>2021-11-20T18:52:28.252Z</time>
      </trkpt>
      <trkpt lat="47.493059" lon="7.768825">
        <ele>473.286304</ele>
        <time>2021-11-20T18:52:28.836Z</time>
      </trkpt>
      <trkpt lat="47.493070" lon="7.768289">
        <ele>472.473839</ele>
        <time>2021-11-20T18:52:33.598Z</time>
      </trkpt>
      <trkpt lat="47.493062" lon="7.767908">
        <ele>471.866016</ele>
        <time>2021-11-20T18:52:37.153Z</time>
      </trkpt>
      <trkpt lat="47.493026" lon="7.766838">
        <ele>466.241675</ele>
        <time>2021-11-20T18:52:44.520Z</time>
      </trkpt>
      <trkpt lat="47.493021" lon="7.766677">
        <ele>465.395550</ele>
        <time>2021-11-20T18:52:45.482Z</time>
      </trkpt>
      <trkpt lat="47.492990" lon="7.765695">
        <ele>460.234530</ele>
        <time>2021-11-20T18:52:51.225Z</time>
      </trkpt>
      <trkpt lat="47.493004" lon="7.765343">
        <ele>458.383369</ele>
        <time>2021-11-20T18:52:53.218Z</time>
      </trkpt>
      <trkpt lat="47.493099" lon="7.764952">
        <ele>454.392598</ele>
        <time>2021-11-20T18:52:55.543Z</time>
      </trkpt>
      <trkpt lat="47.493263" lon="7.764681">
        <ele>450.486869</ele>
        <time>2021-11-20T18:52:57.569Z</time>
      </trkpt>
      <trkpt lat="47.493540" lon="7.764515">
        <ele>445.738516</ele>
        <time>2021-11-20T18:53:00.095Z</time>
      </trkpt>
      <trkpt lat="47.493590" lon="7.764507">
        <ele>444.939441</ele>
        <time>2021-11-20T18:53:00.523Z</time>
      </trkpt>
      <trkpt lat="47.493680" lon="7.764500">
        <ele>443.507465</ele>
        <time>2021-11-20T18:53:01.264Z</time>
      </trkpt>
      <trkpt lat="47.493931" lon="7.764617">
        <ele>439.326218</ele>
        <time>2021-11-20T18:53:03.451Z</time>
      </trkpt>
      <trkpt lat="47.494264" lon="7.764935">
        <ele>433.029419</ele>
        <time>2021-11-20T18:53:06.715Z</time>
      </trkpt>
      <trkpt lat="47.494492" lon="7.765172">
        <ele>428.766776</ele>
        <time>2021-11-20T18:53:09.084Z</time>
      </trkpt>
      <trkpt lat="47.494591" lon="7.765251">
        <ele>427.369780</ele>
        <time>2021-11-20T18:53:10.019Z</time>
      </trkpt>
      <trkpt lat="47.495053" lon="7.765476">
        <ele>421.328709</ele>
        <time>2021-11-20T18:53:14.062Z</time>
      </trkpt>
      <trkpt lat="47.495769" lon="7.765706">
        <ele>412.228398</ele>
        <time>2021-11-20T18:53:20.358Z</time>
      </trkpt>
      <trkpt lat="47.496030" lon="7.765759">
        <ele>408.956212</ele>
        <time>2021-11-20T18:53:22.588Z</time>
      </trkpt>
      <trkpt lat="47.496330" lon="7.765821">
        <ele>405.633401</ele>
        <time>2021-11-20T18:53:25.212Z</time>
      </trkpt>
      <trkpt lat="47.496588" lon="7.765860">
        <ele>403.189879</ele>
        <time>2021-11-20T18:53:27.453Z</time>
      </trkpt>
      <trkpt lat="47.496750" lon="7.765887">
        <ele>401.653867</ele>
        <time>2021-11-20T18:53:28.851Z</time>
      </trkpt>
      <trkpt lat="47.496969" lon="7.765900">
        <ele>399.588789</ele>
        <time>2021-11-20T18:53:30.742Z</time>
      </trkpt>
      <trkpt lat="47.497210" lon="7.765902">
        <ele>397.318050</ele>
        <time>2021-11-20T18:53:32.822Z</time>
      </trkpt>
      <trkpt lat="47.497498" lon="7.765897">
        <ele>394.604325</ele>
        <time>2021-11-20T18:53:35.293Z</time>
      </trkpt>
      <trkpt lat="47.497754" lon="7.765880">
        <ele>392.189865</ele>
        <time>2021-11-20T18:53:37.530Z</time>
      </trkpt>
      <trkpt lat="47.497958" lon="7.765844">
        <ele>390.254163</ele>
        <time>2021-11-20T18:53:39.365Z</time>
      </trkpt>
      <trkpt lat="47.497990" lon="7.765837">
        <ele>389.991649</ele>
        <time>2021-11-20T18:53:39.645Z</time>
      </trkpt>
      <trkpt lat="47.498155" lon="7.765801">
        <ele>388.981675</ele>
        <time>2021-11-20T18:53:41.120Z</time>
      </trkpt>
      <trkpt lat="47.498351" lon="7.765739">
        <ele>387.767971</ele>
        <time>2021-11-20T18:53:42.920Z</time>
      </trkpt>
      <trkpt lat="47.498586" lon="7.765657">
        <ele>386.305892</ele>
        <time>2021-11-20T18:53:45.098Z</time>
      </trkpt>
      <trkpt lat="47.498749" lon="7.765599">
        <ele>385.290704</ele>
        <time>2021-11-20T18:53:46.597Z</time>
      </trkpt>
      <trkpt lat="47.498800" lon="7.765582">
        <ele>384.974133</ele>
        <time>2021-11-20T18:53:47.066Z</time>
      </trkpt>
      <trkpt lat="47.499360" lon="7.765292">
        <ele>381.381429</ele>
        <time>2021-11-20T18:53:52.619Z</time>
      </trkpt>
      <trkpt lat="47.499422" lon="7.765260">
        <ele>380.983811</ele>
        <time>2021-11-20T18:53:53.233Z</time>
      </trkpt>
      <trkpt lat="47.499963" lon="7.764903">
        <ele>378.567291</ele>
        <time>2021-11-20T18:53:59.035Z</time>
      </trkpt>
      <trkpt lat="47.500387" lon="7.764595">
        <ele>377.588952</ele>
        <time>2021-11-20T18:54:03.605Z</time>
      </trkpt>
      <trkpt lat="47.500727" lon="7.764330">
        <ele>376.793005</ele>
        <time>2021-11-20T18:54:08.656Z</time>
      </trkpt>
      <trkpt lat="47.500820" lon="7.764278">
        <ele>376.587079</ele>
        <time>2021-11-20T18:54:09.845Z</time>
      </trkpt>
      <trkpt lat="47.501035" lon="7.764209">
        <ele>376.131379</ele>
        <time>2021-11-20T18:54:12.088Z</time>
      </trkpt>
      <trkpt lat="47.501196" lon="7.764236">
        <ele>375.795749</ele>
        <time>2021-11-20T18:54:17.819Z</time>
      </trkpt>
      <trkpt lat="47.501281" lon="7.764267">
        <ele>375.614414</ele>
        <time>2021-11-20T18:54:20.897Z</time>
      </trkpt>
      <trkpt lat="47.501345" lon="7.764315">
        <ele>375.465799</ele>
        <time>2021-11-20T18:54:21.479Z</time>
      </trkpt>
      <trkpt lat="47.501402" lon="7.764367">
        <ele>375.436172</ele>
        <time>2021-11-20T18:54:26.790Z</time>
      </trkpt>
      <trkpt lat="47.501717" lon="7.764903">
        <ele>375.323859</ele>
        <time>2021-11-20T18:54:34.826Z</time>
      </trkpt>
      <trkpt lat="47.501785" lon="7.764941">
        <ele>375.306849</ele>
        <time>2021-11-20T18:54:38.559Z</time>
      </trkpt>
      <trkpt lat="47.501861" lon="7.764937">
        <ele>375.289053</ele>
        <time>2021-11-20T18:54:39.178Z</time>
      </trkpt>
      <trkpt lat="47.502299" lon="7.764761">
        <ele>375.182846</ele>
        <time>2021-11-20T18:54:48.076Z</time>
      </trkpt>
      <trkpt lat="47.502400" lon="7.764717">
        <ele>375.158208</ele>
        <time>2021-11-20T18:54:50.929Z</time>
      </trkpt>
      <trkpt lat="47.502578" lon="7.764620">
        <ele>375.113821</ele>
        <time>2021-11-20T18:54:52.642Z</time>
      </trkpt>
      <trkpt lat="47.503736" lon="7.764325">
        <ele>373.547885</ele>
        <time>2021-11-20T18:55:13.388Z</time>
      </trkpt>
      <trkpt lat="47.504400" lon="7.764478">
        <ele>372.323864</ele>
        <time>2021-11-20T18:55:20.146Z</time>
      </trkpt>
      <trkpt lat="47.505115" lon="7.765011">
        <ele>370.269405</ele>
        <time>2021-11-20T18:55:27.908Z</time>
      </trkpt>
      <trkpt lat="47.506143" lon="7.764883">
        <ele>367.127480</ele>
        <time>2021-11-20T18:55:38.750Z</time>
      </trkpt>
      <trkpt lat="47.506301" lon="7.764884">
        <ele>366.646272</ele>
        <time>2021-11-20T18:55:40.306Z</time>
      </trkpt>
      <trkpt lat="47.506377" lon="7.764894">
        <ele>366.413894</ele>
        <time>2021-11-20T18:55:41.155Z</time>
      </trkpt>
      <trkpt lat="47.506619" lon="7.764938">
        <ele>365.658724</ele>
        <time>2021-11-20T18:55:43.869Z</time>
      </trkpt>
      <trkpt lat="47.506716" lon="7.764971">
        <ele>365.349275</ele>
        <time>2021-11-20T18:55:44.866Z</time>
      </trkpt>
      <trkpt lat="47.506870" lon="7.765037">
        <ele>364.850805</ele>
        <time>2021-11-20T18:55:46.719Z</time>
      </trkpt>
      <trkpt lat="47.507429" lon="7.765409">
        <ele>362.945260</ele>
        <time>2021-11-20T18:55:52.750Z</time>
      </trkpt>
      <trkpt lat="47.507506" lon="7.765470">
        <ele>362.673732</ele>
        <time>2021-11-20T18:55:53.808Z</time>
      </trkpt>
      <trkpt lat="47.507650" lon="7.765503">
        <ele>362.220681</ele>
        <time>2021-11-20T18:55:55.167Z</time>
      </trkpt>
      <trkpt lat="47.507977" lon="7.765561">
        <ele>361.196718</ele>
        <time>2021-11-20T18:55:58.648Z</time>
      </trkpt>
      <trkpt lat="47.508137" lon="7.765584">
        <ele>360.696914</ele>
        <time>2021-11-20T18:56:00.310Z</time>
      </trkpt>
      <trkpt lat="47.508322" lon="7.765556">
        <ele>360.047268</ele>
        <time>2021-11-20T18:56:02.247Z</time>
      </trkpt>
      <trkpt lat="47.508744" lon="7.765478">
        <ele>358.557522</ele>
        <time>2021-11-20T18:56:06.449Z</time>
      </trkpt>
      <trkpt lat="47.509057" lon="7.765447">
        <ele>357.458629</ele>
        <time>2021-11-20T18:56:09.474Z</time>
      </trkpt>
      <trkpt lat="47.509436" lon="7.765441">
        <ele>356.130913</ele>
        <time>2021-11-20T18:56:13.102Z</time>
      </trkpt>
      <trkpt lat="47.509600" lon="7.765443">
        <ele>355.556400</ele>
        <time>2021-11-20T18:56:14.710Z</time>
      </trkpt>
      <trkpt lat="47.509741" lon="7.765454">
        <ele>355.061791</ele>
        <time>2021-11-20T18:56:16.096Z</time>
      </trkpt>
      <trkpt lat="47.509899" lon="7.765445">
        <ele>354.507906</ele>
        <time>2021-11-20T18:56:17.731Z</time>
      </trkpt>
      <trkpt lat="47.509942" lon="7.765436">
        <ele>354.368029</ele>
        <time>2021-11-20T18:56:18.216Z</time>
      </trkpt>
      <trkpt lat="47.510019" lon="7.765402">
        <ele>354.217403</ele>
        <time>2021-11-20T18:56:19.056Z</time>
      </trkpt>
      <trkpt lat="47.510078" lon="7.765363">
        <ele>354.096280</ele>
        <time>2021-11-20T18:56:19.873Z</time>
      </trkpt>
      <trkpt lat="47.510179" lon="7.765273">
        <ele>353.875298</ele>
        <time>2021-11-20T18:56:21.171Z</time>
      </trkpt>
      <trkpt lat="47.510392" lon="7.765088">
        <ele>353.412373</ele>
        <time>2021-11-20T18:56:24.196Z</time>
      </trkpt>
      <trkpt lat="47.510486" lon="7.765012">
        <ele>353.211598</ele>
        <time>2021-11-20T18:56:25.521Z</time>
      </trkpt>
      <trkpt lat="47.510628" lon="7.764909">
        <ele>352.915177</ele>
        <time>2021-11-20T18:56:27.334Z</time>
      </trkpt>
      <trkpt lat="47.510922" lon="7.764773">
        <ele>352.337775</ele>
        <time>2021-11-20T18:56:31.089Z</time>
      </trkpt>
      <trkpt lat="47.511261" lon="7.764772">
        <ele>351.702293</ele>
        <time>2021-11-20T18:56:34.787Z</time>
      </trkpt>
      <trkpt lat="47.511298" lon="7.764777">
        <ele>351.632645</ele>
        <time>2021-11-20T18:56:35.174Z</time>
      </trkpt>
      <trkpt lat="47.511360" lon="7.764807">
        <ele>351.510372</ele>
        <time>2021-11-20T18:56:35.816Z</time>
      </trkpt>
      <trkpt lat="47.511702" lon="7.765093">
        <ele>351.002779</ele>
        <time>2021-11-20T18:56:39.968Z</time>
      </trkpt>
      <trkpt lat="47.511866" lon="7.765218">
        <ele>350.991576</ele>
        <time>2021-11-20T18:56:42.052Z</time>
      </trkpt>
      <trkpt lat="47.511929" lon="7.765269">
        <ele>350.987215</ele>
        <time>2021-11-20T18:56:43.062Z</time>
      </trkpt>
      <trkpt lat="47.512026" lon="7.765311">
        <ele>350.981077</ele>
        <time>2021-11-20T18:56:44.222Z</time>
      </trkpt>
      <trkpt lat="47.512359" lon="7.765319">
        <ele>350.960849</ele>
        <time>2021-11-20T18:56:48.924Z</time>
      </trkpt>
      <trkpt lat="47.512523" lon="7.765308">
        <ele>350.950878</ele>
        <time>2021-11-20T18:56:51.049Z</time>
      </trkpt>
      <trkpt lat="47.512596" lon="7.765294">
        <ele>350.946408</ele>
        <time>2021-11-20T18:56:52.316Z</time>
      </trkpt>
      <trkpt lat="47.512876" lon="7.765238">
        <ele>350.929247</ele>
        <time>2021-11-20T18:56:57.307Z</time>
      </trkpt>
      <trkpt lat="47.512947" lon="7.765205">
        <ele>350.924727</ele>
        <time>2021-11-20T18:56:59.176Z</time>
      </trkpt>
      <trkpt lat="47.512959" lon="7.765198">
        <ele>350.923944</ele>
        <time>2021-11-20T18:56:59.603Z</time>
      </trkpt>
      <trkpt lat="47.512992" lon="7.765423">
        <ele>350.914499</ele>
        <time>2021-11-20T18:57:02.623Z</time>
      </trkpt>
      <trkpt lat="47.513042" lon="7.765761">
        <ele>350.946825</ele>
        <time>2021-11-20T18:57:07.768Z</time>
      </trkpt>
      <trkpt lat="47.513149" lon="7.766154">
        <ele>351.837027</ele>
        <time>2021-11-20T18:57:12.925Z</time>
      </trkpt>
      <trkpt lat="47.513244" lon="7.766351">
        <ele>352.345562</ele>
        <time>2021-11-20T18:57:17.337Z</time>
      </trkpt>
      <trkpt lat="47.513399" lon="7.766732">
        <ele>353.279978</ele>
        <time>2021-11-20T18:57:24.262Z</time>
      </trkpt>
      <trkpt lat="47.513436" lon="7.766827">
        <ele>353.510365</ele>
        <time>2021-11-20T18:57:26.215Z</time>
      </trkpt>
      <trkpt lat="47.513441" lon="7.766846">
        <ele>353.553204</ele>
        <time>2021-11-20T18:57:26.664Z</time>
      </trkpt>
      <trkpt lat="47.513466" lon="7.766945">
        <ele>353.775251</ele>
        <time>2021-11-20T18:57:28.489Z</time>
      </trkpt>
      <trkpt lat="47.513486" lon="7.767064">
        <ele>354.032878</ele>
        <time>2021-11-20T18:57:30.519Z</time>
      </trkpt>
      <trkpt lat="47.513484" lon="7.767152">
        <ele>354.217858</ele>
        <time>2021-11-20T18:57:32.718Z</time>
      </trkpt>
      <trkpt lat="47.513452" lon="7.767415">
        <ele>354.779279</ele>
        <time>2021-11-20T18:57:38.620Z</time>
      </trkpt>
      <trkpt lat="47.513268" lon="7.768949">
        <ele>359.035202</ele>
        <time>2021-11-20T18:58:12.934Z</time>
      </trkpt>
      <trkpt lat="47.513028" lon="7.769660">
        <ele>361.759353</ele>
        <time>2021-11-20T18:58:29.975Z</time>
      </trkpt>
      <trkpt lat="47.512998" lon="7.769935">
        <ele>362.714067</ele>
        <time>2021-11-20T18:58:36.553Z</time>
      </trkpt>
      <trkpt lat="47.513023" lon="7.770526">
        <ele>364.743551</ele>
        <time>2021-11-20T18:58:50.962Z</time>
      </trkpt>
      <trkpt lat="47.513203" lon="7.771089">
        <ele>367.627533</ele>
        <time>2021-11-20T18:59:08.839Z</time>
      </trkpt>
      <trkpt lat="47.513273" lon="7.771254">
        <ele>368.693733</ele>
        <time>2021-11-20T18:59:15.284Z</time>
      </trkpt>
      <trkpt lat="47.513524" lon="7.771849">
        <ele>372.532381</ele>
        <time>2021-11-20T18:59:36.477Z</time>
      </trkpt>
      <trkpt lat="47.513709" lon="7.772388">
        <ele>375.840706</ele>
        <time>2021-11-20T18:59:56.057Z</time>
      </trkpt>
      <trkpt lat="47.513816" lon="7.772755">
        <ele>378.027996</ele>
        <time>2021-11-20T19:00:10.645Z</time>
      </trkpt>
      <trkpt lat="47.514062" lon="7.773781">
        <ele>384.824884</ele>
        <time>2021-11-20T19:00:49.250Z</time>
      </trkpt>
      <trkpt lat="47.514155" lon="7.774263">
        <ele>388.175233</ele>
        <time>2021-11-20T19:01:07.679Z</time>
      </trkpt>
      <trkpt lat="47.514209" lon="7.774677">
        <ele>390.993350</ele>
        <time>2021-11-20T19:01:23.818Z</time>
      </trkpt>
      <trkpt lat="47.514347" lon="7.775314">
        <ele>395.464415</ele>
        <time>2021-11-20T19:01:47.490Z</time>
      </trkpt>
      <trkpt lat="47.514607" lon="7.776071">
        <ele>401.382036</ele>
        <time>2021-11-20T19:02:20.389Z</time>
      </trkpt>
      <trkpt lat="47.514846" lon="7.776797">
        <ele>407.194271</ele>
        <time>2021-11-20T19:02:52.616Z</time>
      </trkpt>
      <trkpt lat="47.514998" lon="7.777352">
        <ele>411.504189</ele>
        <time>2021-11-20T19:03:15.064Z</time>
      </trkpt>
      <trkpt lat="47.515049" lon="7.777717">
        <ele>414.186516</ele>
        <time>2021-11-20T19:03:29.699Z</time>
      </trkpt>
      <trkpt lat="47.515072" lon="7.778033">
        <ele>416.473760</ele>
        <time>2021-11-20T19:03:43.317Z</time>
      </trkpt>
      <trkpt lat="47.515028" lon="7.778503">
        <ele>419.133600</ele>
        <time>2021-11-20T19:04:02.430Z</time>
      </trkpt>
      <trkpt lat="47.515003" lon="7.779567">
        <ele>424.677353</ele>
        <time>2021-11-20T19:04:39.657Z</time>
      </trkpt>
      <trkpt lat="47.515081" lon="7.779862">
        <ele>426.326977</ele>
        <time>2021-11-20T19:04:48.717Z</time>
      </trkpt>
      <trkpt lat="47.515185" lon="7.780079">
        <ele>427.712505</ele>
        <time>2021-11-20T19:04:58.229Z</time>
      </trkpt>
      <trkpt lat="47.515328" lon="7.780298">
        <ele>429.298668</ele>
        <time>2021-11-20T19:05:05.223Z</time>
      </trkpt>
      <trkpt lat="47.515427" lon="7.780450">
        <ele>430.398221</ele>
        <time>2021-11-20T19:05:10.600Z</time>
      </trkpt>
      <trkpt lat="47.515697" lon="7.780805">
        <ele>430.688768</ele>
        <time>2021-11-20T19:05:19.019Z</time>
      </trkpt>
      <trkpt lat="47.516286" lon="7.781613">
        <ele>429.724242</ele>
        <time>2021-11-20T19:05:30.762Z</time>
      </trkpt>
      <trkpt lat="47.516384" lon="7.781700">
        <ele>429.586983</ele>
        <time>2021-11-20T19:05:31.855Z</time>
      </trkpt>
      <trkpt lat="47.516471" lon="7.781803">
        <ele>429.453175</ele>
        <time>2021-11-20T19:05:33.093Z</time>
      </trkpt>
      <trkpt lat="47.516539" lon="7.781875">
        <ele>429.352754</ele>
        <time>2021-11-20T19:05:33.965Z</time>
      </trkpt>
      <trkpt lat="47.516640" lon="7.781951">
        <ele>429.216661</ele>
        <time>2021-11-20T19:05:34.985Z</time>
      </trkpt>
      <trkpt lat="47.516971" lon="7.782259">
        <ele>428.056166</ele>
        <time>2021-11-20T19:05:38.621Z</time>
      </trkpt>
      <trkpt lat="47.517378" lon="7.782928">
        <ele>423.020902</ele>
        <time>2021-11-20T19:05:44.131Z</time>
      </trkpt>
      <trkpt lat="47.517545" lon="7.783090">
        <ele>421.367765</ele>
        <time>2021-11-20T19:05:45.847Z</time>
      </trkpt>
      <trkpt lat="47.517940" lon="7.783317">
        <ele>417.859360</ele>
        <time>2021-11-20T19:05:49.485Z</time>
      </trkpt>
      <trkpt lat="47.518621" lon="7.783993">
        <ele>410.595050</ele>
        <time>2021-11-20T19:05:56.599Z</time>
      </trkpt>
      <trkpt lat="47.518849" lon="7.784267">
        <ele>407.764953</ele>
        <time>2021-11-20T19:05:59.112Z</time>
      </trkpt>
      <trkpt lat="47.518954" lon="7.784393">
        <ele>406.462376</ele>
        <time>2021-11-20T19:06:00.263Z</time>
      </trkpt>
      <trkpt lat="47.519144" lon="7.784715">
        <ele>403.679219</ele>
        <time>2021-11-20T19:06:02.767Z</time>
      </trkpt>
      <trkpt lat="47.519460" lon="7.785476">
        <ele>397.864558</ele>
        <time>2021-11-20T19:06:07.996Z</time>
      </trkpt>
      <trkpt lat="47.519541" lon="7.785717">
        <ele>396.234689</ele>
        <time>2021-11-20T19:06:09.575Z</time>
      </trkpt>
      <trkpt lat="47.519592" lon="7.785770">
        <ele>395.774453</ele>
        <time>2021-11-20T19:06:10.098Z</time>
      </trkpt>
      <trkpt lat="47.519785" lon="7.785852">
        <ele>394.291311</ele>
        <time>2021-11-20T19:06:11.854Z</time>
      </trkpt>
      <trkpt lat="47.519873" lon="7.785742">
        <ele>393.440644</ele>
        <time>2021-11-20T19:06:12.858Z</time>
      </trkpt>
      <trkpt lat="47.519866" lon="7.785187">
        <ele>390.671578</ele>
        <time>2021-11-20T19:06:16.201Z</time>
      </trkpt>
      <trkpt lat="47.520100" lon="7.784429">
        <ele>386.514018</ele>
        <time>2021-11-20T19:06:21.221Z</time>
      </trkpt>
      <trkpt lat="47.520152" lon="7.784073">
        <ele>384.697078</ele>
        <time>2021-11-20T19:06:23.434Z</time>
      </trkpt>
      <trkpt lat="47.520166" lon="7.783894">
        <ele>383.798184</ele>
        <time>2021-11-20T19:06:24.540Z</time>
      </trkpt>
      <trkpt lat="47.520162" lon="7.783639">
        <ele>383.110530</ele>
        <time>2021-11-20T19:06:26.190Z</time>
      </trkpt>
      <trkpt lat="47.520169" lon="7.783522">
        <ele>382.940274</ele>
        <time>2021-11-20T19:06:27.008Z</time>
      </trkpt>
      <trkpt lat="47.520174" lon="7.783512">
        <ele>382.922238</ele>
        <time>2021-11-20T19:06:27.084Z</time>
      </trkpt>
      <trkpt lat="47.520205" lon="7.783482">
        <ele>382.842751</ele>
        <time>2021-11-20T19:06:27.422Z</time>
      </trkpt>
      <trkpt lat="47.520370" lon="7.783367">
        <ele>382.451332</ele>
        <time>2021-11-20T19:06:29.144Z</time>
      </trkpt>
      <trkpt lat="47.520633" lon="7.783239">
        <ele>381.857129</ele>
        <time>2021-11-20T19:06:31.983Z</time>
      </trkpt>
      <trkpt lat="47.520716" lon="7.783202">
        <ele>381.671083</ele>
        <time>2021-11-20T19:06:32.825Z</time>
      </trkpt>
      <trkpt lat="47.520737" lon="7.783291">
        <ele>381.534431</ele>
        <time>2021-11-20T19:06:33.715Z</time>
      </trkpt>
      <trkpt lat="47.520781" lon="7.783406">
        <ele>381.342845</ele>
        <time>2021-11-20T19:06:34.767Z</time>
      </trkpt>
      <trkpt lat="47.520820" lon="7.783467">
        <ele>381.221088</ele>
        <time>2021-11-20T19:06:35.327Z</time>
      </trkpt>
      <trkpt lat="47.520922" lon="7.783585">
        <ele>380.943267</ele>
        <time>2021-11-20T19:06:36.660Z</time>
      </trkpt>
      <trkpt lat="47.520988" lon="7.783660">
        <ele>380.764701</ele>
        <time>2021-11-20T19:06:37.821Z</time>
      </trkpt>
      <trkpt lat="47.521073" lon="7.783756">
        <ele>380.535250</ele>
        <time>2021-11-20T19:06:39.283Z</time>
      </trkpt>
      <trkpt lat="47.521184" lon="7.784076">
        <ele>380.013807</ele>
        <time>2021-11-20T19:06:42.227Z</time>
      </trkpt>
      <trkpt lat="47.521251" lon="7.784408">
        <ele>379.511553</ele>
        <time>2021-11-20T19:06:46.924Z</time>
      </trkpt>
      <trkpt lat="47.521340" lon="7.785091">
        <ele>380.916867</ele>
        <time>2021-11-20T19:06:57.942Z</time>
      </trkpt>
      <trkpt lat="47.521359" lon="7.785235">
        <ele>381.224681</ele>
        <time>2021-11-20T19:07:01.097Z</time>
      </trkpt>
      <trkpt lat="47.521411" lon="7.785651">
        <ele>382.112243</ele>
        <time>2021-11-20T19:07:07.195Z</time>
      </trkpt>
      <trkpt lat="47.521481" lon="7.786063">
        <ele>383.003524</ele>
        <time>2021-11-20T19:07:16.232Z</time>
      </trkpt>
      <trkpt lat="47.521561" lon="7.786302">
        <ele>383.563141</ele>
        <time>2021-11-20T19:07:20.986Z</time>
      </trkpt>
      <trkpt lat="47.521925" lon="7.787242">
        <ele>386.498148</ele>
        <time>2021-11-20T19:07:46.010Z</time>
      </trkpt>
      <trkpt lat="47.521639" lon="7.787535">
        <ele>388.520208</ele>
        <time>2021-11-20T19:07:58.168Z</time>
      </trkpt>
      <trkpt lat="47.521453" lon="7.787715">
        <ele>389.812132</ele>
        <time>2021-11-20T19:08:07.697Z</time>
      </trkpt>
      <trkpt lat="47.521099" lon="7.788048">
        <ele>392.250582</ele>
        <time>2021-11-20T19:08:22.803Z</time>
      </trkpt>
      <trkpt lat="47.520866" lon="7.788410">
        <ele>394.214165</ele>
        <time>2021-11-20T19:08:36.099Z</time>
      </trkpt>
      <trkpt lat="47.520775" lon="7.788985">
        <ele>397.018754</ele>
        <time>2021-11-20T19:08:51.822Z</time>
      </trkpt>
      <trkpt lat="47.520746" lon="7.789717">
        <ele>401.298880</ele>
        <time>2021-11-20T19:09:16.781Z</time>
      </trkpt>
      <trkpt lat="47.520783" lon="7.790185">
        <ele>404.049314</ele>
        <time>2021-11-20T19:09:32.234Z</time>
      </trkpt>
      <trkpt lat="47.521043" lon="7.791054">
        <ele>409.597299</ele>
        <time>2021-11-20T19:10:05.366Z</time>
      </trkpt>
      <trkpt lat="47.521374" lon="7.793903">
        <ele>429.141412</ele>
        <time>2021-11-20T19:11:55.722Z</time>
      </trkpt>
      <trkpt lat="47.521460" lon="7.795630">
        <ele>436.904021</ele>
        <time>2021-11-20T19:12:54.794Z</time>
      </trkpt>
      <trkpt lat="47.521488" lon="7.796167">
        <ele>439.298329</ele>
        <time>2021-11-20T19:13:07.615Z</time>
      </trkpt>
      <trkpt lat="47.521531" lon="7.796461">
        <ele>440.635589</ele>
        <time>2021-11-20T19:13:13.400Z</time>
      </trkpt>
      <trkpt lat="47.521832" lon="7.798025">
        <ele>437.318283</ele>
        <time>2021-11-20T19:13:26.198Z</time>
      </trkpt>
      <trkpt lat="47.521886" lon="7.798500">
        <ele>436.088814</ele>
        <time>2021-11-20T19:13:29.174Z</time>
      </trkpt>
      <trkpt lat="47.522144" lon="7.798993">
        <ele>434.496844</ele>
        <time>2021-11-20T19:13:32.845Z</time>
      </trkpt>
      <trkpt lat="47.522218" lon="7.799135">
        <ele>433.411587</ele>
        <time>2021-11-20T19:13:33.904Z</time>
      </trkpt>
      <trkpt lat="47.522709" lon="7.800072">
        <ele>424.591610</ele>
        <time>2021-11-20T19:13:40.760Z</time>
      </trkpt>
      <trkpt lat="47.522938" lon="7.800180">
        <ele>421.944965</ele>
        <time>2021-11-20T19:13:42.801Z</time>
      </trkpt>
      <trkpt lat="47.524111" lon="7.800323">
        <ele>408.375957</ele>
        <time>2021-11-20T19:13:52.729Z</time>
      </trkpt>
      <trkpt lat="47.524301" lon="7.800420">
        <ele>405.921511</ele>
        <time>2021-11-20T19:13:54.437Z</time>
      </trkpt>
      <trkpt lat="47.524601" lon="7.800707">
        <ele>401.559657</ele>
        <time>2021-11-20T19:13:57.462Z</time>
      </trkpt>
      <trkpt lat="47.524909" lon="7.800963">
        <ele>397.246152</ele>
        <time>2021-11-20T19:14:00.466Z</time>
      </trkpt>
      <trkpt lat="47.525009" lon="7.801022">
        <ele>395.931518</ele>
        <time>2021-11-20T19:14:01.364Z</time>
      </trkpt>
      <trkpt lat="47.525322" lon="7.801334">
        <ele>391.310553</ele>
        <time>2021-11-20T19:14:04.527Z</time>
      </trkpt>
      <trkpt lat="47.525644" lon="7.801949">
        <ele>384.826698</ele>
        <time>2021-11-20T19:14:08.955Z</time>
      </trkpt>
      <trkpt lat="47.526184" lon="7.802422">
        <ele>377.085669</ele>
        <time>2021-11-20T19:14:14.233Z</time>
      </trkpt>
      <trkpt lat="47.526229" lon="7.802508">
        <ele>376.179200</ele>
        <time>2021-11-20T19:14:14.850Z</time>
      </trkpt>
      <trkpt lat="47.526305" lon="7.802747">
        <ele>373.978192</ele>
        <time>2021-11-20T19:14:16.365Z</time>
      </trkpt>
      <trkpt lat="47.526435" lon="7.803139">
        <ele>370.342565</ele>
        <time>2021-11-20T19:14:18.879Z</time>
      </trkpt>
      <trkpt lat="47.526766" lon="7.803728">
        <ele>364.271076</ele>
        <time>2021-11-20T19:14:23.288Z</time>
      </trkpt>
      <trkpt lat="47.527195" lon="7.804775">
        <ele>354.567762</ele>
        <time>2021-11-20T19:14:30.233Z</time>
      </trkpt>
      <trkpt lat="47.527223" lon="7.804962">
        <ele>353.050156</ele>
        <time>2021-11-20T19:14:31.315Z</time>
      </trkpt>
      <trkpt lat="47.527187" lon="7.805916">
        <ele>346.749687</ele>
        <time>2021-11-20T19:14:36.902Z</time>
      </trkpt>
      <trkpt lat="47.527192" lon="7.805999">
        <ele>346.309180</ele>
        <time>2021-11-20T19:14:37.365Z</time>
      </trkpt>
      <trkpt lat="47.527215" lon="7.806158">
        <ele>345.449585</ele>
        <time>2021-11-20T19:14:38.333Z</time>
      </trkpt>
      <trkpt lat="47.527250" lon="7.806264">
        <ele>344.825829</ele>
        <time>2021-11-20T19:14:39.065Z</time>
      </trkpt>
      <trkpt lat="47.527311" lon="7.806422">
        <ele>343.863706</ele>
        <time>2021-11-20T19:14:40.133Z</time>
      </trkpt>
      <trkpt lat="47.527350" lon="7.806547">
        <ele>343.135789</ele>
        <time>2021-11-20T19:14:40.912Z</time>
      </trkpt>
      <trkpt lat="47.527401" lon="7.806802">
        <ele>341.729896</ele>
        <time>2021-11-20T19:14:42.580Z</time>
      </trkpt>
      <trkpt lat="47.527414" lon="7.806940">
        <ele>340.993322</ele>
        <time>2021-11-20T19:14:43.392Z</time>
      </trkpt>
      <trkpt lat="47.527456" lon="7.807830">
        <ele>336.277045</ele>
        <time>2021-11-20T19:14:48.867Z</time>
      </trkpt>
      <trkpt lat="47.527503" lon="7.808275">
        <ele>334.794228</ele>
        <time>2021-11-20T19:14:51.663Z</time>
      </trkpt>
      <trkpt lat="47.527634" lon="7.808204">
        <ele>334.446094</ele>
        <time>2021-11-20T19:14:53.725Z</time>
      </trkpt>
      <trkpt lat="47.527665" lon="7.808159">
        <ele>334.337763</ele>
        <time>2021-11-20T19:14:54.323Z</time>
      </trkpt>
      <trkpt lat="47.527822" lon="7.807933">
        <ele>333.791358</ele>
        <time>2021-11-20T19:14:57.813Z</time>
      </trkpt>
      <trkpt lat="47.528101" lon="7.807533">
        <ele>332.822258</ele>
        <time>2021-11-20T19:15:04.064Z</time>
      </trkpt>
      <trkpt lat="47.528363" lon="7.807158">
        <ele>331.912945</ele>
        <time>2021-11-20T19:15:10.305Z</time>
      </trkpt>
      <trkpt lat="47.528486" lon="7.806982">
        <ele>331.486112</ele>
        <time>2021-11-20T19:15:13.289Z</time>
      </trkpt>
      <trkpt lat="47.528826" lon="7.806494">
        <ele>330.283066</ele>
        <time>2021-11-20T19:15:21.136Z</time>
      </trkpt>
      <trkpt lat="47.529482" lon="7.805461">
        <ele>327.771880</ele>
        <time>2021-11-20T19:15:36.135Z</time>
      </trkpt>
      <trkpt lat="47.529649" lon="7.805203">
        <ele>327.138990</ele>
        <time>2021-11-20T19:15:39.605Z</time>
      </trkpt>
      <trkpt lat="47.529834" lon="7.804969">
        <ele>326.500945</ele>
        <time>2021-11-20T19:15:42.997Z</time>
      </trkpt>
      <trkpt lat="47.529928" lon="7.804900">
        <ele>326.225802</ele>
        <time>2021-11-20T19:15:44.499Z</time>
      </trkpt>
      <trkpt lat="47.530103" lon="7.804771">
        <ele>325.722772</ele>
        <time>2021-11-20T19:15:47.180Z</time>
      </trkpt>
      <trkpt lat="47.530366" lon="7.804683">
        <ele>325.038692</ele>
        <time>2021-11-20T19:15:51.037Z</time>
      </trkpt>
      <trkpt lat="47.530664" lon="7.804655">
        <ele>324.281110</ele>
        <time>2021-11-20T19:15:55.210Z</time>
      </trkpt>
      <trkpt lat="47.531122" lon="7.804821">
        <ele>323.084819</ele>
        <time>2021-11-20T19:16:02.159Z</time>
      </trkpt>
      <trkpt lat="47.531148" lon="7.804834">
        <ele>323.015197</ele>
        <time>2021-11-20T19:16:02.512Z</time>
      </trkpt>
      <trkpt lat="47.531459" lon="7.805000">
        <ele>322.176475</ele>
        <time>2021-11-20T19:16:08.284Z</time>
      </trkpt>
      <trkpt lat="47.531549" lon="7.805047">
        <ele>321.934355</ele>
        <time>2021-11-20T19:16:09.774Z</time>
      </trkpt>
      <trkpt lat="47.531684" lon="7.805128">
        <ele>321.564806</ele>
        <time>2021-11-20T19:16:12.831Z</time>
      </trkpt>
      <trkpt lat="47.531901" lon="7.805311">
        <ele>321.544599</ele>
        <time>2021-11-20T19:16:17.300Z</time>
      </trkpt>
      <trkpt lat="47.532130" lon="7.805651">
        <ele>321.703576</ele>
        <time>2021-11-20T19:16:23.876Z</time>
      </trkpt>
      <trkpt lat="47.532253" lon="7.805913">
        <ele>321.809211</ele>
        <time>2021-11-20T19:16:29.350Z</time>
      </trkpt>
      <trkpt lat="47.532546" lon="7.806703">
        <ele>322.107583</ele>
        <time>2021-11-20T19:16:43.918Z</time>
      </trkpt>
      <trkpt lat="47.533091" lon="7.806305">
        <ele>322.356919</ele>
        <time>2021-11-20T19:16:58.706Z</time>
      </trkpt>
      <trkpt lat="47.533723" lon="7.806018">
        <ele>322.480125</ele>
        <time>2021-11-20T19:17:13.369Z</time>
      </trkpt>
      <trkpt lat="47.534648" lon="7.805785">
        <ele>322.655004</ele>
        <time>2021-11-20T19:17:31.223Z</time>
      </trkpt>
      <trkpt lat="47.534894" lon="7.805725">
        <ele>322.698477</ele>
        <time>2021-11-20T19:17:36.037Z</time>
      </trkpt>
      <trkpt lat="47.535092" lon="7.805671">
        <ele>322.733128</ele>
        <time>2021-11-20T19:17:40.312Z</time>
      </trkpt>
      <trkpt lat="47.535778" lon="7.805333">
        <ele>322.857558</ele>
        <time>2021-11-20T19:17:55.512Z</time>
      </trkpt>
      <trkpt lat="47.535828" lon="7.805308">
        <ele>322.866641</ele>
        <time>2021-11-20T19:17:56.677Z</time>
      </trkpt>
      <trkpt lat="47.535955" lon="7.805217">
        <ele>322.890923</ele>
        <time>2021-11-20T19:17:59.636Z</time>
      </trkpt>
      <trkpt lat="47.536875" lon="7.804558">
        <ele>322.855441</ele>
        <time>2021-11-20T19:18:22.636Z</time>
      </trkpt>
      <trkpt lat="47.537755" lon="7.803639">
        <ele>322.627931</ele>
        <time>2021-11-20T19:18:42.757Z</time>
      </trkpt>
      <trkpt lat="47.538164" lon="7.803170">
        <ele>322.226656</ele>
        <time>2021-11-20T19:18:51.884Z</time>
      </trkpt>
      <trkpt lat="47.538256" lon="7.803059">
        <ele>322.101624</ele>
        <time>2021-11-20T19:18:53.723Z</time>
      </trkpt>
      <trkpt lat="47.540006" lon="7.800680">
        <ele>320.479891</ele>
        <time>2021-11-20T19:19:34.616Z</time>
      </trkpt>
      <trkpt lat="47.540192" lon="7.800458">
        <ele>320.430210</ele>
        <time>2021-11-20T19:19:39.163Z</time>
      </trkpt>
      <trkpt lat="47.540260" lon="7.800353">
        <ele>320.409780</ele>
        <time>2021-11-20T19:19:42.228Z</time>
      </trkpt>
      <trkpt lat="47.540644" lon="7.800163">
        <ele>320.325575</ele>
        <time>2021-11-20T19:19:52.023Z</time>
      </trkpt>
      <trkpt lat="47.540897" lon="7.800171">
        <ele>320.527075</ele>
        <time>2021-11-20T19:19:58.190Z</time>
      </trkpt>
      <trkpt lat="47.541705" lon="7.800028">
        <ele>321.225917</ele>
        <time>2021-11-20T19:20:19.963Z</time>
      </trkpt>
      <trkpt lat="47.542307" lon="7.799830">
        <ele>321.755503</ele>
        <time>2021-11-20T19:20:34.936Z</time>
      </trkpt>
      <trkpt lat="47.542998" lon="7.799859">
        <ele>319.900398</ele>
        <time>2021-11-20T19:20:47.165Z</time>
      </trkpt>
      <trkpt lat="47.544071" lon="7.799629">
        <ele>316.101269</ele>
        <time>2021-11-20T19:21:02.087Z</time>
      </trkpt>
      <trkpt lat="47.544184" lon="7.799620">
        <ele>315.704726</ele>
        <time>2021-11-20T19:21:03.476Z</time>
      </trkpt>
      <trkpt lat="47.544345" lon="7.799570">
        <ele>314.830038</ele>
        <time>2021-11-20T19:21:05.671Z</time>
      </trkpt>
      <trkpt lat="47.544568" lon="7.799371">
        <ele>313.293917</ele>
        <time>2021-11-20T19:21:09.028Z</time>
      </trkpt>
      <trkpt lat="47.544749" lon="7.799388">
        <ele>312.223763</ele>
        <time>2021-11-20T19:21:11.470Z</time>
      </trkpt>
      <trkpt lat="47.544827" lon="7.799356">
        <ele>311.746194</ele>
        <time>2021-11-20T19:21:12.452Z</time>
      </trkpt>
      <trkpt lat="47.545096" lon="7.799250">
        <ele>310.103741</ele>
        <time>2021-11-20T19:21:16.171Z</time>
      </trkpt>
      <trkpt lat="47.545182" lon="7.799205">
        <ele>309.565566</ele>
        <time>2021-11-20T19:21:17.268Z</time>
      </trkpt>
      <trkpt lat="47.545396" lon="7.798977">
        <ele>308.010203</ele>
        <time>2021-11-20T19:21:20.809Z</time>
      </trkpt>
      <trkpt lat="47.545449" lon="7.798705">
        <ele>306.882608</ele>
        <time>2021-11-20T19:21:23.211Z</time>
      </trkpt>
      <trkpt lat="47.545511" lon="7.798680">
        <ele>306.503461</ele>
        <time>2021-11-20T19:21:24.042Z</time>
      </trkpt>
      <trkpt lat="47.545581" lon="7.798713">
        <ele>306.070010</ele>
        <time>2021-11-20T19:21:25.079Z</time>
      </trkpt>
      <trkpt lat="47.545731" lon="7.798810">
        <ele>305.104274</ele>
        <time>2021-11-20T19:21:27.286Z</time>
      </trkpt>
      <trkpt lat="47.545807" lon="7.798846">
        <ele>304.824066</ele>
        <time>2021-11-20T19:21:28.394Z</time>
      </trkpt>
      <trkpt lat="47.546418" lon="7.798980">
        <ele>303.364924</ele>
        <time>2021-11-20T19:21:37.242Z</time>
      </trkpt>
      <trkpt lat="47.547540" lon="7.799538">
        <ele>300.686939</ele>
        <time>2021-11-20T19:21:56.965Z</time>
      </trkpt>
      <trkpt lat="47.547746" lon="7.799598">
        <ele>300.629947</ele>
        <time>2021-11-20T19:22:01.044Z</time>
      </trkpt>
      <trkpt lat="47.547912" lon="7.799646">
        <ele>300.584034</ele>
        <time>2021-11-20T19:22:04.346Z</time>
      </trkpt>
      <trkpt lat="47.548459" lon="7.799691">
        <ele>300.435315</ele>
        <time>2021-11-20T19:22:15.285Z</time>
      </trkpt>
      <trkpt lat="47.548535" lon="7.799720">
        <ele>300.414010</ele>
        <time>2021-11-20T19:22:16.805Z</time>
      </trkpt>
      <trkpt lat="47.548514" lon="7.799795">
        <ele>300.399132</ele>
        <time>2021-11-20T19:22:17.868Z</time>
      </trkpt>
      <trkpt lat="47.548519" lon="7.799896">
        <ele>300.380577</ele>
        <time>2021-11-20T19:22:19.223Z</time>
      </trkpt>
      <trkpt lat="47.548545" lon="7.800404">
        <ele>300.287229</ele>
        <time>2021-11-20T19:22:26.013Z</time>
      </trkpt>
      <trkpt lat="47.548560" lon="7.800672">
        <ele>300.237955</ele>
        <time>2021-11-20T19:22:29.707Z</time>
      </trkpt>
      <trkpt lat="47.548569" lon="7.800838">
        <ele>300.210424</ele>
        <time>2021-11-20T19:22:31.950Z</time>
      </trkpt>
      <trkpt lat="47.548576" lon="7.800968">
        <ele>300.197414</ele>
        <time>2021-11-20T19:22:33.725Z</time>
      </trkpt>
      <trkpt lat="47.548596" lon="7.801213">
        <ele>300.172795</ele>
        <time>2021-11-20T19:22:37.104Z</time>
      </trkpt>
      <trkpt lat="47.548607" lon="7.801690">
        <ele>300.125184</ele>
        <time>2021-11-20T19:22:43.604Z</time>
      </trkpt>
      <trkpt lat="47.548626" lon="7.802129">
        <ele>300.081300</ele>
        <time>2021-11-20T19:22:49.523Z</time>
      </trkpt>
      <trkpt lat="47.548877" lon="7.802168">
        <ele>300.044000</ele>
        <time>2021-11-20T19:22:54.516Z</time>
      </trkpt>
      <trkpt lat="47.549410" lon="7.802226">
        <ele>299.965013</ele>
        <time>2021-11-20T19:23:04.927Z</time>
      </trkpt>
      <trkpt lat="47.549481" lon="7.802234">
        <ele>299.954489</ele>
        <time>2021-11-20T19:23:06.263Z</time>
      </trkpt>
      <trkpt lat="47.549879" lon="7.802247">
        <ele>299.824181</ele>
        <time>2021-11-20T19:23:13.725Z</time>
      </trkpt>
      <trkpt lat="47.550146" lon="7.802262">
        <ele>299.730936</ele>
        <time>2021-11-20T19:23:18.800Z</time>
      </trkpt>
      <trkpt lat="47.550134" lon="7.803051">
        <ele>299.545043</ele>
        <time>2021-11-20T19:23:29.022Z</time>
      </trkpt>
      <trkpt lat="47.550196" lon="7.803120">
        <ele>299.517982</ele>
        <time>2021-11-20T19:23:30.483Z</time>
      </trkpt>
      <trkpt lat="47.550484" lon="7.803124">
        <ele>299.417471</ele>
        <time>2021-11-20T19:23:35.785Z</time>
      </trkpt>
      <trkpt lat="47.550981" lon="7.803132">
        <ele>299.384559</ele>
        <time>2021-11-20T19:23:45.133Z</time>
      </trkpt>
      <trkpt lat="47.551163" lon="7.803129">
        <ele>299.437822</ele>
        <time>2021-11-20T19:23:48.535Z</time>
      </trkpt>
      <trkpt lat="47.551598" lon="7.803160">
        <ele>299.565267</ele>
        <time>2021-11-20T19:23:57.128Z</time>
      </trkpt>
      <trkpt lat="47.551666" lon="7.803144">
        <ele>299.585416</ele>
        <time>2021-11-20T19:24:01.872Z</time>
      </trkpt>
      <trkpt lat="47.551732" lon="7.803125">
        <ele>299.605091</ele>
        <time>2021-11-20T19:24:06.539Z</time>
      </trkpt>
      <trkpt lat="47.551744" lon="7.803277">
        <ele>299.635317</ele>
        <time>2021-11-20T19:24:08.232Z</time>
      </trkpt>
      <trkpt lat="47.551751" lon="7.803369">
        <ele>299.653603</ele>
        <time>2021-11-20T19:24:09.305Z</time>
      </trkpt>
      <trkpt lat="47.551692" lon="7.803510">
        <ele>299.686370</ele>
        <time>2021-11-20T19:24:11.902Z</time>
      </trkpt>
      <trkpt lat="47.551741" lon="7.804294">
        <ele>299.841879</ele>
        <time>2021-11-20T19:24:24.929Z</time>
      </trkpt>
      <trkpt lat="47.551744" lon="7.804473">
        <ele>299.916328</ele>
        <time>2021-11-20T19:24:27.448Z</time>
      </trkpt>
      <trkpt lat="47.551731" lon="7.804667">
        <ele>300.004282</ele>
        <time>2021-11-20T19:24:31.428Z</time>
      </trkpt>
      <trkpt lat="47.551709" lon="7.805000">
        <ele>300.155234</ele>
        <time>2021-11-20T19:24:35.920Z</time>
      </trkpt>
      <trkpt lat="47.551681" lon="7.805477">
        <ele>300.371246</ele>
        <time>2021-11-20T19:24:43.656Z</time>
      </trkpt>
      <trkpt lat="47.551671" lon="7.806117">
        <ele>300.660061</ele>
        <time>2021-11-20T19:24:53.746Z</time>
      </trkpt>
      <trkpt lat="47.551651" lon="7.806246">
        <ele>300.719775</ele>
        <time>2021-11-20T19:24:56.648Z</time>
      </trkpt>
      <trkpt lat="47.551895" lon="7.806278">
        <ele>300.883514</ele>
        <time>2021-11-20T19:25:00.174Z</time>
      </trkpt>
      <trkpt lat="47.552015" lon="7.806307">
        <ele>300.964788</ele>
        <time>2021-11-20T19:25:03.044Z</time>
      </trkpt>
      <trkpt lat="47.552068" lon="7.806445">
        <ele>301.036421</ele>
        <time>2021-11-20T19:25:04.501Z</time>
      </trkpt>
      <trkpt lat="47.552398" lon="7.808880">
        <ele>300.376155</ele>
        <time>2021-11-20T19:25:26.679Z</time>
      </trkpt>
      <trkpt lat="47.552506" lon="7.809854">
        <ele>299.970583</ele>
        <time>2021-11-20T19:25:35.032Z</time>
      </trkpt>
      <trkpt lat="47.552566" lon="7.810386">
        <ele>299.729074</ele>
        <time>2021-11-20T19:25:39.695Z</time>
      </trkpt>
      <trkpt lat="47.552711" lon="7.812955">
        <ele>298.825914</ele>
        <time>2021-11-20T19:26:02.269Z</time>
      </trkpt>
      <trkpt lat="47.552844" lon="7.816432">
        <ele>298.976663</ele>
        <time>2021-11-20T19:26:36.008Z</time>
      </trkpt>
      <trkpt lat="47.552368" lon="7.816478">
        <ele>299.220225</ele>
        <time>2021-11-20T19:26:48.391Z</time>
      </trkpt>
      <trkpt lat="47.551537" lon="7.816539">
        <ele>300.500406</ele>
        <time>2021-11-20T19:27:12.200Z</time>
      </trkpt>
      <trkpt lat="47.550839" lon="7.816590">
        <ele>301.575684</ele>
        <time>2021-11-20T19:27:30.902Z</time>
      </trkpt>
      <trkpt lat="47.550457" lon="7.816559">
        <ele>301.879855</ele>
        <time>2021-11-20T19:27:40.329Z</time>
      </trkpt>
      <trkpt lat="47.550240" lon="7.817600">
        <ele>301.816129</ele>
        <time>2021-11-20T19:27:55.776Z</time>
      </trkpt>
      <trkpt lat="47.549870" lon="7.819908">
        <ele>301.495885</ele>
        <time>2021-11-20T19:28:24.455Z</time>
      </trkpt>
      <trkpt lat="47.549781" lon="7.820506">
        <ele>301.354838</ele>
        <time>2021-11-20T19:28:32.312Z</time>
      </trkpt>
      <trkpt lat="47.549636" lon="7.821487">
        <ele>301.130593</ele>
        <time>2021-11-20T19:28:45.683Z</time>
      </trkpt>
      <trkpt lat="47.549580" lon="7.821865">
        <ele>301.386573</ele>
        <time>2021-11-20T19:28:51.213Z</time>
      </trkpt>
      <trkpt lat="47.549468" lon="7.822580">
        <ele>301.872079</ele>
        <time>2021-11-20T19:29:02.305Z</time>
      </trkpt>
      <trkpt lat="47.549423" lon="7.822873">
        <ele>302.070839</ele>
        <time>2021-11-20T19:29:07.074Z</time>
      </trkpt>
      <trkpt lat="47.549309" lon="7.823603">
        <ele>302.566455</ele>
        <time>2021-11-20T19:29:19.657Z</time>
      </trkpt>
      <trkpt lat="47.548993" lon="7.825343">
        <ele>304.835908</ele>
        <time>2021-11-20T19:29:54.602Z</time>
      </trkpt>
      <trkpt lat="47.548679" lon="7.826710">
        <ele>306.963555</ele>
        <time>2021-11-20T19:30:23.785Z</time>
      </trkpt>
      <trkpt lat="47.548237" lon="7.826410">
        <ele>307.953135</ele>
        <time>2021-11-20T19:30:37.558Z</time>
      </trkpt>
      <trkpt lat="47.547666" lon="7.826091">
        <ele>309.195258</ele>
        <time>2021-11-20T19:30:54.936Z</time>
      </trkpt>
      <trkpt lat="47.547233" lon="7.825872">
        <ele>310.126547</ele>
        <time>2021-11-20T19:31:07.711Z</time>
      </trkpt>
      <trkpt lat="47.546693" lon="7.825618">
        <ele>311.287771</ele>
        <time>2021-11-20T19:31:23.086Z</time>
      </trkpt>
      <trkpt lat="47.546589" lon="7.825597">
        <ele>311.503594</ele>
        <time>2021-11-20T19:31:26.016Z</time>
      </trkpt>
      <trkpt lat="47.546574" lon="7.826239">
        <ele>312.395177</ele>
        <time>2021-11-20T19:31:38.306Z</time>
      </trkpt>
      <trkpt lat="47.546592" lon="7.826850">
        <ele>313.244007</ele>
        <time>2021-11-20T19:31:50.104Z</time>
      </trkpt>
      <trkpt lat="47.546721" lon="7.828140">
        <ele>315.077804</ele>
        <time>2021-11-20T19:32:16.075Z</time>
      </trkpt>
      <trkpt lat="47.546823" lon="7.829336">
        <ele>316.797245</ele>
        <time>2021-11-20T19:32:39.308Z</time>
      </trkpt>
      <trkpt lat="47.546943" lon="7.830813">
        <ele>318.811064</ele>
        <time>2021-11-20T19:33:07.499Z</time>
      </trkpt>
      <trkpt lat="47.546946" lon="7.830852">
        <ele>318.860516</ele>
        <time>2021-11-20T19:33:08.586Z</time>
      </trkpt>
      <trkpt lat="47.547020" lon="7.831965">
        <ele>320.269508</ele>
        <time>2021-11-20T19:33:29.398Z</time>
      </trkpt>
      <trkpt lat="47.547190" lon="7.835066">
        <ele>324.100290</ele>
        <time>2021-11-20T19:34:26.868Z</time>
      </trkpt>
      <trkpt lat="47.547240" lon="7.836221">
        <ele>325.554660</ele>
        <time>2021-11-20T19:34:48.343Z</time>
      </trkpt>
      <trkpt lat="47.547276" lon="7.837287">
        <ele>326.917203</ele>
        <time>2021-11-20T19:35:08.453Z</time>
      </trkpt>
      <trkpt lat="47.547300" lon="7.838688">
        <ele>328.514683</ele>
        <time>2021-11-20T19:35:35.200Z</time>
      </trkpt>
      <trkpt lat="47.547332" lon="7.840572">
        <ele>330.263966</ele>
        <time>2021-11-20T19:36:07.828Z</time>
      </trkpt>
      <trkpt lat="47.547339" lon="7.841072">
        <ele>330.528174</ele>
        <time>2021-11-20T19:36:15.605Z</time>
      </trkpt>
      <trkpt lat="47.547362" lon="7.841665">
        <ele>330.639402</ele>
        <time>2021-11-20T19:36:24.375Z</time>
      </trkpt>
      <trkpt lat="47.547448" lon="7.842262">
        <ele>330.753713</ele>
        <time>2021-11-20T19:36:32.772Z</time>
      </trkpt>
      <trkpt lat="47.547354" lon="7.842839">
        <ele>330.864863</ele>
        <time>2021-11-20T19:36:40.653Z</time>
      </trkpt>
      <trkpt lat="47.547313" lon="7.843735">
        <ele>331.162900</ele>
        <time>2021-11-20T19:36:52.976Z</time>
      </trkpt>
      <trkpt lat="47.547295" lon="7.844722">
        <ele>331.773466</ele>
        <time>2021-11-20T19:37:07.723Z</time>
      </trkpt>
      <trkpt lat="47.547274" lon="7.845536">
        <ele>332.277198</ele>
        <time>2021-11-20T19:37:21.175Z</time>
      </trkpt>
      <trkpt lat="47.547124" lon="7.848795">
        <ele>336.218484</ele>
        <time>2021-11-20T19:38:23.329Z</time>
      </trkpt>
      <trkpt lat="47.547143" lon="7.849985">
        <ele>337.620826</ele>
        <time>2021-11-20T19:38:46.181Z</time>
      </trkpt>
      <trkpt lat="47.547141" lon="7.850355">
        <ele>338.056740</ele>
        <time>2021-11-20T19:38:53.281Z</time>
      </trkpt>
      <trkpt lat="47.546945" lon="7.851719">
        <ele>339.426217</ele>
        <time>2021-11-20T19:39:17.813Z</time>
      </trkpt>
      <trkpt lat="47.546582" lon="7.856413">
        <ele>340.664286</ele>
        <time>2021-11-20T19:40:26.125Z</time>
      </trkpt>
      <trkpt lat="47.546537" lon="7.857497">
        <ele>340.876673</ele>
        <time>2021-11-20T19:40:41.433Z</time>
      </trkpt>
      <trkpt lat="47.546487" lon="7.859119">
        <ele>341.205179</ele>
        <time>2021-11-20T19:41:04.881Z</time>
      </trkpt>
      <trkpt lat="47.546526" lon="7.861665">
        <ele>341.471805</ele>
        <time>2021-11-20T19:41:42.055Z</time>
      </trkpt>
      <trkpt lat="47.546592" lon="7.863006">
        <ele>340.594286</ele>
        <time>2021-11-20T19:41:58.522Z</time>
      </trkpt>
      <trkpt lat="47.546877" lon="7.864345">
        <ele>339.312547</ele>
        <time>2021-11-20T19:42:13.691Z</time>
      </trkpt>
      <trkpt lat="47.546885" lon="7.864500">
        <ele>339.170631</ele>
        <time>2021-11-20T19:42:15.371Z</time>
      </trkpt>
      <trkpt lat="47.546894" lon="7.864837">
        <ele>338.770689</ele>
        <time>2021-11-20T19:42:18.850Z</time>
      </trkpt>
      <trkpt lat="47.546889" lon="7.865225">
        <ele>338.260677</ele>
        <time>2021-11-20T19:42:22.971Z</time>
      </trkpt>
      <trkpt lat="47.546819" lon="7.865489">
        <ele>337.887912</ele>
        <time>2021-11-20T19:42:26.049Z</time>
      </trkpt>
      <trkpt lat="47.546510" lon="7.865766">
        <ele>337.184712</ele>
        <time>2021-11-20T19:42:31.743Z</time>
      </trkpt>
      <trkpt lat="47.546327" lon="7.865959">
        <ele>336.747343</ele>
        <time>2021-11-20T19:42:35.074Z</time>
      </trkpt>
      <trkpt lat="47.546096" lon="7.866147">
        <ele>336.234180</ele>
        <time>2021-11-20T19:42:39.141Z</time>
      </trkpt>
      <trkpt lat="47.545240" lon="7.866887">
        <ele>335.627357</ele>
        <time>2021-11-20T19:42:55.814Z</time>
      </trkpt>
      <trkpt lat="47.545160" lon="7.866985">
        <ele>335.636499</ele>
        <time>2021-11-20T19:42:57.770Z</time>
      </trkpt>
      <trkpt lat="47.545003" lon="7.867278">
        <ele>335.658738</ele>
        <time>2021-11-20T19:43:03.438Z</time>
      </trkpt>
      <trkpt lat="47.544568" lon="7.867693">
        <ele>335.704304</ele>
        <time>2021-11-20T19:43:16.229Z</time>
      </trkpt>
      <trkpt lat="47.544469" lon="7.867776">
        <ele>335.714323</ele>
        <time>2021-11-20T19:43:19.010Z</time>
      </trkpt>
      <trkpt lat="47.544410" lon="7.867825">
        <ele>335.720280</ele>
        <time>2021-11-20T19:43:20.959Z</time>
      </trkpt>
      <trkpt lat="47.544246" lon="7.867967">
        <ele>335.728516</ele>
        <time>2021-11-20T19:43:25.792Z</time>
      </trkpt>
      <trkpt lat="47.544214" lon="7.867988">
        <ele>335.728516</ele>
        <time>2021-11-20T19:43:26.643Z</time>
      </trkpt>
      <trkpt lat="47.543801" lon="7.868269">
        <ele>335.728516</ele>
        <time>2021-11-20T19:43:38.405Z</time>
      </trkpt>
      <trkpt lat="47.543657" lon="7.868359">
        <ele>335.728516</ele>
        <time>2021-11-20T19:43:42.847Z</time>
      </trkpt>
      <trkpt lat="47.543201" lon="7.868657">
        <ele>335.728516</ele>
        <time>2021-11-20T19:43:53.900Z</time>
      </trkpt>
      <trkpt lat="47.543105" lon="7.868711">
        <ele>335.728516</ele>
        <time>2021-11-20T19:43:56.360Z</time>
      </trkpt>
    </trkseg>
  </trk>
</gpx>